<?xml version="1.0" encoding="UTF-8" standalone="no" ?>
<gpx xmlns="http://www.topografix.com/GPX/1/1" xmlns:xsi="http://www.w3.org/2001/XMLSchema-instance" xsi:schemaLocation="http://www.topografix.com/GPX/1/1 http://www.topografix.com/GPX/1/1/gpx.xsd" version="1.1" creator="VisuGPX - https://www.visugpx.com">
  <metadata>
    <name>Courset</name>
    <desc><![CDATA[Départ de la Ferme du Bon Porc
Accessible aux attelage]]></desc>
  </metadata>
  <trk>
    <name><![CDATA[Courset]]></name>
    <extensions>
      <line xmlns="http://www.topografix.com/GPX/gpx_style/0/2">
        <color>0000FF</color>
        <width>4</width>
      </line>
    </extensions>
    <trkseg>
      <trkpt lat="50.64384" lon="1.85036">
        <ele>193</ele>
        <time>2024-01-16T16:22:57.000Z</time>
        <extensions>
          <visugpx:TrkExtension xmlns:visugpx="https://www.visugpx.com/editgpx/">
            <visugpx:node>53</visugpx:node>
            </visugpx:TrkExtension>
        </extensions>
      </trkpt>
      <trkpt lat="50.64378" lon="1.85044">
        <ele>193</ele>
        <time>2024-01-16T16:22:58.171Z</time>
      </trkpt>
      <trkpt lat="50.64367" lon="1.85057">
        <ele>193</ele>
        <time>2024-01-16T16:23:00.219Z</time>
      </trkpt>
      <trkpt lat="50.64358" lon="1.85069">
        <ele>193.1</ele>
        <time>2024-01-16T16:23:02.127Z</time>
        <extensions>
          <visugpx:TrkExtension xmlns:visugpx="https://www.visugpx.com/editgpx/">
            <visugpx:node>52</visugpx:node>
            </visugpx:TrkExtension>
        </extensions>
      </trkpt>
      <trkpt lat="50.64367" lon="1.85057">
        <ele>193</ele>
        <time>2024-01-16T16:23:03.751Z</time>
      </trkpt>
      <trkpt lat="50.64378" lon="1.85044">
        <ele>193</ele>
        <time>2024-01-16T16:23:05.799Z</time>
      </trkpt>
      <trkpt lat="50.64384" lon="1.85035">
        <ele>193</ele>
        <time>2024-01-16T16:23:07.033Z</time>
      </trkpt>
      <trkpt lat="50.6439" lon="1.85024">
        <ele>192.9</ele>
        <time>2024-01-16T16:23:08.274Z</time>
      </trkpt>
      <trkpt lat="50.64406" lon="1.84983">
        <ele>193.5</ele>
        <time>2024-01-16T16:23:13.825Z</time>
      </trkpt>
      <trkpt lat="50.64407" lon="1.84981">
        <ele>193.5</ele>
        <time>2024-01-16T16:23:14.066Z</time>
      </trkpt>
      <trkpt lat="50.64413" lon="1.8497">
        <ele>193.9</ele>
        <time>2024-01-16T16:23:16.270Z</time>
      </trkpt>
      <trkpt lat="50.64418" lon="1.84962">
        <ele>194</ele>
        <time>2024-01-16T16:23:17.490Z</time>
      </trkpt>
      <trkpt lat="50.64425" lon="1.84952">
        <ele>194.1</ele>
        <time>2024-01-16T16:23:19.052Z</time>
      </trkpt>
      <trkpt lat="50.64431" lon="1.84946">
        <ele>194</ele>
        <time>2024-01-16T16:23:19.984Z</time>
      </trkpt>
      <trkpt lat="50.64436" lon="1.84943">
        <ele>194.1</ele>
        <time>2024-01-16T16:23:20.947Z</time>
      </trkpt>
      <trkpt lat="50.64442" lon="1.84941">
        <ele>194.1</ele>
        <time>2024-01-16T16:23:21.861Z</time>
      </trkpt>
      <trkpt lat="50.64449" lon="1.84937">
        <ele>194.6</ele>
        <time>2024-01-16T16:23:24.286Z</time>
      </trkpt>
      <trkpt lat="50.64461" lon="1.84934">
        <ele>195.3</ele>
        <time>2024-01-16T16:23:27.772Z</time>
      </trkpt>
      <trkpt lat="50.64466" lon="1.84933">
        <ele>195.6</ele>
        <time>2024-01-16T16:23:29.254Z</time>
      </trkpt>
      <trkpt lat="50.64492" lon="1.84925">
        <ele>196.9</ele>
        <time>2024-01-16T16:23:36.060Z</time>
      </trkpt>
      <trkpt lat="50.64523" lon="1.84916">
        <ele>197.8</ele>
        <time>2024-01-16T16:23:42.385Z</time>
      </trkpt>
      <trkpt lat="50.64556" lon="1.84905">
        <ele>199</ele>
        <time>2024-01-16T16:23:49.728Z</time>
        <extensions>
          <visugpx:TrkExtension xmlns:visugpx="https://www.visugpx.com/editgpx/">
            <visugpx:node>51</visugpx:node>
            </visugpx:TrkExtension>
        </extensions>
      </trkpt>
      <trkpt lat="50.64562" lon="1.84903">
        <ele>199.3</ele>
        <time>2024-01-16T16:23:51.300Z</time>
      </trkpt>
      <trkpt lat="50.64564" lon="1.84902">
        <ele>199.4</ele>
        <time>2024-01-16T16:23:51.830Z</time>
      </trkpt>
      <trkpt lat="50.64569" lon="1.84899">
        <ele>199.7</ele>
        <time>2024-01-16T16:23:53.334Z</time>
      </trkpt>
      <trkpt lat="50.64577" lon="1.84894">
        <ele>199.9</ele>
        <time>2024-01-16T16:23:54.961Z</time>
      </trkpt>
      <trkpt lat="50.64584" lon="1.84889">
        <ele>200.1</ele>
        <time>2024-01-16T16:23:56.460Z</time>
      </trkpt>
      <trkpt lat="50.6459" lon="1.84883">
        <ele>200.4</ele>
        <time>2024-01-16T16:23:58.136Z</time>
      </trkpt>
      <trkpt lat="50.64593" lon="1.84881">
        <ele>200.6</ele>
        <time>2024-01-16T16:23:59.118Z</time>
      </trkpt>
      <trkpt lat="50.646" lon="1.84872">
        <ele>200.8</ele>
        <time>2024-01-16T16:24:00.805Z</time>
      </trkpt>
      <trkpt lat="50.64609" lon="1.8486">
        <ele>200.9</ele>
        <time>2024-01-16T16:24:02.713Z</time>
      </trkpt>
      <trkpt lat="50.64622" lon="1.84841">
        <ele>201</ele>
        <time>2024-01-16T16:24:05.503Z</time>
      </trkpt>
      <trkpt lat="50.64628" lon="1.84832">
        <ele>201</ele>
        <time>2024-01-16T16:24:06.737Z</time>
      </trkpt>
      <trkpt lat="50.64652" lon="1.848">
        <ele>199.5</ele>
        <time>2024-01-16T16:24:09.912Z</time>
      </trkpt>
      <trkpt lat="50.64662" lon="1.84786">
        <ele>199.2</ele>
        <time>2024-01-16T16:24:11.546Z</time>
      </trkpt>
      <trkpt lat="50.64665" lon="1.8478">
        <ele>199.1</ele>
        <time>2024-01-16T16:24:12.147Z</time>
      </trkpt>
      <trkpt lat="50.64678" lon="1.84762">
        <ele>197.6</ele>
        <time>2024-01-16T16:24:13.694Z</time>
      </trkpt>
      <trkpt lat="50.6469" lon="1.84745">
        <ele>195.9</ele>
        <time>2024-01-16T16:24:15.136Z</time>
      </trkpt>
      <trkpt lat="50.64697" lon="1.84738">
        <ele>194.9</ele>
        <time>2024-01-16T16:24:15.877Z</time>
      </trkpt>
      <trkpt lat="50.64702" lon="1.84734">
        <ele>194</ele>
        <time>2024-01-16T16:24:16.378Z</time>
      </trkpt>
      <trkpt lat="50.64707" lon="1.84733">
        <ele>193.4</ele>
        <time>2024-01-16T16:24:16.829Z</time>
      </trkpt>
      <trkpt lat="50.64715" lon="1.84733">
        <ele>192.6</ele>
        <time>2024-01-16T16:24:17.544Z</time>
      </trkpt>
      <trkpt lat="50.64718" lon="1.84733">
        <ele>192.2</ele>
        <time>2024-01-16T16:24:17.812Z</time>
        <extensions>
          <visugpx:TrkExtension xmlns:visugpx="https://www.visugpx.com/editgpx/">
            <visugpx:node>50</visugpx:node>
            </visugpx:TrkExtension>
        </extensions>
      </trkpt>
      <trkpt lat="50.64726" lon="1.84734">
        <ele>191.2</ele>
        <time>2024-01-16T16:24:18.530Z</time>
      </trkpt>
      <trkpt lat="50.64736" lon="1.84738">
        <ele>189.7</ele>
        <time>2024-01-16T16:24:19.452Z</time>
      </trkpt>
      <trkpt lat="50.64744" lon="1.84743">
        <ele>188.6</ele>
        <time>2024-01-16T16:24:20.221Z</time>
      </trkpt>
      <trkpt lat="50.64753" lon="1.84748">
        <ele>187.2</ele>
        <time>2024-01-16T16:24:21.075Z</time>
      </trkpt>
      <trkpt lat="50.64762" lon="1.84754">
        <ele>185.8</ele>
        <time>2024-01-16T16:24:21.948Z</time>
      </trkpt>
      <trkpt lat="50.64765" lon="1.84759">
        <ele>185.6</ele>
        <time>2024-01-16T16:24:22.395Z</time>
      </trkpt>
      <trkpt lat="50.64772" lon="1.84769">
        <ele>184.8</ele>
        <time>2024-01-16T16:24:23.239Z</time>
      </trkpt>
      <trkpt lat="50.64784" lon="1.84786">
        <ele>183.3</ele>
        <time>2024-01-16T16:24:24.682Z</time>
      </trkpt>
      <trkpt lat="50.64799" lon="1.84811">
        <ele>181.3</ele>
        <time>2024-01-16T16:24:26.633Z</time>
      </trkpt>
      <trkpt lat="50.64811" lon="1.84834">
        <ele>179.7</ele>
        <time>2024-01-16T16:24:28.321Z</time>
      </trkpt>
      <trkpt lat="50.64823" lon="1.8486">
        <ele>177.6</ele>
        <time>2024-01-16T16:24:30.144Z</time>
      </trkpt>
      <trkpt lat="50.64833" lon="1.84885">
        <ele>176</ele>
        <time>2024-01-16T16:24:31.820Z</time>
      </trkpt>
      <trkpt lat="50.64846" lon="1.84916">
        <ele>173.3</ele>
        <time>2024-01-16T16:24:33.927Z</time>
      </trkpt>
      <trkpt lat="50.64856" lon="1.84944">
        <ele>172.3</ele>
        <time>2024-01-16T16:24:35.967Z</time>
      </trkpt>
      <trkpt lat="50.64863" lon="1.84964">
        <ele>171.3</ele>
        <time>2024-01-16T16:24:37.262Z</time>
      </trkpt>
      <trkpt lat="50.64866" lon="1.84972">
        <ele>170.9</ele>
        <time>2024-01-16T16:24:37.789Z</time>
      </trkpt>
      <trkpt lat="50.64872" lon="1.84982">
        <ele>170.2</ele>
        <time>2024-01-16T16:24:38.569Z</time>
      </trkpt>
      <trkpt lat="50.64877" lon="1.84987">
        <ele>169.3</ele>
        <time>2024-01-16T16:24:39.098Z</time>
      </trkpt>
      <trkpt lat="50.64879" lon="1.84996">
        <ele>169.3</ele>
        <time>2024-01-16T16:24:39.999Z</time>
      </trkpt>
      <trkpt lat="50.64884" lon="1.85002">
        <ele>168.4</ele>
        <time>2024-01-16T16:24:40.561Z</time>
      </trkpt>
      <trkpt lat="50.64884" lon="1.85002">
        <ele>168.4</ele>
        <time>2024-01-16T16:24:40.561Z</time>
        <extensions>
          <visugpx:TrkExtension xmlns:visugpx="https://www.visugpx.com/editgpx/">
            <visugpx:node>49</visugpx:node>
            </visugpx:TrkExtension>
        </extensions>
      </trkpt>
      <trkpt lat="50.64884" lon="1.85002">
        <ele>168.4</ele>
        <time>2024-01-16T16:24:40.561Z</time>
      </trkpt>
      <trkpt lat="50.64879" lon="1.84996">
        <ele>169.3</ele>
        <time>2024-01-16T16:24:44.573Z</time>
      </trkpt>
      <trkpt lat="50.64877" lon="1.84987">
        <ele>169.3</ele>
        <time>2024-01-16T16:24:45.474Z</time>
      </trkpt>
      <trkpt lat="50.64875" lon="1.84975">
        <ele>169.2</ele>
        <time>2024-01-16T16:24:46.518Z</time>
      </trkpt>
      <trkpt lat="50.64874" lon="1.84962">
        <ele>168.7</ele>
        <time>2024-01-16T16:24:47.291Z</time>
      </trkpt>
      <trkpt lat="50.64872" lon="1.84947">
        <ele>168.4</ele>
        <time>2024-01-16T16:24:48.402Z</time>
      </trkpt>
      <trkpt lat="50.6487" lon="1.84928">
        <ele>167.8</ele>
        <time>2024-01-16T16:24:49.624Z</time>
      </trkpt>
      <trkpt lat="50.64865" lon="1.84879">
        <ele>166.8</ele>
        <time>2024-01-16T16:24:53.195Z</time>
      </trkpt>
      <trkpt lat="50.6486" lon="1.84825">
        <ele>164.8</ele>
        <time>2024-01-16T16:24:56.464Z</time>
      </trkpt>
      <trkpt lat="50.64854" lon="1.84771">
        <ele>163.8</ele>
        <time>2024-01-16T16:25:00.502Z</time>
      </trkpt>
      <trkpt lat="50.6485" lon="1.84735">
        <ele>162.3</ele>
        <time>2024-01-16T16:25:02.599Z</time>
      </trkpt>
      <trkpt lat="50.64847" lon="1.84704">
        <ele>161.1</ele>
        <time>2024-01-16T16:25:04.448Z</time>
      </trkpt>
      <trkpt lat="50.64844" lon="1.84675">
        <ele>160.6</ele>
        <time>2024-01-16T16:25:06.645Z</time>
      </trkpt>
      <trkpt lat="50.64842" lon="1.84651">
        <ele>159.7</ele>
        <time>2024-01-16T16:25:08.088Z</time>
      </trkpt>
      <trkpt lat="50.64841" lon="1.84647">
        <ele>159.7</ele>
        <time>2024-01-16T16:25:08.494Z</time>
      </trkpt>
      <trkpt lat="50.64839" lon="1.84629">
        <ele>159.2</ele>
        <time>2024-01-16T16:25:09.703Z</time>
      </trkpt>
      <trkpt lat="50.64836" lon="1.8461">
        <ele>159.2</ele>
        <time>2024-01-16T16:25:11.553Z</time>
      </trkpt>
      <trkpt lat="50.64832" lon="1.84589">
        <ele>157.3</ele>
        <time>2024-01-16T16:25:12.796Z</time>
      </trkpt>
      <trkpt lat="50.64826" lon="1.84564">
        <ele>156.2</ele>
        <time>2024-01-16T16:25:14.328Z</time>
      </trkpt>
      <trkpt lat="50.64821" lon="1.84543">
        <ele>154.6</ele>
        <time>2024-01-16T16:25:15.600Z</time>
      </trkpt>
      <trkpt lat="50.64815" lon="1.84523">
        <ele>152.5</ele>
        <time>2024-01-16T16:25:16.854Z</time>
      </trkpt>
      <trkpt lat="50.6481" lon="1.84494">
        <ele>150.1</ele>
        <time>2024-01-16T16:25:18.558Z</time>
      </trkpt>
      <trkpt lat="50.64804" lon="1.8447">
        <ele>148</ele>
        <time>2024-01-16T16:25:20.020Z</time>
      </trkpt>
      <trkpt lat="50.64804" lon="1.84469">
        <ele>147.9</ele>
        <time>2024-01-16T16:25:20.077Z</time>
        <extensions>
          <visugpx:TrkExtension xmlns:visugpx="https://www.visugpx.com/editgpx/">
            <visugpx:node>48</visugpx:node>
            </visugpx:TrkExtension>
        </extensions>
      </trkpt>
      <trkpt lat="50.64802" lon="1.8446">
        <ele>147.6</ele>
        <time>2024-01-16T16:25:20.680Z</time>
      </trkpt>
      <trkpt lat="50.64812" lon="1.84461">
        <ele>147.6</ele>
        <time>2024-01-16T16:25:22.173Z</time>
      </trkpt>
      <trkpt lat="50.64818" lon="1.84462">
        <ele>147.6</ele>
        <time>2024-01-16T16:25:23.072Z</time>
      </trkpt>
      <trkpt lat="50.64823" lon="1.84462">
        <ele>147.6</ele>
        <time>2024-01-16T16:25:23.817Z</time>
      </trkpt>
      <trkpt lat="50.64829" lon="1.8446">
        <ele>147.6</ele>
        <time>2024-01-16T16:25:24.731Z</time>
      </trkpt>
      <trkpt lat="50.64835" lon="1.84457">
        <ele>147.5</ele>
        <time>2024-01-16T16:25:25.544Z</time>
      </trkpt>
      <trkpt lat="50.64842" lon="1.84451">
        <ele>147.5</ele>
        <time>2024-01-16T16:25:26.731Z</time>
      </trkpt>
      <trkpt lat="50.64849" lon="1.84444">
        <ele>147.6</ele>
        <time>2024-01-16T16:25:28.122Z</time>
      </trkpt>
      <trkpt lat="50.64858" lon="1.8443">
        <ele>147.8</ele>
        <time>2024-01-16T16:25:30.329Z</time>
      </trkpt>
      <trkpt lat="50.64867" lon="1.84417">
        <ele>148.4</ele>
        <time>2024-01-16T16:25:33.468Z</time>
      </trkpt>
      <trkpt lat="50.64877" lon="1.844">
        <ele>148.9</ele>
        <time>2024-01-16T16:25:36.610Z</time>
      </trkpt>
      <trkpt lat="50.649" lon="1.84361">
        <ele>150.8</ele>
        <time>2024-01-16T16:25:46.128Z</time>
      </trkpt>
      <trkpt lat="50.64924" lon="1.84323">
        <ele>152.5</ele>
        <time>2024-01-16T16:25:54.966Z</time>
      </trkpt>
      <trkpt lat="50.64948" lon="1.84287">
        <ele>153.7</ele>
        <time>2024-01-16T16:26:02.233Z</time>
      </trkpt>
      <trkpt lat="50.64952" lon="1.84279">
        <ele>153.8</ele>
        <time>2024-01-16T16:26:03.357Z</time>
      </trkpt>
      <trkpt lat="50.6496" lon="1.84268">
        <ele>154.7</ele>
        <time>2024-01-16T16:26:07.751Z</time>
      </trkpt>
      <trkpt lat="50.64974" lon="1.84246">
        <ele>156</ele>
        <time>2024-01-16T16:26:14.072Z</time>
      </trkpt>
      <trkpt lat="50.6499" lon="1.84221">
        <ele>157</ele>
        <time>2024-01-16T16:26:19.528Z</time>
      </trkpt>
      <trkpt lat="50.65011" lon="1.84186">
        <ele>160.3</ele>
        <time>2024-01-16T16:26:36.332Z</time>
      </trkpt>
      <trkpt lat="50.65019" lon="1.84171">
        <ele>161.6</ele>
        <time>2024-01-16T16:26:42.923Z</time>
      </trkpt>
      <trkpt lat="50.6502" lon="1.84168">
        <ele>161.8</ele>
        <time>2024-01-16T16:26:43.916Z</time>
      </trkpt>
      <trkpt lat="50.65027" lon="1.84149">
        <ele>162.3</ele>
        <time>2024-01-16T16:26:46.960Z</time>
      </trkpt>
      <trkpt lat="50.65032" lon="1.84138">
        <ele>162.8</ele>
        <time>2024-01-16T16:26:49.443Z</time>
      </trkpt>
      <trkpt lat="50.65039" lon="1.84125">
        <ele>164</ele>
        <time>2024-01-16T16:26:55.566Z</time>
      </trkpt>
      <trkpt lat="50.65052" lon="1.84105">
        <ele>166.2</ele>
        <time>2024-01-16T16:27:06.697Z</time>
      </trkpt>
      <trkpt lat="50.65066" lon="1.84081">
        <ele>167.9</ele>
        <time>2024-01-16T16:27:14.966Z</time>
      </trkpt>
      <trkpt lat="50.65097" lon="1.84029">
        <ele>172.5</ele>
        <time>2024-01-16T16:27:38.179Z</time>
      </trkpt>
      <trkpt lat="50.6512" lon="1.83991">
        <ele>174.1</ele>
        <time>2024-01-16T16:27:46.625Z</time>
      </trkpt>
      <trkpt lat="50.65135" lon="1.83967">
        <ele>175.9</ele>
        <time>2024-01-16T16:27:55.406Z</time>
      </trkpt>
      <trkpt lat="50.65148" lon="1.83947">
        <ele>176.5</ele>
        <time>2024-01-16T16:27:59.243Z</time>
      </trkpt>
      <trkpt lat="50.65164" lon="1.83925">
        <ele>177.2</ele>
        <time>2024-01-16T16:28:03.725Z</time>
      </trkpt>
      <trkpt lat="50.6519" lon="1.8389">
        <ele>178.4</ele>
        <time>2024-01-16T16:28:11.126Z</time>
      </trkpt>
      <trkpt lat="50.65233" lon="1.83838">
        <ele>179</ele>
        <time>2024-01-16T16:28:20.131Z</time>
      </trkpt>
      <trkpt lat="50.65251" lon="1.83818">
        <ele>178.9</ele>
        <time>2024-01-16T16:28:23.275Z</time>
        <extensions>
          <visugpx:TrkExtension xmlns:visugpx="https://www.visugpx.com/editgpx/">
            <visugpx:node>47</visugpx:node>
            </visugpx:TrkExtension>
        </extensions>
      </trkpt>
      <trkpt lat="50.65253" lon="1.83815">
        <ele>178.8</ele>
        <time>2024-01-16T16:28:23.578Z</time>
      </trkpt>
      <trkpt lat="50.6526" lon="1.83812">
        <ele>178.8</ele>
        <time>2024-01-16T16:28:24.659Z</time>
      </trkpt>
      <trkpt lat="50.65259" lon="1.83814">
        <ele>178.9</ele>
        <time>2024-01-16T16:28:25.149Z</time>
      </trkpt>
      <trkpt lat="50.6526" lon="1.83821">
        <ele>179.5</ele>
        <time>2024-01-16T16:28:28.050Z</time>
      </trkpt>
      <trkpt lat="50.65266" lon="1.83856">
        <ele>181.9</ele>
        <time>2024-01-16T16:28:40.217Z</time>
      </trkpt>
      <trkpt lat="50.65272" lon="1.83891">
        <ele>183.9</ele>
        <time>2024-01-16T16:28:50.020Z</time>
      </trkpt>
      <trkpt lat="50.65275" lon="1.83909">
        <ele>185.3</ele>
        <time>2024-01-16T16:28:57.137Z</time>
      </trkpt>
      <trkpt lat="50.65276" lon="1.83922">
        <ele>186.3</ele>
        <time>2024-01-16T16:29:02.204Z</time>
      </trkpt>
      <trkpt lat="50.65278" lon="1.83939">
        <ele>187.6</ele>
        <time>2024-01-16T16:29:08.814Z</time>
      </trkpt>
      <trkpt lat="50.65282" lon="1.83963">
        <ele>189</ele>
        <time>2024-01-16T16:29:15.702Z</time>
      </trkpt>
      <trkpt lat="50.65286" lon="1.8399">
        <ele>190</ele>
        <time>2024-01-16T16:29:20.697Z</time>
      </trkpt>
      <trkpt lat="50.65286" lon="1.83998">
        <ele>190.3</ele>
        <time>2024-01-16T16:29:22.181Z</time>
      </trkpt>
      <trkpt lat="50.65286" lon="1.84004">
        <ele>190.6</ele>
        <time>2024-01-16T16:29:23.635Z</time>
      </trkpt>
      <trkpt lat="50.65287" lon="1.84011">
        <ele>190.7</ele>
        <time>2024-01-16T16:29:24.483Z</time>
      </trkpt>
      <trkpt lat="50.65286" lon="1.8402">
        <ele>191.1</ele>
        <time>2024-01-16T16:29:26.420Z</time>
      </trkpt>
      <trkpt lat="50.65285" lon="1.84031">
        <ele>191.6</ele>
        <time>2024-01-16T16:29:28.837Z</time>
      </trkpt>
      <trkpt lat="50.65282" lon="1.84048">
        <ele>192.5</ele>
        <time>2024-01-16T16:29:33.204Z</time>
      </trkpt>
      <trkpt lat="50.65277" lon="1.84073">
        <ele>193.6</ele>
        <time>2024-01-16T16:29:38.549Z</time>
      </trkpt>
      <trkpt lat="50.65273" lon="1.84099">
        <ele>194.6</ele>
        <time>2024-01-16T16:29:43.501Z</time>
      </trkpt>
      <trkpt lat="50.65268" lon="1.84124">
        <ele>195.5</ele>
        <time>2024-01-16T16:29:48.058Z</time>
      </trkpt>
      <trkpt lat="50.65263" lon="1.84155">
        <ele>196</ele>
        <time>2024-01-16T16:29:51.954Z</time>
      </trkpt>
      <trkpt lat="50.65258" lon="1.84187">
        <ele>196.2</ele>
        <time>2024-01-16T16:29:55.374Z</time>
      </trkpt>
      <trkpt lat="50.65254" lon="1.84208">
        <ele>196.2</ele>
        <time>2024-01-16T16:29:57.445Z</time>
      </trkpt>
      <trkpt lat="50.65253" lon="1.84223">
        <ele>196.2</ele>
        <time>2024-01-16T16:29:58.870Z</time>
      </trkpt>
      <trkpt lat="50.65251" lon="1.84239">
        <ele>195.5</ele>
        <time>2024-01-16T16:29:59.795Z</time>
      </trkpt>
      <trkpt lat="50.6525" lon="1.84254">
        <ele>195</ele>
        <time>2024-01-16T16:30:00.731Z</time>
      </trkpt>
      <trkpt lat="50.65248" lon="1.84266">
        <ele>194.7</ele>
        <time>2024-01-16T16:30:01.582Z</time>
      </trkpt>
      <trkpt lat="50.65247" lon="1.84276">
        <ele>194.5</ele>
        <time>2024-01-16T16:30:02.314Z</time>
      </trkpt>
      <trkpt lat="50.65246" lon="1.84287">
        <ele>193.9</ele>
        <time>2024-01-16T16:30:02.944Z</time>
      </trkpt>
      <trkpt lat="50.65244" lon="1.84295">
        <ele>193.3</ele>
        <time>2024-01-16T16:30:03.432Z</time>
      </trkpt>
      <trkpt lat="50.65243" lon="1.84309">
        <ele>192.6</ele>
        <time>2024-01-16T16:30:04.230Z</time>
      </trkpt>
      <trkpt lat="50.6524" lon="1.84338">
        <ele>191.4</ele>
        <time>2024-01-16T16:30:05.919Z</time>
      </trkpt>
      <trkpt lat="50.65239" lon="1.84351">
        <ele>191.6</ele>
        <time>2024-01-16T16:30:07.504Z</time>
      </trkpt>
      <trkpt lat="50.65237" lon="1.84364">
        <ele>191.6</ele>
        <time>2024-01-16T16:30:08.768Z</time>
      </trkpt>
      <trkpt lat="50.65236" lon="1.84376">
        <ele>191.5</ele>
        <time>2024-01-16T16:30:09.783Z</time>
      </trkpt>
      <trkpt lat="50.65235" lon="1.84378">
        <ele>191.4</ele>
        <time>2024-01-16T16:30:09.932Z</time>
      </trkpt>
      <trkpt lat="50.65233" lon="1.84391">
        <ele>191.2</ele>
        <time>2024-01-16T16:30:10.959Z</time>
      </trkpt>
      <trkpt lat="50.65232" lon="1.84405">
        <ele>191.1</ele>
        <time>2024-01-16T16:30:12.160Z</time>
      </trkpt>
      <trkpt lat="50.65231" lon="1.84413">
        <ele>190.9</ele>
        <time>2024-01-16T16:30:12.717Z</time>
      </trkpt>
      <trkpt lat="50.6523" lon="1.84424">
        <ele>191</ele>
        <time>2024-01-16T16:30:13.926Z</time>
      </trkpt>
      <trkpt lat="50.6523" lon="1.84435">
        <ele>191.3</ele>
        <time>2024-01-16T16:30:15.587Z</time>
      </trkpt>
      <trkpt lat="50.65231" lon="1.84444">
        <ele>191.6</ele>
        <time>2024-01-16T16:30:17.128Z</time>
      </trkpt>
      <trkpt lat="50.65232" lon="1.84454">
        <ele>191.8</ele>
        <time>2024-01-16T16:30:18.455Z</time>
      </trkpt>
      <trkpt lat="50.65234" lon="1.84465">
        <ele>192.2</ele>
        <time>2024-01-16T16:30:20.470Z</time>
      </trkpt>
      <trkpt lat="50.65237" lon="1.84482">
        <ele>192.8</ele>
        <time>2024-01-16T16:30:23.516Z</time>
      </trkpt>
      <trkpt lat="50.65244" lon="1.84509">
        <ele>193.9</ele>
        <time>2024-01-16T16:30:28.954Z</time>
      </trkpt>
      <trkpt lat="50.65248" lon="1.84529">
        <ele>194.9</ele>
        <time>2024-01-16T16:30:33.787Z</time>
      </trkpt>
      <trkpt lat="50.65253" lon="1.84546">
        <ele>195.8</ele>
        <time>2024-01-16T16:30:38.138Z</time>
      </trkpt>
      <trkpt lat="50.65256" lon="1.84562">
        <ele>196.4</ele>
        <time>2024-01-16T16:30:41.137Z</time>
      </trkpt>
      <trkpt lat="50.6526" lon="1.8458">
        <ele>197.2</ele>
        <time>2024-01-16T16:30:45.024Z</time>
      </trkpt>
      <trkpt lat="50.65264" lon="1.84599">
        <ele>197.8</ele>
        <time>2024-01-16T16:30:48.212Z</time>
      </trkpt>
      <trkpt lat="50.65268" lon="1.84617">
        <ele>198</ele>
        <time>2024-01-16T16:30:50.339Z</time>
      </trkpt>
      <trkpt lat="50.65271" lon="1.84634">
        <ele>198</ele>
        <time>2024-01-16T16:30:52.006Z</time>
      </trkpt>
      <trkpt lat="50.65273" lon="1.84649">
        <ele>198</ele>
        <time>2024-01-16T16:30:53.454Z</time>
      </trkpt>
      <trkpt lat="50.65274" lon="1.84668">
        <ele>198</ele>
        <time>2024-01-16T16:30:55.255Z</time>
      </trkpt>
      <trkpt lat="50.65275" lon="1.84671">
        <ele>198</ele>
        <time>2024-01-16T16:30:55.575Z</time>
      </trkpt>
      <trkpt lat="50.65276" lon="1.84678">
        <ele>198</ele>
        <time>2024-01-16T16:30:56.253Z</time>
      </trkpt>
      <trkpt lat="50.65278" lon="1.84689">
        <ele>198</ele>
        <time>2024-01-16T16:30:57.334Z</time>
      </trkpt>
      <trkpt lat="50.65282" lon="1.84701">
        <ele>198.3</ele>
        <time>2024-01-16T16:30:59.191Z</time>
      </trkpt>
      <trkpt lat="50.65287" lon="1.84716">
        <ele>198.7</ele>
        <time>2024-01-16T16:31:01.576Z</time>
      </trkpt>
      <trkpt lat="50.65289" lon="1.84722">
        <ele>198.8</ele>
        <time>2024-01-16T16:31:02.389Z</time>
      </trkpt>
      <trkpt lat="50.6529" lon="1.84728">
        <ele>198.9</ele>
        <time>2024-01-16T16:31:03.151Z</time>
      </trkpt>
      <trkpt lat="50.65292" lon="1.84734">
        <ele>199</ele>
        <time>2024-01-16T16:31:03.964Z</time>
      </trkpt>
      <trkpt lat="50.65297" lon="1.84744">
        <ele>199.4</ele>
        <time>2024-01-16T16:31:06.051Z</time>
      </trkpt>
      <trkpt lat="50.65302" lon="1.84754">
        <ele>199.7</ele>
        <time>2024-01-16T16:31:07.842Z</time>
      </trkpt>
      <trkpt lat="50.65305" lon="1.8476">
        <ele>200</ele>
        <time>2024-01-16T16:31:09.313Z</time>
      </trkpt>
      <trkpt lat="50.65306" lon="1.84762">
        <ele>200</ele>
        <time>2024-01-16T16:31:09.554Z</time>
      </trkpt>
      <trkpt lat="50.65311" lon="1.84771">
        <ele>200.2</ele>
        <time>2024-01-16T16:31:11.039Z</time>
      </trkpt>
      <trkpt lat="50.65316" lon="1.84779">
        <ele>200.3</ele>
        <time>2024-01-16T16:31:12.260Z</time>
      </trkpt>
      <trkpt lat="50.65321" lon="1.84789">
        <ele>200.4</ele>
        <time>2024-01-16T16:31:13.620Z</time>
      </trkpt>
      <trkpt lat="50.65327" lon="1.84799">
        <ele>200.6</ele>
        <time>2024-01-16T16:31:15.264Z</time>
      </trkpt>
      <trkpt lat="50.6533" lon="1.84808">
        <ele>200.7</ele>
        <time>2024-01-16T16:31:16.386Z</time>
      </trkpt>
      <trkpt lat="50.65334" lon="1.84816">
        <ele>200.7</ele>
        <time>2024-01-16T16:31:17.349Z</time>
      </trkpt>
      <trkpt lat="50.65336" lon="1.84826">
        <ele>200.4</ele>
        <time>2024-01-16T16:31:18.032Z</time>
      </trkpt>
      <trkpt lat="50.65338" lon="1.84835">
        <ele>200.4</ele>
        <time>2024-01-16T16:31:18.933Z</time>
      </trkpt>
      <trkpt lat="50.6534" lon="1.84846">
        <ele>200.9</ele>
        <time>2024-01-16T16:31:21.354Z</time>
      </trkpt>
      <trkpt lat="50.65343" lon="1.84864">
        <ele>201.6</ele>
        <time>2024-01-16T16:31:24.816Z</time>
      </trkpt>
      <trkpt lat="50.65344" lon="1.84867">
        <ele>201.6</ele>
        <time>2024-01-16T16:31:25.136Z</time>
      </trkpt>
      <trkpt lat="50.65346" lon="1.84877">
        <ele>201.6</ele>
        <time>2024-01-16T16:31:26.127Z</time>
      </trkpt>
      <trkpt lat="50.6535" lon="1.84891">
        <ele>201.8</ele>
        <time>2024-01-16T16:31:27.915Z</time>
      </trkpt>
      <trkpt lat="50.65355" lon="1.84904">
        <ele>202.5</ele>
        <time>2024-01-16T16:31:31.297Z</time>
      </trkpt>
      <trkpt lat="50.6536" lon="1.84919">
        <ele>202.9</ele>
        <time>2024-01-16T16:31:33.683Z</time>
      </trkpt>
      <trkpt lat="50.65365" lon="1.84941">
        <ele>203.1</ele>
        <time>2024-01-16T16:31:36.207Z</time>
      </trkpt>
      <trkpt lat="50.65368" lon="1.84959">
        <ele>203.2</ele>
        <time>2024-01-16T16:31:38.117Z</time>
      </trkpt>
      <trkpt lat="50.65368" lon="1.84972">
        <ele>203.2</ele>
        <time>2024-01-16T16:31:39.346Z</time>
      </trkpt>
      <trkpt lat="50.65368" lon="1.84994">
        <ele>203.8</ele>
        <time>2024-01-16T16:31:42.667Z</time>
      </trkpt>
      <trkpt lat="50.65369" lon="1.85012">
        <ele>204.1</ele>
        <time>2024-01-16T16:31:44.906Z</time>
      </trkpt>
      <trkpt lat="50.65371" lon="1.85026">
        <ele>204.3</ele>
        <time>2024-01-16T16:31:46.603Z</time>
      </trkpt>
      <trkpt lat="50.65374" lon="1.85047">
        <ele>204.8</ele>
        <time>2024-01-16T16:31:49.611Z</time>
      </trkpt>
      <trkpt lat="50.65374" lon="1.85064">
        <ele>205</ele>
        <time>2024-01-16T16:31:51.548Z</time>
      </trkpt>
      <trkpt lat="50.65374" lon="1.85085">
        <ele>205</ele>
        <time>2024-01-16T16:31:53.532Z</time>
      </trkpt>
      <trkpt lat="50.65374" lon="1.85116">
        <ele>205</ele>
        <time>2024-01-16T16:31:56.461Z</time>
      </trkpt>
      <trkpt lat="50.65374" lon="1.85137">
        <ele>205</ele>
        <time>2024-01-16T16:31:58.445Z</time>
      </trkpt>
      <trkpt lat="50.65372" lon="1.8514">
        <ele>205</ele>
        <time>2024-01-16T16:31:58.856Z</time>
      </trkpt>
      <trkpt lat="50.6537" lon="1.85149">
        <ele>205</ele>
        <time>2024-01-16T16:31:59.757Z</time>
      </trkpt>
      <trkpt lat="50.6537" lon="1.8515">
        <ele>205</ele>
        <time>2024-01-16T16:31:59.852Z</time>
        <extensions>
          <visugpx:TrkExtension xmlns:visugpx="https://www.visugpx.com/editgpx/">
            <visugpx:node>46</visugpx:node>
            </visugpx:TrkExtension>
        </extensions>
      </trkpt>
      <trkpt lat="50.6537" lon="1.85161">
        <ele>205</ele>
        <time>2024-01-16T16:32:00.891Z</time>
      </trkpt>
      <trkpt lat="50.65373" lon="1.8517">
        <ele>205</ele>
        <time>2024-01-16T16:32:01.851Z</time>
      </trkpt>
      <trkpt lat="50.65391" lon="1.85202">
        <ele>205</ele>
        <time>2024-01-16T16:32:05.893Z</time>
      </trkpt>
      <trkpt lat="50.65402" lon="1.85223">
        <ele>205</ele>
        <time>2024-01-16T16:32:08.466Z</time>
      </trkpt>
      <trkpt lat="50.65409" lon="1.85235">
        <ele>205</ele>
        <time>2024-01-16T16:32:10.007Z</time>
      </trkpt>
      <trkpt lat="50.65423" lon="1.85259">
        <ele>205</ele>
        <time>2024-01-16T16:32:13.088Z</time>
      </trkpt>
      <trkpt lat="50.6543" lon="1.85271">
        <ele>205</ele>
        <time>2024-01-16T16:32:14.628Z</time>
      </trkpt>
      <trkpt lat="50.65437" lon="1.85278">
        <ele>205</ele>
        <time>2024-01-16T16:32:15.863Z</time>
      </trkpt>
      <trkpt lat="50.65445" lon="1.85287">
        <ele>205</ele>
        <time>2024-01-16T16:32:17.327Z</time>
      </trkpt>
      <trkpt lat="50.65451" lon="1.85297">
        <ele>204.8</ele>
        <time>2024-01-16T16:32:18.390Z</time>
      </trkpt>
      <trkpt lat="50.65475" lon="1.85333">
        <ele>204</ele>
        <time>2024-01-16T16:32:22.381Z</time>
      </trkpt>
      <trkpt lat="50.65487" lon="1.85351">
        <ele>204.3</ele>
        <time>2024-01-16T16:32:25.343Z</time>
      </trkpt>
      <trkpt lat="50.65515" lon="1.85395">
        <ele>203</ele>
        <time>2024-01-16T16:32:29.790Z</time>
      </trkpt>
      <trkpt lat="50.65523" lon="1.85407">
        <ele>203</ele>
        <time>2024-01-16T16:32:31.435Z</time>
      </trkpt>
      <trkpt lat="50.65556" lon="1.85452">
        <ele>203</ele>
        <time>2024-01-16T16:32:37.935Z</time>
      </trkpt>
      <trkpt lat="50.65558" lon="1.8546">
        <ele>203.1</ele>
        <time>2024-01-16T16:32:38.913Z</time>
      </trkpt>
      <trkpt lat="50.65577" lon="1.85467">
        <ele>203.8</ele>
        <time>2024-01-16T16:32:43.176Z</time>
      </trkpt>
      <trkpt lat="50.65588" lon="1.85469">
        <ele>204.2</ele>
        <time>2024-01-16T16:32:45.602Z</time>
      </trkpt>
      <trkpt lat="50.65606" lon="1.85466">
        <ele>204.8</ele>
        <time>2024-01-16T16:32:49.432Z</time>
      </trkpt>
      <trkpt lat="50.65601" lon="1.85477">
        <ele>204.6</ele>
        <time>2024-01-16T16:32:50.473Z</time>
        <extensions>
          <visugpx:TrkExtension xmlns:visugpx="https://www.visugpx.com/editgpx/">
            <visugpx:node>45</visugpx:node>
            </visugpx:TrkExtension>
        </extensions>
      </trkpt>
      <trkpt lat="50.65597" lon="1.85492">
        <ele>204.5</ele>
        <time>2024-01-16T16:32:51.879Z</time>
      </trkpt>
      <trkpt lat="50.65612" lon="1.85506">
        <ele>205</ele>
        <time>2024-01-16T16:32:55.382Z</time>
      </trkpt>
      <trkpt lat="50.65619" lon="1.85504">
        <ele>205.3</ele>
        <time>2024-01-16T16:32:57.058Z</time>
      </trkpt>
      <trkpt lat="50.65626" lon="1.85498">
        <ele>205.5</ele>
        <time>2024-01-16T16:32:58.596Z</time>
      </trkpt>
      <trkpt lat="50.6564" lon="1.85479">
        <ele>206</ele>
        <time>2024-01-16T16:33:02.241Z</time>
      </trkpt>
      <trkpt lat="50.65649" lon="1.85466">
        <ele>206.4</ele>
        <time>2024-01-16T16:33:04.812Z</time>
      </trkpt>
      <trkpt lat="50.65657" lon="1.85454">
        <ele>206.7</ele>
        <time>2024-01-16T16:33:06.993Z</time>
      </trkpt>
      <trkpt lat="50.65663" lon="1.85448">
        <ele>206.9</ele>
        <time>2024-01-16T16:33:08.412Z</time>
      </trkpt>
      <trkpt lat="50.65671" lon="1.85443">
        <ele>207</ele>
        <time>2024-01-16T16:33:09.850Z</time>
      </trkpt>
      <trkpt lat="50.65675" lon="1.85442">
        <ele>207</ele>
        <time>2024-01-16T16:33:10.454Z</time>
      </trkpt>
      <trkpt lat="50.6568" lon="1.8544">
        <ele>207</ele>
        <time>2024-01-16T16:33:11.222Z</time>
      </trkpt>
      <trkpt lat="50.65687" lon="1.85439">
        <ele>207.1</ele>
        <time>2024-01-16T16:33:12.429Z</time>
      </trkpt>
      <trkpt lat="50.65694" lon="1.8544">
        <ele>207.2</ele>
        <time>2024-01-16T16:33:13.636Z</time>
      </trkpt>
      <trkpt lat="50.65702" lon="1.85442">
        <ele>207.3</ele>
        <time>2024-01-16T16:33:15.000Z</time>
      </trkpt>
      <trkpt lat="50.65727" lon="1.85453">
        <ele>208</ele>
        <time>2024-01-16T16:33:20.115Z</time>
      </trkpt>
      <trkpt lat="50.65761" lon="1.8547">
        <ele>208.4</ele>
        <time>2024-01-16T16:33:26.052Z</time>
      </trkpt>
      <trkpt lat="50.65784" lon="1.85483">
        <ele>208.5</ele>
        <time>2024-01-16T16:33:29.839Z</time>
      </trkpt>
      <trkpt lat="50.65846" lon="1.85528">
        <ele>207</ele>
        <time>2024-01-16T16:33:38.210Z</time>
      </trkpt>
      <trkpt lat="50.65882" lon="1.85553">
        <ele>206.3</ele>
        <time>2024-01-16T16:33:43.207Z</time>
      </trkpt>
      <trkpt lat="50.65893" lon="1.85562">
        <ele>206</ele>
        <time>2024-01-16T16:33:44.699Z</time>
      </trkpt>
      <trkpt lat="50.6591" lon="1.85574">
        <ele>205.5</ele>
        <time>2024-01-16T16:33:46.896Z</time>
      </trkpt>
      <trkpt lat="50.65932" lon="1.85589">
        <ele>204.9</ele>
        <time>2024-01-16T16:33:49.763Z</time>
      </trkpt>
      <trkpt lat="50.65939" lon="1.85594">
        <ele>204.7</ele>
        <time>2024-01-16T16:33:50.675Z</time>
      </trkpt>
      <trkpt lat="50.6595" lon="1.85602">
        <ele>204.3</ele>
        <time>2024-01-16T16:33:52.037Z</time>
      </trkpt>
      <trkpt lat="50.65966" lon="1.85615">
        <ele>204</ele>
        <time>2024-01-16T16:33:54.345Z</time>
      </trkpt>
      <trkpt lat="50.65981" lon="1.85628">
        <ele>204</ele>
        <time>2024-01-16T16:33:56.895Z</time>
      </trkpt>
      <trkpt lat="50.66014" lon="1.85658">
        <ele>203.7</ele>
        <time>2024-01-16T16:34:02.171Z</time>
      </trkpt>
      <trkpt lat="50.66034" lon="1.85678">
        <ele>204.1</ele>
        <time>2024-01-16T16:34:06.352Z</time>
      </trkpt>
      <trkpt lat="50.66064" lon="1.85708">
        <ele>204.3</ele>
        <time>2024-01-16T16:34:11.941Z</time>
      </trkpt>
      <trkpt lat="50.66088" lon="1.85736">
        <ele>205</ele>
        <time>2024-01-16T16:34:17.599Z</time>
      </trkpt>
      <trkpt lat="50.66112" lon="1.85764">
        <ele>205</ele>
        <time>2024-01-16T16:34:22.047Z</time>
      </trkpt>
      <trkpt lat="50.66134" lon="1.85791">
        <ele>205</ele>
        <time>2024-01-16T16:34:26.200Z</time>
      </trkpt>
      <trkpt lat="50.66161" lon="1.85824">
        <ele>205</ele>
        <time>2024-01-16T16:34:31.290Z</time>
      </trkpt>
      <trkpt lat="50.66167" lon="1.8583">
        <ele>205</ele>
        <time>2024-01-16T16:34:32.348Z</time>
      </trkpt>
      <trkpt lat="50.66173" lon="1.85834">
        <ele>205</ele>
        <time>2024-01-16T16:34:33.319Z</time>
      </trkpt>
      <trkpt lat="50.66176" lon="1.85837">
        <ele>205</ele>
        <time>2024-01-16T16:34:33.848Z</time>
      </trkpt>
      <trkpt lat="50.66179" lon="1.85842">
        <ele>205</ele>
        <time>2024-01-16T16:34:34.498Z</time>
      </trkpt>
      <trkpt lat="50.66186" lon="1.85856">
        <ele>205</ele>
        <time>2024-01-16T16:34:36.183Z</time>
      </trkpt>
      <trkpt lat="50.66192" lon="1.85865">
        <ele>205</ele>
        <time>2024-01-16T16:34:37.416Z</time>
      </trkpt>
      <trkpt lat="50.66196" lon="1.85875">
        <ele>204.9</ele>
        <time>2024-01-16T16:34:38.405Z</time>
      </trkpt>
      <trkpt lat="50.66202" lon="1.85889">
        <ele>204.7</ele>
        <time>2024-01-16T16:34:39.756Z</time>
      </trkpt>
      <trkpt lat="50.66212" lon="1.8592">
        <ele>205</ele>
        <time>2024-01-16T16:34:43.517Z</time>
      </trkpt>
      <trkpt lat="50.66222" lon="1.85951">
        <ele>205.2</ele>
        <time>2024-01-16T16:34:47.108Z</time>
      </trkpt>
      <trkpt lat="50.66227" lon="1.8597">
        <ele>205.6</ele>
        <time>2024-01-16T16:34:49.789Z</time>
      </trkpt>
      <trkpt lat="50.66232" lon="1.8599">
        <ele>204.9</ele>
        <time>2024-01-16T16:34:51.132Z</time>
      </trkpt>
      <trkpt lat="50.66234" lon="1.86007">
        <ele>204.7</ele>
        <time>2024-01-16T16:34:52.519Z</time>
      </trkpt>
      <trkpt lat="50.66234" lon="1.86007">
        <ele>204.7</ele>
        <time>2024-01-16T16:34:52.519Z</time>
      </trkpt>
      <trkpt lat="50.66235" lon="1.86013">
        <ele>204.8</ele>
        <time>2024-01-16T16:34:53.281Z</time>
      </trkpt>
      <trkpt lat="50.66239" lon="1.86031">
        <ele>204.9</ele>
        <time>2024-01-16T16:34:55.234Z</time>
      </trkpt>
      <trkpt lat="50.66241" lon="1.8605">
        <ele>205.2</ele>
        <time>2024-01-16T16:34:57.577Z</time>
      </trkpt>
      <trkpt lat="50.66241" lon="1.86063">
        <ele>205.3</ele>
        <time>2024-01-16T16:34:58.961Z</time>
        <extensions>
          <visugpx:TrkExtension xmlns:visugpx="https://www.visugpx.com/editgpx/">
            <visugpx:node>44</visugpx:node>
            </visugpx:TrkExtension>
        </extensions>
      </trkpt>
      <trkpt lat="50.66242" lon="1.86068">
        <ele>205.3</ele>
        <time>2024-01-16T16:34:59.457Z</time>
      </trkpt>
      <trkpt lat="50.66241" lon="1.86098">
        <ele>205.3</ele>
        <time>2024-01-16T16:35:02.294Z</time>
      </trkpt>
      <trkpt lat="50.6624" lon="1.86141">
        <ele>205.4</ele>
        <time>2024-01-16T16:35:06.504Z</time>
      </trkpt>
      <trkpt lat="50.66239" lon="1.86159">
        <ele>205.8</ele>
        <time>2024-01-16T16:35:08.979Z</time>
      </trkpt>
      <trkpt lat="50.66237" lon="1.86195">
        <ele>205.5</ele>
        <time>2024-01-16T16:35:12.008Z</time>
      </trkpt>
      <trkpt lat="50.66235" lon="1.86227">
        <ele>205.5</ele>
        <time>2024-01-16T16:35:15.046Z</time>
      </trkpt>
      <trkpt lat="50.66234" lon="1.86257">
        <ele>205.6</ele>
        <time>2024-01-16T16:35:18.031Z</time>
      </trkpt>
      <trkpt lat="50.66232" lon="1.86313">
        <ele>205.6</ele>
        <time>2024-01-16T16:35:23.329Z</time>
      </trkpt>
      <trkpt lat="50.6623" lon="1.86354">
        <ele>205.7</ele>
        <time>2024-01-16T16:35:27.359Z</time>
      </trkpt>
      <trkpt lat="50.66228" lon="1.86412">
        <ele>205.8</ele>
        <time>2024-01-16T16:35:32.990Z</time>
      </trkpt>
      <trkpt lat="50.66226" lon="1.86477">
        <ele>205.7</ele>
        <time>2024-01-16T16:35:38.998Z</time>
      </trkpt>
      <trkpt lat="50.66225" lon="1.8651">
        <ele>205</ele>
        <time>2024-01-16T16:35:41.345Z</time>
      </trkpt>
      <trkpt lat="50.66224" lon="1.86568">
        <ele>204</ele>
        <time>2024-01-16T16:35:45.670Z</time>
      </trkpt>
      <trkpt lat="50.66223" lon="1.867">
        <ele>201.9</ele>
        <time>2024-01-16T16:35:55.678Z</time>
      </trkpt>
      <trkpt lat="50.66222" lon="1.86763">
        <ele>202</ele>
        <time>2024-01-16T16:36:01.775Z</time>
      </trkpt>
      <trkpt lat="50.66223" lon="1.8684">
        <ele>201</ele>
        <time>2024-01-16T16:36:07.838Z</time>
      </trkpt>
      <trkpt lat="50.66223" lon="1.86892">
        <ele>201</ele>
        <time>2024-01-16T16:36:12.750Z</time>
      </trkpt>
      <trkpt lat="50.66223" lon="1.86959">
        <ele>200.9</ele>
        <time>2024-01-16T16:36:18.939Z</time>
      </trkpt>
      <trkpt lat="50.66223" lon="1.87039">
        <ele>200.9</ele>
        <time>2024-01-16T16:36:26.496Z</time>
      </trkpt>
      <trkpt lat="50.66224" lon="1.87124">
        <ele>200.9</ele>
        <time>2024-01-16T16:36:34.526Z</time>
      </trkpt>
      <trkpt lat="50.66225" lon="1.87174">
        <ele>200.8</ele>
        <time>2024-01-16T16:36:39.113Z</time>
      </trkpt>
      <trkpt lat="50.66226" lon="1.87192">
        <ele>200.7</ele>
        <time>2024-01-16T16:36:40.687Z</time>
      </trkpt>
      <trkpt lat="50.66227" lon="1.87201">
        <ele>200.7</ele>
        <time>2024-01-16T16:36:41.550Z</time>
      </trkpt>
      <trkpt lat="50.66228" lon="1.87212">
        <ele>200.7</ele>
        <time>2024-01-16T16:36:42.600Z</time>
      </trkpt>
      <trkpt lat="50.66231" lon="1.87215">
        <ele>200.6</ele>
        <time>2024-01-16T16:36:43.014Z</time>
      </trkpt>
      <trkpt lat="50.66233" lon="1.87216">
        <ele>200.5</ele>
        <time>2024-01-16T16:36:43.226Z</time>
        <extensions>
          <visugpx:TrkExtension xmlns:visugpx="https://www.visugpx.com/editgpx/">
            <visugpx:node>43</visugpx:node>
            </visugpx:TrkExtension>
        </extensions>
      </trkpt>
      <trkpt lat="50.66231" lon="1.87215">
        <ele>200.6</ele>
        <time>2024-01-16T16:36:43.756Z</time>
      </trkpt>
      <trkpt lat="50.66228" lon="1.87212">
        <ele>200.7</ele>
        <time>2024-01-16T16:36:44.465Z</time>
      </trkpt>
      <trkpt lat="50.66223" lon="1.87213">
        <ele>201</ele>
        <time>2024-01-16T16:36:45.948Z</time>
      </trkpt>
      <trkpt lat="50.66217" lon="1.87215">
        <ele>201.2</ele>
        <time>2024-01-16T16:36:47.237Z</time>
      </trkpt>
      <trkpt lat="50.66199" lon="1.87221">
        <ele>201.9</ele>
        <time>2024-01-16T16:36:51.362Z</time>
      </trkpt>
      <trkpt lat="50.66177" lon="1.8723">
        <ele>202.6</ele>
        <time>2024-01-16T16:36:56.042Z</time>
      </trkpt>
      <trkpt lat="50.66158" lon="1.87238">
        <ele>203.3</ele>
        <time>2024-01-16T16:37:00.324Z</time>
      </trkpt>
      <trkpt lat="50.66131" lon="1.87249">
        <ele>203.7</ele>
        <time>2024-01-16T16:37:05.118Z</time>
      </trkpt>
      <trkpt lat="50.66109" lon="1.87259">
        <ele>203</ele>
        <time>2024-01-16T16:37:07.740Z</time>
      </trkpt>
      <trkpt lat="50.6608" lon="1.87271">
        <ele>202.9</ele>
        <time>2024-01-16T16:37:12.069Z</time>
      </trkpt>
      <trkpt lat="50.66044" lon="1.87285">
        <ele>201.3</ele>
        <time>2024-01-16T16:37:15.937Z</time>
      </trkpt>
      <trkpt lat="50.66018" lon="1.87294">
        <ele>199.9</ele>
        <time>2024-01-16T16:37:18.539Z</time>
      </trkpt>
      <trkpt lat="50.65983" lon="1.87308">
        <ele>197.1</ele>
        <time>2024-01-16T16:37:21.767Z</time>
      </trkpt>
      <trkpt lat="50.65947" lon="1.87321">
        <ele>194.2</ele>
        <time>2024-01-16T16:37:25.069Z</time>
      </trkpt>
      <trkpt lat="50.65928" lon="1.87328">
        <ele>193.5</ele>
        <time>2024-01-16T16:37:27.216Z</time>
      </trkpt>
      <trkpt lat="50.65911" lon="1.87335">
        <ele>193.2</ele>
        <time>2024-01-16T16:37:29.461Z</time>
      </trkpt>
      <trkpt lat="50.65897" lon="1.87341">
        <ele>193.5</ele>
        <time>2024-01-16T16:37:32.128Z</time>
      </trkpt>
      <trkpt lat="50.65873" lon="1.87353">
        <ele>193.9</ele>
        <time>2024-01-16T16:37:36.527Z</time>
      </trkpt>
      <trkpt lat="50.65854" lon="1.87362">
        <ele>194.2</ele>
        <time>2024-01-16T16:37:39.965Z</time>
      </trkpt>
      <trkpt lat="50.6584" lon="1.87367">
        <ele>194.5</ele>
        <time>2024-01-16T16:37:42.610Z</time>
      </trkpt>
      <trkpt lat="50.65826" lon="1.87373">
        <ele>194.9</ele>
        <time>2024-01-16T16:37:45.489Z</time>
      </trkpt>
      <trkpt lat="50.65815" lon="1.87376">
        <ele>195.5</ele>
        <time>2024-01-16T16:37:48.534Z</time>
      </trkpt>
      <trkpt lat="50.65811" lon="1.87376">
        <ele>195.7</ele>
        <time>2024-01-16T16:37:49.574Z</time>
      </trkpt>
      <trkpt lat="50.65806" lon="1.87378">
        <ele>196</ele>
        <time>2024-01-16T16:37:51.064Z</time>
      </trkpt>
      <trkpt lat="50.65789" lon="1.87383">
        <ele>194.9</ele>
        <time>2024-01-16T16:37:52.640Z</time>
      </trkpt>
      <trkpt lat="50.65778" lon="1.87386">
        <ele>194.1</ele>
        <time>2024-01-16T16:37:53.638Z</time>
      </trkpt>
      <trkpt lat="50.65775" lon="1.87386">
        <ele>194.1</ele>
        <time>2024-01-16T16:37:54.085Z</time>
      </trkpt>
      <trkpt lat="50.6577" lon="1.87387">
        <ele>194</ele>
        <time>2024-01-16T16:37:54.714Z</time>
      </trkpt>
      <trkpt lat="50.65764" lon="1.87386">
        <ele>194.1</ele>
        <time>2024-01-16T16:37:55.776Z</time>
      </trkpt>
      <trkpt lat="50.65759" lon="1.87385">
        <ele>194</ele>
        <time>2024-01-16T16:37:56.405Z</time>
      </trkpt>
      <trkpt lat="50.65749" lon="1.87382">
        <ele>194</ele>
        <time>2024-01-16T16:37:57.922Z</time>
      </trkpt>
      <trkpt lat="50.65738" lon="1.8738">
        <ele>193.7</ele>
        <time>2024-01-16T16:37:59.225Z</time>
      </trkpt>
      <trkpt lat="50.65725" lon="1.87377">
        <ele>193.5</ele>
        <time>2024-01-16T16:38:00.931Z</time>
      </trkpt>
      <trkpt lat="50.65715" lon="1.87376">
        <ele>193.6</ele>
        <time>2024-01-16T16:38:02.578Z</time>
      </trkpt>
      <trkpt lat="50.65704" lon="1.87375">
        <ele>193.8</ele>
        <time>2024-01-16T16:38:04.550Z</time>
      </trkpt>
      <trkpt lat="50.65698" lon="1.87373">
        <ele>193.9</ele>
        <time>2024-01-16T16:38:05.626Z</time>
        <extensions>
          <visugpx:TrkExtension xmlns:visugpx="https://www.visugpx.com/editgpx/">
            <visugpx:node>42</visugpx:node>
            </visugpx:TrkExtension>
        </extensions>
      </trkpt>
      <trkpt lat="50.65704" lon="1.87375">
        <ele>193.8</ele>
        <time>2024-01-16T16:38:06.414Z</time>
      </trkpt>
      <trkpt lat="50.65707" lon="1.87386">
        <ele>193.6</ele>
        <time>2024-01-16T16:38:07.313Z</time>
      </trkpt>
      <trkpt lat="50.65711" lon="1.87404">
        <ele>193.4</ele>
        <time>2024-01-16T16:38:08.866Z</time>
      </trkpt>
      <trkpt lat="50.65715" lon="1.87428">
        <ele>193.3</ele>
        <time>2024-01-16T16:38:11.075Z</time>
      </trkpt>
      <trkpt lat="50.65718" lon="1.87454">
        <ele>193.2</ele>
        <time>2024-01-16T16:38:13.436Z</time>
      </trkpt>
      <trkpt lat="50.65721" lon="1.87484">
        <ele>193.5</ele>
        <time>2024-01-16T16:38:16.789Z</time>
      </trkpt>
      <trkpt lat="50.65724" lon="1.87509">
        <ele>194.3</ele>
        <time>2024-01-16T16:38:20.961Z</time>
      </trkpt>
      <trkpt lat="50.65726" lon="1.87527">
        <ele>194.8</ele>
        <time>2024-01-16T16:38:23.725Z</time>
      </trkpt>
      <trkpt lat="50.65726" lon="1.87534">
        <ele>195.1</ele>
        <time>2024-01-16T16:38:25.179Z</time>
      </trkpt>
      <trkpt lat="50.65726" lon="1.87546">
        <ele>195.4</ele>
        <time>2024-01-16T16:38:26.914Z</time>
      </trkpt>
      <trkpt lat="50.65724" lon="1.87564">
        <ele>196.2</ele>
        <time>2024-01-16T16:38:30.787Z</time>
      </trkpt>
      <trkpt lat="50.6572" lon="1.87589">
        <ele>197.1</ele>
        <time>2024-01-16T16:38:35.321Z</time>
      </trkpt>
      <trkpt lat="50.65715" lon="1.87616">
        <ele>197.4</ele>
        <time>2024-01-16T16:38:38.468Z</time>
      </trkpt>
      <trkpt lat="50.65712" lon="1.87634">
        <ele>198.2</ele>
        <time>2024-01-16T16:38:42.346Z</time>
      </trkpt>
      <trkpt lat="50.65708" lon="1.87654">
        <ele>198.5</ele>
        <time>2024-01-16T16:38:44.841Z</time>
      </trkpt>
      <trkpt lat="50.65704" lon="1.87679">
        <ele>198.7</ele>
        <time>2024-01-16T16:38:47.590Z</time>
      </trkpt>
      <trkpt lat="50.65702" lon="1.87692">
        <ele>198.7</ele>
        <time>2024-01-16T16:38:48.854Z</time>
      </trkpt>
      <trkpt lat="50.65702" lon="1.87697">
        <ele>198.7</ele>
        <time>2024-01-16T16:38:49.326Z</time>
      </trkpt>
      <trkpt lat="50.65701" lon="1.87707">
        <ele>198.8</ele>
        <time>2024-01-16T16:38:50.444Z</time>
      </trkpt>
      <trkpt lat="50.657" lon="1.87744">
        <ele>198.8</ele>
        <time>2024-01-16T16:38:53.942Z</time>
      </trkpt>
      <trkpt lat="50.65699" lon="1.87774">
        <ele>198</ele>
        <time>2024-01-16T16:38:55.945Z</time>
      </trkpt>
      <trkpt lat="50.65698" lon="1.87804">
        <ele>197.9</ele>
        <time>2024-01-16T16:38:58.647Z</time>
      </trkpt>
      <trkpt lat="50.65697" lon="1.87828">
        <ele>197.1</ele>
        <time>2024-01-16T16:39:00.139Z</time>
      </trkpt>
      <trkpt lat="50.65694" lon="1.87853">
        <ele>197</ele>
        <time>2024-01-16T16:39:02.408Z</time>
      </trkpt>
      <trkpt lat="50.65691" lon="1.87881">
        <ele>197.1</ele>
        <time>2024-01-16T16:39:05.239Z</time>
      </trkpt>
      <trkpt lat="50.65689" lon="1.87904">
        <ele>197.2</ele>
        <time>2024-01-16T16:39:07.581Z</time>
      </trkpt>
      <trkpt lat="50.65688" lon="1.87919">
        <ele>197.2</ele>
        <time>2024-01-16T16:39:09.006Z</time>
      </trkpt>
      <trkpt lat="50.65687" lon="1.87928">
        <ele>197.3</ele>
        <time>2024-01-16T16:39:10.033Z</time>
      </trkpt>
      <trkpt lat="50.65686" lon="1.87932">
        <ele>197.3</ele>
        <time>2024-01-16T16:39:10.439Z</time>
      </trkpt>
      <trkpt lat="50.65686" lon="1.87943">
        <ele>197.3</ele>
        <time>2024-01-16T16:39:11.478Z</time>
      </trkpt>
      <trkpt lat="50.65687" lon="1.87952">
        <ele>197.3</ele>
        <time>2024-01-16T16:39:12.341Z</time>
      </trkpt>
      <trkpt lat="50.65689" lon="1.87971">
        <ele>197.2</ele>
        <time>2024-01-16T16:39:14.028Z</time>
      </trkpt>
      <trkpt lat="50.65693" lon="1.88005">
        <ele>197.1</ele>
        <time>2024-01-16T16:39:17.158Z</time>
      </trkpt>
      <trkpt lat="50.65695" lon="1.88028">
        <ele>197</ele>
        <time>2024-01-16T16:39:19.217Z</time>
      </trkpt>
      <trkpt lat="50.65697" lon="1.88045">
        <ele>196.9</ele>
        <time>2024-01-16T16:39:20.718Z</time>
      </trkpt>
      <trkpt lat="50.65702" lon="1.88071">
        <ele>196.7</ele>
        <time>2024-01-16T16:39:23.026Z</time>
      </trkpt>
      <trkpt lat="50.65707" lon="1.88104">
        <ele>196.1</ele>
        <time>2024-01-16T16:39:25.542Z</time>
      </trkpt>
      <trkpt lat="50.6571" lon="1.88133">
        <ele>195.2</ele>
        <time>2024-01-16T16:39:27.416Z</time>
      </trkpt>
      <trkpt lat="50.65714" lon="1.88164">
        <ele>194.1</ele>
        <time>2024-01-16T16:39:29.348Z</time>
      </trkpt>
      <trkpt lat="50.65718" lon="1.88198">
        <ele>192.9</ele>
        <time>2024-01-16T16:39:31.461Z</time>
      </trkpt>
      <trkpt lat="50.65719" lon="1.88214">
        <ele>192.3</ele>
        <time>2024-01-16T16:39:32.417Z</time>
      </trkpt>
      <trkpt lat="50.6572" lon="1.88225">
        <ele>191.9</ele>
        <time>2024-01-16T16:39:33.087Z</time>
      </trkpt>
      <trkpt lat="50.6572" lon="1.88228">
        <ele>191.8</ele>
        <time>2024-01-16T16:39:33.273Z</time>
      </trkpt>
      <trkpt lat="50.6572" lon="1.88243">
        <ele>191.3</ele>
        <time>2024-01-16T16:39:34.203Z</time>
      </trkpt>
      <trkpt lat="50.65722" lon="1.88274">
        <ele>190.1</ele>
        <time>2024-01-16T16:39:36.035Z</time>
      </trkpt>
      <trkpt lat="50.65725" lon="1.88307">
        <ele>189.9</ele>
        <time>2024-01-16T16:39:38.921Z</time>
      </trkpt>
      <trkpt lat="50.65727" lon="1.88325">
        <ele>189.8</ele>
        <time>2024-01-16T16:39:40.515Z</time>
      </trkpt>
      <trkpt lat="50.65728" lon="1.88336">
        <ele>189.9</ele>
        <time>2024-01-16T16:39:41.724Z</time>
      </trkpt>
      <trkpt lat="50.65733" lon="1.88358">
        <ele>190.2</ele>
        <time>2024-01-16T16:39:44.436Z</time>
      </trkpt>
      <trkpt lat="50.65738" lon="1.88378">
        <ele>190.2</ele>
        <time>2024-01-16T16:39:46.467Z</time>
        <extensions>
          <visugpx:TrkExtension xmlns:visugpx="https://www.visugpx.com/editgpx/">
            <visugpx:node>41</visugpx:node>
            </visugpx:TrkExtension>
        </extensions>
      </trkpt>
      <trkpt lat="50.65739" lon="1.88381">
        <ele>190.2</ele>
        <time>2024-01-16T16:39:46.787Z</time>
      </trkpt>
      <trkpt lat="50.65742" lon="1.88392">
        <ele>190.3</ele>
        <time>2024-01-16T16:39:48.076Z</time>
      </trkpt>
      <trkpt lat="50.65746" lon="1.88408">
        <ele>190.1</ele>
        <time>2024-01-16T16:39:49.455Z</time>
      </trkpt>
      <trkpt lat="50.65751" lon="1.88427">
        <ele>190.3</ele>
        <time>2024-01-16T16:39:51.720Z</time>
      </trkpt>
      <trkpt lat="50.6576" lon="1.88449">
        <ele>190.3</ele>
        <time>2024-01-16T16:39:54.193Z</time>
      </trkpt>
      <trkpt lat="50.6577" lon="1.8847">
        <ele>189.6</ele>
        <time>2024-01-16T16:39:55.944Z</time>
      </trkpt>
      <trkpt lat="50.65777" lon="1.88485">
        <ele>189.1</ele>
        <time>2024-01-16T16:39:57.183Z</time>
      </trkpt>
      <trkpt lat="50.65778" lon="1.88487">
        <ele>189</ele>
        <time>2024-01-16T16:39:57.332Z</time>
      </trkpt>
      <trkpt lat="50.65786" lon="1.88503">
        <ele>188.7</ele>
        <time>2024-01-16T16:39:58.900Z</time>
      </trkpt>
      <trkpt lat="50.65798" lon="1.88525">
        <ele>187.6</ele>
        <time>2024-01-16T16:40:00.617Z</time>
      </trkpt>
      <trkpt lat="50.65809" lon="1.88546">
        <ele>186.8</ele>
        <time>2024-01-16T16:40:02.379Z</time>
      </trkpt>
      <trkpt lat="50.65818" lon="1.88568">
        <ele>185.9</ele>
        <time>2024-01-16T16:40:03.984Z</time>
      </trkpt>
      <trkpt lat="50.65825" lon="1.88588">
        <ele>184.8</ele>
        <time>2024-01-16T16:40:05.279Z</time>
      </trkpt>
      <trkpt lat="50.6583" lon="1.88602">
        <ele>184.3</ele>
        <time>2024-01-16T16:40:06.298Z</time>
      </trkpt>
      <trkpt lat="50.65832" lon="1.88615">
        <ele>184.1</ele>
        <time>2024-01-16T16:40:07.325Z</time>
      </trkpt>
      <trkpt lat="50.65834" lon="1.88628">
        <ele>184</ele>
        <time>2024-01-16T16:40:08.460Z</time>
      </trkpt>
      <trkpt lat="50.65835" lon="1.88647">
        <ele>183.6</ele>
        <time>2024-01-16T16:40:09.817Z</time>
      </trkpt>
      <trkpt lat="50.65835" lon="1.88648">
        <ele>183.6</ele>
        <time>2024-01-16T16:40:09.912Z</time>
      </trkpt>
      <trkpt lat="50.65835" lon="1.88665">
        <ele>182.9</ele>
        <time>2024-01-16T16:40:10.886Z</time>
      </trkpt>
      <trkpt lat="50.65835" lon="1.88668">
        <ele>182.8</ele>
        <time>2024-01-16T16:40:11.071Z</time>
      </trkpt>
      <trkpt lat="50.65835" lon="1.88702">
        <ele>181.9</ele>
        <time>2024-01-16T16:40:13.342Z</time>
      </trkpt>
      <trkpt lat="50.65836" lon="1.88755">
        <ele>181.8</ele>
        <time>2024-01-16T16:40:18.213Z</time>
      </trkpt>
      <trkpt lat="50.65837" lon="1.88807">
        <ele>180.9</ele>
        <time>2024-01-16T16:40:22.089Z</time>
      </trkpt>
      <trkpt lat="50.65838" lon="1.88838">
        <ele>180.7</ele>
        <time>2024-01-16T16:40:24.759Z</time>
      </trkpt>
      <trkpt lat="50.65838" lon="1.88858">
        <ele>180.7</ele>
        <time>2024-01-16T16:40:26.648Z</time>
      </trkpt>
      <trkpt lat="50.65838" lon="1.8887">
        <ele>180.7</ele>
        <time>2024-01-16T16:40:27.782Z</time>
      </trkpt>
      <trkpt lat="50.65837" lon="1.88881">
        <ele>180.7</ele>
        <time>2024-01-16T16:40:28.832Z</time>
      </trkpt>
      <trkpt lat="50.65835" lon="1.88892">
        <ele>180.9</ele>
        <time>2024-01-16T16:40:30.271Z</time>
      </trkpt>
      <trkpt lat="50.65834" lon="1.88897">
        <ele>181</ele>
        <time>2024-01-16T16:40:30.950Z</time>
      </trkpt>
      <trkpt lat="50.65823" lon="1.88945">
        <ele>181.7</ele>
        <time>2024-01-16T16:40:36.962Z</time>
      </trkpt>
      <trkpt lat="50.65817" lon="1.88974">
        <ele>182.2</ele>
        <time>2024-01-16T16:40:40.726Z</time>
      </trkpt>
      <trkpt lat="50.65812" lon="1.88997">
        <ele>182.5</ele>
        <time>2024-01-16T16:40:43.523Z</time>
      </trkpt>
      <trkpt lat="50.65809" lon="1.89015">
        <ele>181.8</ele>
        <time>2024-01-16T16:40:44.627Z</time>
      </trkpt>
      <trkpt lat="50.65807" lon="1.89035">
        <ele>181</ele>
        <time>2024-01-16T16:40:45.806Z</time>
      </trkpt>
      <trkpt lat="50.65806" lon="1.89047">
        <ele>181</ele>
        <time>2024-01-16T16:40:46.949Z</time>
      </trkpt>
      <trkpt lat="50.65802" lon="1.89042">
        <ele>181.3</ele>
        <time>2024-01-16T16:40:48.436Z</time>
      </trkpt>
      <trkpt lat="50.65798" lon="1.89038">
        <ele>181.7</ele>
        <time>2024-01-16T16:40:50.388Z</time>
        <extensions>
          <visugpx:TrkExtension xmlns:visugpx="https://www.visugpx.com/editgpx/">
            <visugpx:node>40</visugpx:node>
            </visugpx:TrkExtension>
        </extensions>
      </trkpt>
      <trkpt lat="50.65802" lon="1.89042">
        <ele>181.3</ele>
        <time>2024-01-16T16:40:50.812Z</time>
      </trkpt>
      <trkpt lat="50.65806" lon="1.89047">
        <ele>181</ele>
        <time>2024-01-16T16:40:51.291Z</time>
      </trkpt>
      <trkpt lat="50.65807" lon="1.89048">
        <ele>181</ele>
        <time>2024-01-16T16:40:51.467Z</time>
      </trkpt>
      <trkpt lat="50.65817" lon="1.89064">
        <ele>180.3</ele>
        <time>2024-01-16T16:40:52.892Z</time>
      </trkpt>
      <trkpt lat="50.65824" lon="1.89077">
        <ele>179.6</ele>
        <time>2024-01-16T16:40:53.871Z</time>
      </trkpt>
      <trkpt lat="50.65816" lon="1.89084">
        <ele>179.6</ele>
        <time>2024-01-16T16:40:55.234Z</time>
        <extensions>
          <visugpx:TrkExtension xmlns:visugpx="https://www.visugpx.com/editgpx/">
            <visugpx:node>39</visugpx:node>
            </visugpx:TrkExtension>
        </extensions>
      </trkpt>
      <trkpt lat="50.65811" lon="1.89088">
        <ele>179.7</ele>
        <time>2024-01-16T16:40:56.234Z</time>
      </trkpt>
      <trkpt lat="50.65801" lon="1.89096">
        <ele>180</ele>
        <time>2024-01-16T16:40:58.439Z</time>
      </trkpt>
      <trkpt lat="50.65798" lon="1.89099">
        <ele>180.3</ele>
        <time>2024-01-16T16:40:59.903Z</time>
      </trkpt>
      <trkpt lat="50.65791" lon="1.89108">
        <ele>180.7</ele>
        <time>2024-01-16T16:41:02.088Z</time>
      </trkpt>
      <trkpt lat="50.65781" lon="1.89122">
        <ele>181</ele>
        <time>2024-01-16T16:41:04.594Z</time>
      </trkpt>
      <trkpt lat="50.65774" lon="1.89135">
        <ele>180.6</ele>
        <time>2024-01-16T16:41:05.773Z</time>
      </trkpt>
      <trkpt lat="50.6577" lon="1.8915">
        <ele>180.3</ele>
        <time>2024-01-16T16:41:06.969Z</time>
      </trkpt>
      <trkpt lat="50.65767" lon="1.89166">
        <ele>179.8</ele>
        <time>2024-01-16T16:41:08.041Z</time>
      </trkpt>
      <trkpt lat="50.65766" lon="1.89176">
        <ele>179.7</ele>
        <time>2024-01-16T16:41:08.871Z</time>
        <extensions>
          <visugpx:TrkExtension xmlns:visugpx="https://www.visugpx.com/editgpx/">
            <visugpx:node>38</visugpx:node>
            </visugpx:TrkExtension>
        </extensions>
      </trkpt>
      <trkpt lat="50.65765" lon="1.89186">
        <ele>179.6</ele>
        <time>2024-01-16T16:41:09.702Z</time>
      </trkpt>
      <trkpt lat="50.65765" lon="1.89219">
        <ele>178.6</ele>
        <time>2024-01-16T16:41:11.815Z</time>
      </trkpt>
      <trkpt lat="50.65765" lon="1.89231">
        <ele>178.3</ele>
        <time>2024-01-16T16:41:12.630Z</time>
      </trkpt>
      <trkpt lat="50.65763" lon="1.89243">
        <ele>178.2</ele>
        <time>2024-01-16T16:41:13.674Z</time>
      </trkpt>
      <trkpt lat="50.65761" lon="1.89256">
        <ele>177.9</ele>
        <time>2024-01-16T16:41:14.610Z</time>
      </trkpt>
      <trkpt lat="50.65754" lon="1.89272">
        <ele>177.2</ele>
        <time>2024-01-16T16:41:15.782Z</time>
      </trkpt>
      <trkpt lat="50.65731" lon="1.89328">
        <ele>176.6</ele>
        <time>2024-01-16T16:41:21.324Z</time>
      </trkpt>
      <trkpt lat="50.65728" lon="1.89334">
        <ele>176.5</ele>
        <time>2024-01-16T16:41:21.924Z</time>
      </trkpt>
      <trkpt lat="50.65725" lon="1.8934">
        <ele>176.3</ele>
        <time>2024-01-16T16:41:22.437Z</time>
      </trkpt>
      <trkpt lat="50.65719" lon="1.89351">
        <ele>175.9</ele>
        <time>2024-01-16T16:41:23.394Z</time>
      </trkpt>
      <trkpt lat="50.65701" lon="1.89381">
        <ele>175.3</ele>
        <time>2024-01-16T16:41:26.582Z</time>
      </trkpt>
      <trkpt lat="50.65694" lon="1.89392">
        <ele>174.9</ele>
        <time>2024-01-16T16:41:27.632Z</time>
      </trkpt>
      <trkpt lat="50.6569" lon="1.89398">
        <ele>175</ele>
        <time>2024-01-16T16:41:28.620Z</time>
      </trkpt>
      <trkpt lat="50.65677" lon="1.89419">
        <ele>175.1</ele>
        <time>2024-01-16T16:41:31.540Z</time>
      </trkpt>
      <trkpt lat="50.65659" lon="1.89448">
        <ele>174.4</ele>
        <time>2024-01-16T16:41:34.566Z</time>
      </trkpt>
      <trkpt lat="50.65655" lon="1.89458">
        <ele>174.4</ele>
        <time>2024-01-16T16:41:35.683Z</time>
      </trkpt>
      <trkpt lat="50.65652" lon="1.89471">
        <ele>174.1</ele>
        <time>2024-01-16T16:41:36.660Z</time>
      </trkpt>
      <trkpt lat="50.6565" lon="1.89485">
        <ele>173.7</ele>
        <time>2024-01-16T16:41:37.604Z</time>
      </trkpt>
      <trkpt lat="50.65649" lon="1.89488">
        <ele>173.7</ele>
        <time>2024-01-16T16:41:37.924Z</time>
      </trkpt>
      <trkpt lat="50.65647" lon="1.89501">
        <ele>173.4</ele>
        <time>2024-01-16T16:41:38.860Z</time>
      </trkpt>
      <trkpt lat="50.65644" lon="1.8951">
        <ele>173.3</ele>
        <time>2024-01-16T16:41:39.695Z</time>
      </trkpt>
      <trkpt lat="50.65635" lon="1.89529">
        <ele>173.2</ele>
        <time>2024-01-16T16:41:41.801Z</time>
      </trkpt>
      <trkpt lat="50.65623" lon="1.89548">
        <ele>172.7</ele>
        <time>2024-01-16T16:41:43.766Z</time>
      </trkpt>
      <trkpt lat="50.65607" lon="1.89573">
        <ele>172</ele>
        <time>2024-01-16T16:41:46.336Z</time>
      </trkpt>
      <trkpt lat="50.65598" lon="1.89586">
        <ele>171.8</ele>
        <time>2024-01-16T16:41:47.904Z</time>
      </trkpt>
      <trkpt lat="50.6559" lon="1.89593">
        <ele>171.9</ele>
        <time>2024-01-16T16:41:49.422Z</time>
      </trkpt>
      <trkpt lat="50.65572" lon="1.8961">
        <ele>171.5</ele>
        <time>2024-01-16T16:41:52.059Z</time>
      </trkpt>
      <trkpt lat="50.65562" lon="1.89618">
        <ele>171.5</ele>
        <time>2024-01-16T16:41:53.730Z</time>
      </trkpt>
      <trkpt lat="50.65551" lon="1.89629">
        <ele>171.5</ele>
        <time>2024-01-16T16:41:55.670Z</time>
      </trkpt>
      <trkpt lat="50.65547" lon="1.89632">
        <ele>171.5</ele>
        <time>2024-01-16T16:41:56.330Z</time>
      </trkpt>
      <trkpt lat="50.65527" lon="1.89649">
        <ele>171.7</ele>
        <time>2024-01-16T16:42:00.020Z</time>
      </trkpt>
      <trkpt lat="50.6552" lon="1.89656">
        <ele>171.8</ele>
        <time>2024-01-16T16:42:01.412Z</time>
      </trkpt>
      <trkpt lat="50.65504" lon="1.8967">
        <ele>172.5</ele>
        <time>2024-01-16T16:42:05.524Z</time>
      </trkpt>
      <trkpt lat="50.6548" lon="1.89692">
        <ele>173.3</ele>
        <time>2024-01-16T16:42:11.112Z</time>
      </trkpt>
      <trkpt lat="50.65469" lon="1.89705">
        <ele>173.4</ele>
        <time>2024-01-16T16:42:13.310Z</time>
      </trkpt>
      <trkpt lat="50.6546" lon="1.89718">
        <ele>173.1</ele>
        <time>2024-01-16T16:42:14.776Z</time>
      </trkpt>
      <trkpt lat="50.65448" lon="1.89736">
        <ele>172.8</ele>
        <time>2024-01-16T16:42:16.874Z</time>
      </trkpt>
      <trkpt lat="50.65435" lon="1.89758">
        <ele>172.4</ele>
        <time>2024-01-16T16:42:19.232Z</time>
      </trkpt>
      <trkpt lat="50.65414" lon="1.89795">
        <ele>172.6</ele>
        <time>2024-01-16T16:42:24.222Z</time>
      </trkpt>
      <trkpt lat="50.65401" lon="1.89819">
        <ele>172.4</ele>
        <time>2024-01-16T16:42:26.942Z</time>
      </trkpt>
      <trkpt lat="50.65393" lon="1.89838">
        <ele>172.4</ele>
        <time>2024-01-16T16:42:29.096Z</time>
      </trkpt>
      <trkpt lat="50.65386" lon="1.89855">
        <ele>172.3</ele>
        <time>2024-01-16T16:42:30.878Z</time>
      </trkpt>
      <trkpt lat="50.65374" lon="1.89877">
        <ele>171.7</ele>
        <time>2024-01-16T16:42:32.953Z</time>
      </trkpt>
      <trkpt lat="50.65364" lon="1.89896">
        <ele>171.3</ele>
        <time>2024-01-16T16:42:34.818Z</time>
      </trkpt>
      <trkpt lat="50.65351" lon="1.89919">
        <ele>170.3</ele>
        <time>2024-01-16T16:42:36.746Z</time>
      </trkpt>
      <trkpt lat="50.6534" lon="1.89935">
        <ele>170.1</ele>
        <time>2024-01-16T16:42:38.720Z</time>
      </trkpt>
      <trkpt lat="50.65329" lon="1.89952">
        <ele>169.7</ele>
        <time>2024-01-16T16:42:40.549Z</time>
      </trkpt>
      <trkpt lat="50.65318" lon="1.8997">
        <ele>169.1</ele>
        <time>2024-01-16T16:42:42.267Z</time>
      </trkpt>
      <trkpt lat="50.65307" lon="1.89984">
        <ele>168.6</ele>
        <time>2024-01-16T16:42:43.828Z</time>
      </trkpt>
      <trkpt lat="50.65295" lon="1.89998">
        <ele>168.4</ele>
        <time>2024-01-16T16:42:45.797Z</time>
      </trkpt>
      <trkpt lat="50.65284" lon="1.90009">
        <ele>168.5</ele>
        <time>2024-01-16T16:42:47.888Z</time>
      </trkpt>
      <trkpt lat="50.65273" lon="1.90018">
        <ele>168.5</ele>
        <time>2024-01-16T16:42:49.735Z</time>
      </trkpt>
      <trkpt lat="50.65263" lon="1.90029">
        <ele>168.5</ele>
        <time>2024-01-16T16:42:51.552Z</time>
      </trkpt>
      <trkpt lat="50.65251" lon="1.90045">
        <ele>168.3</ele>
        <time>2024-01-16T16:42:53.636Z</time>
      </trkpt>
      <trkpt lat="50.65245" lon="1.90054">
        <ele>168.4</ele>
        <time>2024-01-16T16:42:55.027Z</time>
      </trkpt>
      <trkpt lat="50.65233" lon="1.90077">
        <ele>168.5</ele>
        <time>2024-01-16T16:42:57.989Z</time>
      </trkpt>
      <trkpt lat="50.65224" lon="1.90096">
        <ele>168.4</ele>
        <time>2024-01-16T16:43:00.095Z</time>
      </trkpt>
      <trkpt lat="50.65202" lon="1.90145">
        <ele>168.2</ele>
        <time>2024-01-16T16:43:05.495Z</time>
      </trkpt>
      <trkpt lat="50.65196" lon="1.90159">
        <ele>168.2</ele>
        <time>2024-01-16T16:43:07.092Z</time>
      </trkpt>
      <trkpt lat="50.65183" lon="1.90218">
        <ele>166.6</ele>
        <time>2024-01-16T16:43:11.305Z</time>
      </trkpt>
      <trkpt lat="50.65172" lon="1.90259">
        <ele>165.5</ele>
        <time>2024-01-16T16:43:14.340Z</time>
      </trkpt>
      <trkpt lat="50.65175" lon="1.90258">
        <ele>165.4</ele>
        <time>2024-01-16T16:43:14.686Z</time>
        <extensions>
          <visugpx:TrkExtension xmlns:visugpx="https://www.visugpx.com/editgpx/">
            <visugpx:node>37</visugpx:node>
            </visugpx:TrkExtension>
        </extensions>
      </trkpt>
      <trkpt lat="50.65172" lon="1.90259">
        <ele>165.5</ele>
        <time>2024-01-16T16:43:15.331Z</time>
      </trkpt>
      <trkpt lat="50.65172" lon="1.90259">
        <ele>165.5</ele>
        <time>2024-01-16T16:43:15.331Z</time>
      </trkpt>
      <trkpt lat="50.65156" lon="1.90266">
        <ele>166</ele>
        <time>2024-01-16T16:43:18.722Z</time>
      </trkpt>
      <trkpt lat="50.65145" lon="1.90269">
        <ele>166.3</ele>
        <time>2024-01-16T16:43:20.920Z</time>
      </trkpt>
      <trkpt lat="50.65133" lon="1.9027">
        <ele>166.8</ele>
        <time>2024-01-16T16:43:23.733Z</time>
      </trkpt>
      <trkpt lat="50.65115" lon="1.90271">
        <ele>167.3</ele>
        <time>2024-01-16T16:43:27.315Z</time>
      </trkpt>
      <trkpt lat="50.65088" lon="1.9027">
        <ele>169</ele>
        <time>2024-01-16T16:43:35.630Z</time>
      </trkpt>
      <trkpt lat="50.65061" lon="1.90267">
        <ele>170.2</ele>
        <time>2024-01-16T16:43:42.183Z</time>
      </trkpt>
      <trkpt lat="50.65039" lon="1.90263">
        <ele>170.8</ele>
        <time>2024-01-16T16:43:46.554Z</time>
      </trkpt>
      <trkpt lat="50.6501" lon="1.90256">
        <ele>170.9</ele>
        <time>2024-01-16T16:43:51.071Z</time>
      </trkpt>
      <trkpt lat="50.65008" lon="1.90255">
        <ele>170.9</ele>
        <time>2024-01-16T16:43:51.384Z</time>
      </trkpt>
      <trkpt lat="50.64991" lon="1.9025">
        <ele>170.7</ele>
        <time>2024-01-16T16:43:53.702Z</time>
      </trkpt>
      <trkpt lat="50.64976" lon="1.90245">
        <ele>170.3</ele>
        <time>2024-01-16T16:43:55.521Z</time>
      </trkpt>
      <trkpt lat="50.64953" lon="1.90235">
        <ele>169.8</ele>
        <time>2024-01-16T16:43:58.472Z</time>
      </trkpt>
      <trkpt lat="50.64953" lon="1.90235">
        <ele>169.8</ele>
        <time>2024-01-16T16:43:58.472Z</time>
      </trkpt>
      <trkpt lat="50.64953" lon="1.90228">
        <ele>170.1</ele>
        <time>2024-01-16T16:43:59.927Z</time>
      </trkpt>
      <trkpt lat="50.64947" lon="1.90226">
        <ele>170</ele>
        <time>2024-01-16T16:44:00.715Z</time>
      </trkpt>
      <trkpt lat="50.64944" lon="1.90225">
        <ele>169.9</ele>
        <time>2024-01-16T16:44:01.061Z</time>
        <extensions>
          <visugpx:TrkExtension xmlns:visugpx="https://www.visugpx.com/editgpx/">
            <visugpx:node>36</visugpx:node>
            </visugpx:TrkExtension>
        </extensions>
      </trkpt>
      <trkpt lat="50.64929" lon="1.9022">
        <ele>168.9</ele>
        <time>2024-01-16T16:44:02.444Z</time>
      </trkpt>
      <trkpt lat="50.64892" lon="1.90211">
        <ele>167.5</ele>
        <time>2024-01-16T16:44:06.516Z</time>
      </trkpt>
      <trkpt lat="50.6487" lon="1.90208">
        <ele>166.2</ele>
        <time>2024-01-16T16:44:08.588Z</time>
      </trkpt>
      <trkpt lat="50.64838" lon="1.90206">
        <ele>164.8</ele>
        <time>2024-01-16T16:44:11.916Z</time>
      </trkpt>
      <trkpt lat="50.64805" lon="1.90204">
        <ele>163</ele>
        <time>2024-01-16T16:44:15.104Z</time>
      </trkpt>
      <trkpt lat="50.64791" lon="1.90203">
        <ele>162.3</ele>
        <time>2024-01-16T16:44:16.498Z</time>
      </trkpt>
      <trkpt lat="50.64766" lon="1.90201">
        <ele>161.3</ele>
        <time>2024-01-16T16:44:19.170Z</time>
      </trkpt>
      <trkpt lat="50.64738" lon="1.90199">
        <ele>160.4</ele>
        <time>2024-01-16T16:44:22.343Z</time>
      </trkpt>
      <trkpt lat="50.64729" lon="1.90198">
        <ele>160.1</ele>
        <time>2024-01-16T16:44:23.355Z</time>
      </trkpt>
      <trkpt lat="50.64658" lon="1.90193">
        <ele>158.7</ele>
        <time>2024-01-16T16:44:32.239Z</time>
      </trkpt>
      <trkpt lat="50.6465" lon="1.90193">
        <ele>158.5</ele>
        <time>2024-01-16T16:44:33.197Z</time>
      </trkpt>
      <trkpt lat="50.646" lon="1.90192">
        <ele>158.2</ele>
        <time>2024-01-16T16:44:40.242Z</time>
      </trkpt>
      <trkpt lat="50.6456" lon="1.90192">
        <ele>158.2</ele>
        <time>2024-01-16T16:44:46.203Z</time>
      </trkpt>
      <trkpt lat="50.64532" lon="1.90191">
        <ele>157.4</ele>
        <time>2024-01-16T16:44:49.461Z</time>
      </trkpt>
      <trkpt lat="50.64516" lon="1.90192">
        <ele>157.6</ele>
        <time>2024-01-16T16:44:52.161Z</time>
      </trkpt>
      <trkpt lat="50.64513" lon="1.90193">
        <ele>157.6</ele>
        <time>2024-01-16T16:44:52.618Z</time>
      </trkpt>
      <trkpt lat="50.64487" lon="1.90183">
        <ele>158.4</ele>
        <time>2024-01-16T16:44:58.071Z</time>
      </trkpt>
      <trkpt lat="50.64468" lon="1.90179">
        <ele>158.6</ele>
        <time>2024-01-16T16:45:01.236Z</time>
      </trkpt>
      <trkpt lat="50.64449" lon="1.90175">
        <ele>158.7</ele>
        <time>2024-01-16T16:45:04.240Z</time>
      </trkpt>
      <trkpt lat="50.64413" lon="1.90171">
        <ele>158.8</ele>
        <time>2024-01-16T16:45:09.763Z</time>
      </trkpt>
      <trkpt lat="50.64412" lon="1.9017">
        <ele>158.9</ele>
        <time>2024-01-16T16:45:10.251Z</time>
      </trkpt>
      <trkpt lat="50.64395" lon="1.90169">
        <ele>158.9</ele>
        <time>2024-01-16T16:45:12.786Z</time>
      </trkpt>
      <trkpt lat="50.64373" lon="1.90168">
        <ele>160.1</ele>
        <time>2024-01-16T16:45:18.849Z</time>
      </trkpt>
      <trkpt lat="50.64359" lon="1.90167">
        <ele>161.1</ele>
        <time>2024-01-16T16:45:23.683Z</time>
      </trkpt>
      <trkpt lat="50.64317" lon="1.90168">
        <ele>163.1</ele>
        <time>2024-01-16T16:45:34.277Z</time>
      </trkpt>
      <trkpt lat="50.64272" lon="1.90169">
        <ele>166.3</ele>
        <time>2024-01-16T16:45:49.746Z</time>
      </trkpt>
      <trkpt lat="50.64265" lon="1.90169">
        <ele>166.8</ele>
        <time>2024-01-16T16:45:52.163Z</time>
      </trkpt>
      <trkpt lat="50.64257" lon="1.90169">
        <ele>167.4</ele>
        <time>2024-01-16T16:45:55.063Z</time>
      </trkpt>
      <trkpt lat="50.64235" lon="1.90169">
        <ele>169.5</ele>
        <time>2024-01-16T16:46:05.533Z</time>
      </trkpt>
      <trkpt lat="50.6421" lon="1.9017">
        <ele>171.8</ele>
        <time>2024-01-16T16:46:16.917Z</time>
      </trkpt>
      <trkpt lat="50.64191" lon="1.90171">
        <ele>173</ele>
        <time>2024-01-16T16:46:22.784Z</time>
      </trkpt>
      <trkpt lat="50.64178" lon="1.9017">
        <ele>173.5</ele>
        <time>2024-01-16T16:46:25.715Z</time>
      </trkpt>
      <trkpt lat="50.64165" lon="1.90167">
        <ele>174.1</ele>
        <time>2024-01-16T16:46:28.949Z</time>
      </trkpt>
      <trkpt lat="50.64161" lon="1.90166">
        <ele>174.2</ele>
        <time>2024-01-16T16:46:29.727Z</time>
      </trkpt>
      <trkpt lat="50.64155" lon="1.90164">
        <ele>174.5</ele>
        <time>2024-01-16T16:46:31.299Z</time>
      </trkpt>
      <trkpt lat="50.64143" lon="1.90162">
        <ele>175</ele>
        <time>2024-01-16T16:46:34.118Z</time>
      </trkpt>
      <trkpt lat="50.64128" lon="1.90162">
        <ele>175.5</ele>
        <time>2024-01-16T16:46:37.298Z</time>
      </trkpt>
      <trkpt lat="50.64111" lon="1.90161">
        <ele>176</ele>
        <time>2024-01-16T16:46:40.745Z</time>
      </trkpt>
      <trkpt lat="50.64101" lon="1.90163">
        <ele>175.6</ele>
        <time>2024-01-16T16:46:41.823Z</time>
      </trkpt>
      <trkpt lat="50.64091" lon="1.90165">
        <ele>175.3</ele>
        <time>2024-01-16T16:46:42.985Z</time>
      </trkpt>
      <trkpt lat="50.64078" lon="1.90168">
        <ele>175</ele>
        <time>2024-01-16T16:46:44.585Z</time>
      </trkpt>
      <trkpt lat="50.64075" lon="1.90168">
        <ele>175</ele>
        <time>2024-01-16T16:46:45.032Z</time>
      </trkpt>
      <trkpt lat="50.64064" lon="1.90169">
        <ele>175</ele>
        <time>2024-01-16T16:46:46.674Z</time>
      </trkpt>
      <trkpt lat="50.64049" lon="1.9017">
        <ele>174.6</ele>
        <time>2024-01-16T16:46:48.448Z</time>
      </trkpt>
      <trkpt lat="50.6403" lon="1.9017">
        <ele>173.3</ele>
        <time>2024-01-16T16:46:50.146Z</time>
      </trkpt>
      <trkpt lat="50.64014" lon="1.9017">
        <ele>172.6</ele>
        <time>2024-01-16T16:46:51.808Z</time>
      </trkpt>
      <trkpt lat="50.64014" lon="1.90179">
        <ele>172.9</ele>
        <time>2024-01-16T16:46:53.341Z</time>
        <extensions>
          <visugpx:TrkExtension xmlns:visugpx="https://www.visugpx.com/editgpx/">
            <visugpx:node>35</visugpx:node>
            </visugpx:TrkExtension>
        </extensions>
      </trkpt>
      <trkpt lat="50.64015" lon="1.9022">
        <ele>174</ele>
        <time>2024-01-16T16:46:59.482Z</time>
      </trkpt>
      <trkpt lat="50.64016" lon="1.90247">
        <ele>174.9</ele>
        <time>2024-01-16T16:47:04.084Z</time>
      </trkpt>
      <trkpt lat="50.64016" lon="1.90258">
        <ele>175.2</ele>
        <time>2024-01-16T16:47:05.745Z</time>
      </trkpt>
      <trkpt lat="50.64018" lon="1.90299">
        <ele>175.9</ele>
        <time>2024-01-16T16:47:10.878Z</time>
      </trkpt>
      <trkpt lat="50.64019" lon="1.90313">
        <ele>176</ele>
        <time>2024-01-16T16:47:12.365Z</time>
      </trkpt>
      <trkpt lat="50.64019" lon="1.90335">
        <ele>176</ele>
        <time>2024-01-16T16:47:14.444Z</time>
      </trkpt>
      <trkpt lat="50.64019" lon="1.90359">
        <ele>176</ele>
        <time>2024-01-16T16:47:16.712Z</time>
      </trkpt>
      <trkpt lat="50.64021" lon="1.90375">
        <ele>176</ele>
        <time>2024-01-16T16:47:18.253Z</time>
      </trkpt>
      <trkpt lat="50.64022" lon="1.90379">
        <ele>176</ele>
        <time>2024-01-16T16:47:18.659Z</time>
      </trkpt>
      <trkpt lat="50.64024" lon="1.90396">
        <ele>176</ele>
        <time>2024-01-16T16:47:20.293Z</time>
      </trkpt>
      <trkpt lat="50.64034" lon="1.90455">
        <ele>175.6</ele>
        <time>2024-01-16T16:47:25.542Z</time>
      </trkpt>
      <trkpt lat="50.64026" lon="1.90459">
        <ele>175.5</ele>
        <time>2024-01-16T16:47:26.663Z</time>
        <extensions>
          <visugpx:TrkExtension xmlns:visugpx="https://www.visugpx.com/editgpx/">
            <visugpx:node>34</visugpx:node>
            </visugpx:TrkExtension>
        </extensions>
      </trkpt>
      <trkpt lat="50.64026" lon="1.90459">
        <ele>175.5</ele>
        <time>2024-01-16T16:47:26.663Z</time>
      </trkpt>
      <trkpt lat="50.64005" lon="1.90465">
        <ele>175.3</ele>
        <time>2024-01-16T16:47:29.580Z</time>
      </trkpt>
      <trkpt lat="50.63992" lon="1.9047">
        <ele>174.8</ele>
        <time>2024-01-16T16:47:31.036Z</time>
      </trkpt>
      <trkpt lat="50.63979" lon="1.90472">
        <ele>174.3</ele>
        <time>2024-01-16T16:47:32.447Z</time>
      </trkpt>
      <trkpt lat="50.63966" lon="1.90473">
        <ele>174</ele>
        <time>2024-01-16T16:47:34.030Z</time>
      </trkpt>
      <trkpt lat="50.63958" lon="1.90474">
        <ele>173.9</ele>
        <time>2024-01-16T16:47:35.097Z</time>
      </trkpt>
      <trkpt lat="50.63945" lon="1.90477">
        <ele>173.8</ele>
        <time>2024-01-16T16:47:36.921Z</time>
      </trkpt>
      <trkpt lat="50.63934" lon="1.90477">
        <ele>173.5</ele>
        <time>2024-01-16T16:47:38.214Z</time>
      </trkpt>
      <trkpt lat="50.63918" lon="1.90477">
        <ele>172.9</ele>
        <time>2024-01-16T16:47:39.953Z</time>
      </trkpt>
      <trkpt lat="50.63904" lon="1.90476">
        <ele>172.9</ele>
        <time>2024-01-16T16:47:42.041Z</time>
      </trkpt>
      <trkpt lat="50.63888" lon="1.90474">
        <ele>172.9</ele>
        <time>2024-01-16T16:47:44.433Z</time>
      </trkpt>
      <trkpt lat="50.63863" lon="1.9047">
        <ele>173.1</ele>
        <time>2024-01-16T16:47:48.480Z</time>
      </trkpt>
      <trkpt lat="50.63858" lon="1.9047">
        <ele>173.2</ele>
        <time>2024-01-16T16:47:49.392Z</time>
      </trkpt>
      <trkpt lat="50.63854" lon="1.9047">
        <ele>173.3</ele>
        <time>2024-01-16T16:47:50.163Z</time>
      </trkpt>
      <trkpt lat="50.63842" lon="1.90471">
        <ele>173.7</ele>
        <time>2024-01-16T16:47:52.710Z</time>
      </trkpt>
      <trkpt lat="50.63828" lon="1.90474">
        <ele>173.9</ele>
        <time>2024-01-16T16:47:55.134Z</time>
      </trkpt>
      <trkpt lat="50.63809" lon="1.90478">
        <ele>173.8</ele>
        <time>2024-01-16T16:47:57.854Z</time>
      </trkpt>
      <trkpt lat="50.63792" lon="1.90484">
        <ele>173.8</ele>
        <time>2024-01-16T16:48:00.450Z</time>
      </trkpt>
      <trkpt lat="50.63775" lon="1.90489">
        <ele>174</ele>
        <time>2024-01-16T16:48:03.339Z</time>
      </trkpt>
      <trkpt lat="50.6375" lon="1.90498">
        <ele>174</ele>
        <time>2024-01-16T16:48:07.160Z</time>
      </trkpt>
      <trkpt lat="50.63738" lon="1.90501">
        <ele>173.5</ele>
        <time>2024-01-16T16:48:08.445Z</time>
      </trkpt>
      <trkpt lat="50.63725" lon="1.90505">
        <ele>172.9</ele>
        <time>2024-01-16T16:48:09.806Z</time>
      </trkpt>
      <trkpt lat="50.63703" lon="1.90512">
        <ele>172.3</ele>
        <time>2024-01-16T16:48:12.456Z</time>
      </trkpt>
      <trkpt lat="50.63683" lon="1.90518">
        <ele>171.6</ele>
        <time>2024-01-16T16:48:14.720Z</time>
      </trkpt>
      <trkpt lat="50.63669" lon="1.90521">
        <ele>171.3</ele>
        <time>2024-01-16T16:48:16.464Z</time>
      </trkpt>
      <trkpt lat="50.63662" lon="1.90521">
        <ele>171.4</ele>
        <time>2024-01-16T16:48:17.667Z</time>
      </trkpt>
      <trkpt lat="50.63661" lon="1.90531">
        <ele>171.2</ele>
        <time>2024-01-16T16:48:18.399Z</time>
      </trkpt>
      <trkpt lat="50.63661" lon="1.90533">
        <ele>171.2</ele>
        <time>2024-01-16T16:48:18.588Z</time>
        <extensions>
          <visugpx:TrkExtension xmlns:visugpx="https://www.visugpx.com/editgpx/">
            <visugpx:node>33</visugpx:node>
            </visugpx:TrkExtension>
        </extensions>
      </trkpt>
      <trkpt lat="50.63661" lon="1.90531">
        <ele>171.2</ele>
        <time>2024-01-16T16:48:18.777Z</time>
      </trkpt>
      <trkpt lat="50.63662" lon="1.90521">
        <ele>171.4</ele>
        <time>2024-01-16T16:48:20.104Z</time>
      </trkpt>
      <trkpt lat="50.63661" lon="1.90514">
        <ele>171.7</ele>
        <time>2024-01-16T16:48:21.562Z</time>
      </trkpt>
      <trkpt lat="50.63649" lon="1.90483">
        <ele>172.9</ele>
        <time>2024-01-16T16:48:27.713Z</time>
      </trkpt>
      <trkpt lat="50.63635" lon="1.90444">
        <ele>174</ele>
        <time>2024-01-16T16:48:34.135Z</time>
      </trkpt>
      <trkpt lat="50.63631" lon="1.90433">
        <ele>174</ele>
        <time>2024-01-16T16:48:35.334Z</time>
      </trkpt>
      <trkpt lat="50.63614" lon="1.90384">
        <ele>173.1</ele>
        <time>2024-01-16T16:48:39.560Z</time>
      </trkpt>
      <trkpt lat="50.63608" lon="1.90362">
        <ele>173</ele>
        <time>2024-01-16T16:48:41.688Z</time>
      </trkpt>
      <trkpt lat="50.63601" lon="1.90334">
        <ele>172.6</ele>
        <time>2024-01-16T16:48:44.050Z</time>
      </trkpt>
      <trkpt lat="50.63588" lon="1.90283">
        <ele>171.4</ele>
        <time>2024-01-16T16:48:47.927Z</time>
      </trkpt>
      <trkpt lat="50.63585" lon="1.90273">
        <ele>171.1</ele>
        <time>2024-01-16T16:48:48.661Z</time>
      </trkpt>
      <trkpt lat="50.63576" lon="1.90234">
        <ele>170.2</ele>
        <time>2024-01-16T16:48:51.593Z</time>
      </trkpt>
      <trkpt lat="50.63567" lon="1.90205">
        <ele>169.4</ele>
        <time>2024-01-16T16:48:53.793Z</time>
      </trkpt>
      <trkpt lat="50.63563" lon="1.90189">
        <ele>169.1</ele>
        <time>2024-01-16T16:48:55.073Z</time>
      </trkpt>
      <trkpt lat="50.63558" lon="1.90157">
        <ele>168.1</ele>
        <time>2024-01-16T16:48:57.183Z</time>
      </trkpt>
      <trkpt lat="50.63553" lon="1.90135">
        <ele>167.8</ele>
        <time>2024-01-16T16:48:59.027Z</time>
      </trkpt>
      <trkpt lat="50.6355" lon="1.90124">
        <ele>167.3</ele>
        <time>2024-01-16T16:48:59.710Z</time>
      </trkpt>
      <trkpt lat="50.63548" lon="1.90121">
        <ele>167.1</ele>
        <time>2024-01-16T16:48:59.957Z</time>
      </trkpt>
      <trkpt lat="50.63546" lon="1.90118">
        <ele>166.9</ele>
        <time>2024-01-16T16:49:00.203Z</time>
      </trkpt>
      <trkpt lat="50.63539" lon="1.90104">
        <ele>166.3</ele>
        <time>2024-01-16T16:49:01.305Z</time>
      </trkpt>
      <trkpt lat="50.63535" lon="1.90094">
        <ele>166.1</ele>
        <time>2024-01-16T16:49:02.191Z</time>
      </trkpt>
      <trkpt lat="50.63528" lon="1.90068">
        <ele>165.5</ele>
        <time>2024-01-16T16:49:04.197Z</time>
      </trkpt>
      <trkpt lat="50.63516" lon="1.90033">
        <ele>164.6</ele>
        <time>2024-01-16T16:49:06.977Z</time>
      </trkpt>
      <trkpt lat="50.63514" lon="1.90025">
        <ele>164.4</ele>
        <time>2024-01-16T16:49:07.574Z</time>
      </trkpt>
      <trkpt lat="50.63503" lon="1.89987">
        <ele>163.4</ele>
        <time>2024-01-16T16:49:10.448Z</time>
      </trkpt>
      <trkpt lat="50.63495" lon="1.8996">
        <ele>162.6</ele>
        <time>2024-01-16T16:49:12.431Z</time>
      </trkpt>
      <trkpt lat="50.63493" lon="1.89951">
        <ele>162.2</ele>
        <time>2024-01-16T16:49:12.974Z</time>
      </trkpt>
      <trkpt lat="50.63492" lon="1.89945">
        <ele>162</ele>
        <time>2024-01-16T16:49:13.363Z</time>
      </trkpt>
      <trkpt lat="50.63491" lon="1.89937">
        <ele>162</ele>
        <time>2024-01-16T16:49:14.134Z</time>
      </trkpt>
      <trkpt lat="50.63491" lon="1.89904">
        <ele>162</ele>
        <time>2024-01-16T16:49:17.253Z</time>
      </trkpt>
      <trkpt lat="50.63492" lon="1.89851">
        <ele>162.6</ele>
        <time>2024-01-16T16:49:23.251Z</time>
      </trkpt>
      <trkpt lat="50.63491" lon="1.89827">
        <ele>162.5</ele>
        <time>2024-01-16T16:49:25.389Z</time>
      </trkpt>
      <trkpt lat="50.63489" lon="1.89827">
        <ele>162.3</ele>
        <time>2024-01-16T16:49:25.568Z</time>
        <extensions>
          <visugpx:TrkExtension xmlns:visugpx="https://www.visugpx.com/editgpx/">
            <visugpx:node>32</visugpx:node>
            </visugpx:TrkExtension>
        </extensions>
      </trkpt>
      <trkpt lat="50.63475" lon="1.89831">
        <ele>161.2</ele>
        <time>2024-01-16T16:49:26.840Z</time>
      </trkpt>
      <trkpt lat="50.63455" lon="1.89837">
        <ele>161.1</ele>
        <time>2024-01-16T16:49:29.738Z</time>
      </trkpt>
      <trkpt lat="50.63434" lon="1.89843">
        <ele>161.2</ele>
        <time>2024-01-16T16:49:33.065Z</time>
      </trkpt>
      <trkpt lat="50.63411" lon="1.89849">
        <ele>161</ele>
        <time>2024-01-16T16:49:36.274Z</time>
      </trkpt>
      <trkpt lat="50.63398" lon="1.89853">
        <ele>161</ele>
        <time>2024-01-16T16:49:38.247Z</time>
      </trkpt>
      <trkpt lat="50.63388" lon="1.89858">
        <ele>161</ele>
        <time>2024-01-16T16:49:39.811Z</time>
      </trkpt>
      <trkpt lat="50.63381" lon="1.89864">
        <ele>161</ele>
        <time>2024-01-16T16:49:40.998Z</time>
      </trkpt>
      <trkpt lat="50.63374" lon="1.8987">
        <ele>161</ele>
        <time>2024-01-16T16:49:42.185Z</time>
      </trkpt>
      <trkpt lat="50.6337" lon="1.89875">
        <ele>161</ele>
        <time>2024-01-16T16:49:42.946Z</time>
      </trkpt>
      <trkpt lat="50.63368" lon="1.89877">
        <ele>161</ele>
        <time>2024-01-16T16:49:43.299Z</time>
      </trkpt>
      <trkpt lat="50.63363" lon="1.89885">
        <ele>161</ele>
        <time>2024-01-16T16:49:44.360Z</time>
      </trkpt>
      <trkpt lat="50.63356" lon="1.89897">
        <ele>161.5</ele>
        <time>2024-01-16T16:49:46.992Z</time>
      </trkpt>
      <trkpt lat="50.63349" lon="1.89913">
        <ele>162.4</ele>
        <time>2024-01-16T16:49:51.341Z</time>
      </trkpt>
      <trkpt lat="50.6334" lon="1.89934">
        <ele>163.3</ele>
        <time>2024-01-16T16:49:55.855Z</time>
      </trkpt>
      <trkpt lat="50.63332" lon="1.89951">
        <ele>164.2</ele>
        <time>2024-01-16T16:50:00.222Z</time>
      </trkpt>
      <trkpt lat="50.63315" lon="1.89986">
        <ele>166</ele>
        <time>2024-01-16T16:50:08.997Z</time>
      </trkpt>
      <trkpt lat="50.63306" lon="1.90001">
        <ele>167</ele>
        <time>2024-01-16T16:50:13.833Z</time>
      </trkpt>
      <trkpt lat="50.63293" lon="1.90021">
        <ele>166.9</ele>
        <time>2024-01-16T16:50:16.404Z</time>
      </trkpt>
      <trkpt lat="50.63285" lon="1.90032">
        <ele>167</ele>
        <time>2024-01-16T16:50:18.139Z</time>
      </trkpt>
      <trkpt lat="50.63276" lon="1.90048">
        <ele>167</ele>
        <time>2024-01-16T16:50:20.160Z</time>
      </trkpt>
      <trkpt lat="50.6327" lon="1.90063">
        <ele>167.5</ele>
        <time>2024-01-16T16:50:22.887Z</time>
      </trkpt>
      <trkpt lat="50.63264" lon="1.90082">
        <ele>168</ele>
        <time>2024-01-16T16:50:25.873Z</time>
      </trkpt>
      <trkpt lat="50.63259" lon="1.90103">
        <ele>168</ele>
        <time>2024-01-16T16:50:27.993Z</time>
      </trkpt>
      <trkpt lat="50.63254" lon="1.90123">
        <ele>168.4</ele>
        <time>2024-01-16T16:50:30.754Z</time>
      </trkpt>
      <trkpt lat="50.63253" lon="1.90129">
        <ele>168.6</ele>
        <time>2024-01-16T16:50:31.787Z</time>
      </trkpt>
      <trkpt lat="50.6325" lon="1.90141">
        <ele>169</ele>
        <time>2024-01-16T16:50:33.884Z</time>
      </trkpt>
      <trkpt lat="50.63245" lon="1.90158">
        <ele>168.9</ele>
        <time>2024-01-16T16:50:35.523Z</time>
      </trkpt>
      <trkpt lat="50.63239" lon="1.90175">
        <ele>168.7</ele>
        <time>2024-01-16T16:50:37.111Z</time>
      </trkpt>
      <trkpt lat="50.63232" lon="1.90188">
        <ele>168.2</ele>
        <time>2024-01-16T16:50:38.216Z</time>
      </trkpt>
      <trkpt lat="50.63226" lon="1.902">
        <ele>167.8</ele>
        <time>2024-01-16T16:50:39.240Z</time>
      </trkpt>
      <trkpt lat="50.63213" lon="1.90216">
        <ele>167.1</ele>
        <time>2024-01-16T16:50:40.969Z</time>
      </trkpt>
      <trkpt lat="50.632" lon="1.90231">
        <ele>166.7</ele>
        <time>2024-01-16T16:50:42.900Z</time>
      </trkpt>
      <trkpt lat="50.6319" lon="1.90242">
        <ele>166.1</ele>
        <time>2024-01-16T16:50:44.120Z</time>
      </trkpt>
      <trkpt lat="50.63175" lon="1.90256">
        <ele>165.2</ele>
        <time>2024-01-16T16:50:45.835Z</time>
      </trkpt>
      <trkpt lat="50.63158" lon="1.90271">
        <ele>165</ele>
        <time>2024-01-16T16:50:48.476Z</time>
      </trkpt>
      <trkpt lat="50.63142" lon="1.90287">
        <ele>164.7</ele>
        <time>2024-01-16T16:50:50.923Z</time>
      </trkpt>
      <trkpt lat="50.63133" lon="1.90297">
        <ele>164.2</ele>
        <time>2024-01-16T16:50:52.054Z</time>
      </trkpt>
      <trkpt lat="50.63137" lon="1.90307">
        <ele>163.9</ele>
        <time>2024-01-16T16:50:52.854Z</time>
      </trkpt>
      <trkpt lat="50.63124" lon="1.90316">
        <ele>163.6</ele>
        <time>2024-01-16T16:50:54.608Z</time>
        <extensions>
          <visugpx:TrkExtension xmlns:visugpx="https://www.visugpx.com/editgpx/">
            <visugpx:node>31</visugpx:node>
            </visugpx:TrkExtension>
        </extensions>
      </trkpt>
      <trkpt lat="50.63121" lon="1.90318">
        <ele>163.6</ele>
        <time>2024-01-16T16:50:55.093Z</time>
      </trkpt>
      <trkpt lat="50.63107" lon="1.9033">
        <ele>163</ele>
        <time>2024-01-16T16:50:56.823Z</time>
      </trkpt>
      <trkpt lat="50.63096" lon="1.90339">
        <ele>162.4</ele>
        <time>2024-01-16T16:50:58.069Z</time>
      </trkpt>
      <trkpt lat="50.63086" lon="1.90344">
        <ele>162.1</ele>
        <time>2024-01-16T16:50:59.290Z</time>
      </trkpt>
      <trkpt lat="50.63068" lon="1.9035">
        <ele>161.7</ele>
        <time>2024-01-16T16:51:01.551Z</time>
      </trkpt>
      <trkpt lat="50.63039" lon="1.90357">
        <ele>161.1</ele>
        <time>2024-01-16T16:51:05.195Z</time>
      </trkpt>
      <trkpt lat="50.63014" lon="1.90363">
        <ele>160.5</ele>
        <time>2024-01-16T16:51:08.253Z</time>
      </trkpt>
      <trkpt lat="50.62978" lon="1.90373">
        <ele>159.6</ele>
        <time>2024-01-16T16:51:12.642Z</time>
      </trkpt>
      <trkpt lat="50.62932" lon="1.90389">
        <ele>159</ele>
        <time>2024-01-16T16:51:18.891Z</time>
      </trkpt>
      <trkpt lat="50.62903" lon="1.90398">
        <ele>158.7</ele>
        <time>2024-01-16T16:51:22.903Z</time>
      </trkpt>
      <trkpt lat="50.6287" lon="1.9041">
        <ele>158.2</ele>
        <time>2024-01-16T16:51:27.317Z</time>
      </trkpt>
      <trkpt lat="50.62847" lon="1.90418">
        <ele>158.6</ele>
        <time>2024-01-16T16:51:31.480Z</time>
      </trkpt>
      <trkpt lat="50.62839" lon="1.90421">
        <ele>159</ele>
        <time>2024-01-16T16:51:33.581Z</time>
      </trkpt>
      <trkpt lat="50.62814" lon="1.90431">
        <ele>159.9</ele>
        <time>2024-01-16T16:51:39.151Z</time>
      </trkpt>
      <trkpt lat="50.62804" lon="1.90435">
        <ele>160.1</ele>
        <time>2024-01-16T16:51:41.021Z</time>
      </trkpt>
      <trkpt lat="50.62799" lon="1.90436">
        <ele>160.5</ele>
        <time>2024-01-16T16:51:42.960Z</time>
      </trkpt>
      <trkpt lat="50.62791" lon="1.90439">
        <ele>161</ele>
        <time>2024-01-16T16:51:45.421Z</time>
      </trkpt>
      <trkpt lat="50.62782" lon="1.90441">
        <ele>161.7</ele>
        <time>2024-01-16T16:51:48.807Z</time>
      </trkpt>
      <trkpt lat="50.62762" lon="1.90446">
        <ele>162.5</ele>
        <time>2024-01-16T16:51:53.428Z</time>
      </trkpt>
      <trkpt lat="50.62734" lon="1.90452">
        <ele>163.3</ele>
        <time>2024-01-16T16:51:59.083Z</time>
      </trkpt>
      <trkpt lat="50.62711" lon="1.90457">
        <ele>164</ele>
        <time>2024-01-16T16:52:03.828Z</time>
      </trkpt>
      <trkpt lat="50.62709" lon="1.90458">
        <ele>164</ele>
        <time>2024-01-16T16:52:04.140Z</time>
      </trkpt>
      <trkpt lat="50.62692" lon="1.90461">
        <ele>164.6</ele>
        <time>2024-01-16T16:52:07.842Z</time>
      </trkpt>
      <trkpt lat="50.62682" lon="1.90464">
        <ele>165.2</ele>
        <time>2024-01-16T16:52:10.814Z</time>
      </trkpt>
      <trkpt lat="50.62676" lon="1.90467">
        <ele>165.5</ele>
        <time>2024-01-16T16:52:12.402Z</time>
      </trkpt>
      <trkpt lat="50.62671" lon="1.90469">
        <ele>165.8</ele>
        <time>2024-01-16T16:52:13.893Z</time>
      </trkpt>
      <trkpt lat="50.62654" lon="1.9048">
        <ele>166.2</ele>
        <time>2024-01-16T16:52:17.312Z</time>
      </trkpt>
      <trkpt lat="50.62619" lon="1.90501">
        <ele>167.4</ele>
        <time>2024-01-16T16:52:25.134Z</time>
      </trkpt>
      <trkpt lat="50.62598" lon="1.90514">
        <ele>168.4</ele>
        <time>2024-01-16T16:52:30.595Z</time>
      </trkpt>
      <trkpt lat="50.62575" lon="1.9053">
        <ele>169.6</ele>
        <time>2024-01-16T16:52:36.945Z</time>
      </trkpt>
      <trkpt lat="50.62553" lon="1.90546">
        <ele>171.1</ele>
        <time>2024-01-16T16:52:44.302Z</time>
      </trkpt>
      <trkpt lat="50.62538" lon="1.90559">
        <ele>171.7</ele>
        <time>2024-01-16T16:52:48.005Z</time>
      </trkpt>
      <trkpt lat="50.62523" lon="1.90573">
        <ele>172</ele>
        <time>2024-01-16T16:52:51.094Z</time>
        <extensions>
          <visugpx:TrkExtension xmlns:visugpx="https://www.visugpx.com/editgpx/">
            <visugpx:node>30</visugpx:node>
            </visugpx:TrkExtension>
        </extensions>
      </trkpt>
      <trkpt lat="50.62518" lon="1.90577">
        <ele>172</ele>
        <time>2024-01-16T16:52:51.929Z</time>
      </trkpt>
      <trkpt lat="50.625" lon="1.90593">
        <ele>172.3</ele>
        <time>2024-01-16T16:52:55.488Z</time>
      </trkpt>
      <trkpt lat="50.62492" lon="1.90599">
        <ele>172.4</ele>
        <time>2024-01-16T16:52:56.963Z</time>
      </trkpt>
      <trkpt lat="50.62471" lon="1.90616">
        <ele>172</ele>
        <time>2024-01-16T16:52:59.984Z</time>
      </trkpt>
      <trkpt lat="50.6246" lon="1.90625">
        <ele>172</ele>
        <time>2024-01-16T16:53:01.830Z</time>
      </trkpt>
      <trkpt lat="50.62424" lon="1.90654">
        <ele>171.3</ele>
        <time>2024-01-16T16:53:06.986Z</time>
      </trkpt>
      <trkpt lat="50.62405" lon="1.90668">
        <ele>170.2</ele>
        <time>2024-01-16T16:53:09.039Z</time>
      </trkpt>
      <trkpt lat="50.62396" lon="1.90676">
        <ele>169.8</ele>
        <time>2024-01-16T16:53:10.152Z</time>
      </trkpt>
      <trkpt lat="50.62368" lon="1.90698">
        <ele>168.6</ele>
        <time>2024-01-16T16:53:13.530Z</time>
      </trkpt>
      <trkpt lat="50.62338" lon="1.90721">
        <ele>167.3</ele>
        <time>2024-01-16T16:53:17.117Z</time>
      </trkpt>
      <trkpt lat="50.62325" lon="1.90732">
        <ele>166.4</ele>
        <time>2024-01-16T16:53:18.483Z</time>
      </trkpt>
      <trkpt lat="50.62323" lon="1.90734">
        <ele>166.3</ele>
        <time>2024-01-16T16:53:18.732Z</time>
      </trkpt>
      <trkpt lat="50.62317" lon="1.90741">
        <ele>165.8</ele>
        <time>2024-01-16T16:53:19.400Z</time>
      </trkpt>
      <trkpt lat="50.62297" lon="1.90767">
        <ele>163.7</ele>
        <time>2024-01-16T16:53:21.717Z</time>
      </trkpt>
      <trkpt lat="50.62283" lon="1.90786">
        <ele>162.3</ele>
        <time>2024-01-16T16:53:23.369Z</time>
      </trkpt>
      <trkpt lat="50.62259" lon="1.9082">
        <ele>160.6</ele>
        <time>2024-01-16T16:53:26.522Z</time>
      </trkpt>
      <trkpt lat="50.6224" lon="1.90851">
        <ele>159.3</ele>
        <time>2024-01-16T16:53:29.288Z</time>
      </trkpt>
      <trkpt lat="50.62206" lon="1.90902">
        <ele>157.1</ele>
        <time>2024-01-16T16:53:34.058Z</time>
      </trkpt>
      <trkpt lat="50.62165" lon="1.90964">
        <ele>154.9</ele>
        <time>2024-01-16T16:53:40.178Z</time>
      </trkpt>
      <trkpt lat="50.6216" lon="1.9097">
        <ele>154.8</ele>
        <time>2024-01-16T16:53:40.989Z</time>
      </trkpt>
      <trkpt lat="50.62153" lon="1.90982">
        <ele>154.3</ele>
        <time>2024-01-16T16:53:42.029Z</time>
      </trkpt>
      <trkpt lat="50.62136" lon="1.91007">
        <ele>153</ele>
        <time>2024-01-16T16:53:44.253Z</time>
      </trkpt>
      <trkpt lat="50.62114" lon="1.91039">
        <ele>152.1</ele>
        <time>2024-01-16T16:53:47.695Z</time>
      </trkpt>
      <trkpt lat="50.62087" lon="1.9108">
        <ele>151.1</ele>
        <time>2024-01-16T16:53:52.123Z</time>
      </trkpt>
      <trkpt lat="50.62071" lon="1.91102">
        <ele>151.1</ele>
        <time>2024-01-16T16:53:55.287Z</time>
      </trkpt>
      <trkpt lat="50.62045" lon="1.91128">
        <ele>150.4</ele>
        <time>2024-01-16T16:53:59.041Z</time>
      </trkpt>
      <trkpt lat="50.62031" lon="1.91141">
        <ele>150.1</ele>
        <time>2024-01-16T16:54:01.093Z</time>
      </trkpt>
      <trkpt lat="50.62001" lon="1.91173">
        <ele>149</ele>
        <time>2024-01-16T16:54:05.249Z</time>
      </trkpt>
      <trkpt lat="50.61964" lon="1.91208">
        <ele>148</ele>
        <time>2024-01-16T16:54:10.490Z</time>
      </trkpt>
      <trkpt lat="50.61934" lon="1.91236">
        <ele>147.6</ele>
        <time>2024-01-16T16:54:15.167Z</time>
      </trkpt>
      <trkpt lat="50.61906" lon="1.91258">
        <ele>147.2</ele>
        <time>2024-01-16T16:54:19.316Z</time>
      </trkpt>
      <trkpt lat="50.61877" lon="1.91281">
        <ele>146.7</ele>
        <time>2024-01-16T16:54:23.525Z</time>
      </trkpt>
      <trkpt lat="50.61865" lon="1.91291">
        <ele>146.6</ele>
        <time>2024-01-16T16:54:25.414Z</time>
      </trkpt>
      <trkpt lat="50.61852" lon="1.91303">
        <ele>146.6</ele>
        <time>2024-01-16T16:54:27.659Z</time>
      </trkpt>
      <trkpt lat="50.61841" lon="1.91315">
        <ele>146.4</ele>
        <time>2024-01-16T16:54:29.400Z</time>
      </trkpt>
      <trkpt lat="50.61828" lon="1.91327">
        <ele>145.8</ele>
        <time>2024-01-16T16:54:31.009Z</time>
      </trkpt>
      <trkpt lat="50.61819" lon="1.91337">
        <ele>145.6</ele>
        <time>2024-01-16T16:54:32.403Z</time>
      </trkpt>
      <trkpt lat="50.61808" lon="1.91351">
        <ele>145.7</ele>
        <time>2024-01-16T16:54:34.660Z</time>
      </trkpt>
      <trkpt lat="50.618" lon="1.9136">
        <ele>145.6</ele>
        <time>2024-01-16T16:54:35.994Z</time>
      </trkpt>
      <trkpt lat="50.61794" lon="1.9137">
        <ele>145.3</ele>
        <time>2024-01-16T16:54:36.966Z</time>
      </trkpt>
      <trkpt lat="50.61786" lon="1.91384">
        <ele>145.2</ele>
        <time>2024-01-16T16:54:38.614Z</time>
      </trkpt>
      <trkpt lat="50.61779" lon="1.91399">
        <ele>145</ele>
        <time>2024-01-16T16:54:40.126Z</time>
      </trkpt>
      <trkpt lat="50.61769" lon="1.91419">
        <ele>144.6</ele>
        <time>2024-01-16T16:54:42.064Z</time>
      </trkpt>
      <trkpt lat="50.6176" lon="1.91435">
        <ele>143.7</ele>
        <time>2024-01-16T16:54:43.279Z</time>
      </trkpt>
      <trkpt lat="50.61752" lon="1.91452">
        <ele>143.1</ele>
        <time>2024-01-16T16:54:44.665Z</time>
      </trkpt>
      <trkpt lat="50.61744" lon="1.91468">
        <ele>142.8</ele>
        <time>2024-01-16T16:54:46.235Z</time>
      </trkpt>
      <trkpt lat="50.6174" lon="1.9148">
        <ele>142.5</ele>
        <time>2024-01-16T16:54:47.188Z</time>
      </trkpt>
      <trkpt lat="50.61737" lon="1.91487">
        <ele>142.2</ele>
        <time>2024-01-16T16:54:47.700Z</time>
      </trkpt>
      <trkpt lat="50.61734" lon="1.91493">
        <ele>142.1</ele>
        <time>2024-01-16T16:54:48.302Z</time>
      </trkpt>
      <trkpt lat="50.6173" lon="1.915">
        <ele>142</ele>
        <time>2024-01-16T16:54:49.068Z</time>
      </trkpt>
      <trkpt lat="50.61727" lon="1.91503">
        <ele>142.1</ele>
        <time>2024-01-16T16:54:49.777Z</time>
      </trkpt>
      <trkpt lat="50.61725" lon="1.91507">
        <ele>142.3</ele>
        <time>2024-01-16T16:54:50.758Z</time>
      </trkpt>
      <trkpt lat="50.61718" lon="1.91517">
        <ele>142.5</ele>
        <time>2024-01-16T16:54:52.505Z</time>
      </trkpt>
      <trkpt lat="50.61695" lon="1.91549">
        <ele>142.8</ele>
        <time>2024-01-16T16:54:57.537Z</time>
      </trkpt>
      <trkpt lat="50.61686" lon="1.91564">
        <ele>143</ele>
        <time>2024-01-16T16:54:59.810Z</time>
      </trkpt>
      <trkpt lat="50.61678" lon="1.91582">
        <ele>143.4</ele>
        <time>2024-01-16T16:55:02.613Z</time>
      </trkpt>
      <trkpt lat="50.61663" lon="1.91613">
        <ele>143.7</ele>
        <time>2024-01-16T16:55:06.769Z</time>
      </trkpt>
      <trkpt lat="50.6165" lon="1.91639">
        <ele>143.4</ele>
        <time>2024-01-16T16:55:09.518Z</time>
      </trkpt>
      <trkpt lat="50.61646" lon="1.91649">
        <ele>143.3</ele>
        <time>2024-01-16T16:55:10.508Z</time>
      </trkpt>
      <trkpt lat="50.61641" lon="1.91659">
        <ele>143.1</ele>
        <time>2024-01-16T16:55:11.476Z</time>
      </trkpt>
      <trkpt lat="50.61635" lon="1.91674">
        <ele>142.8</ele>
        <time>2024-01-16T16:55:12.805Z</time>
      </trkpt>
      <trkpt lat="50.61621" lon="1.91706">
        <ele>142.1</ele>
        <time>2024-01-16T16:55:15.679Z</time>
      </trkpt>
      <trkpt lat="50.61616" lon="1.91716">
        <ele>141.5</ele>
        <time>2024-01-16T16:55:16.401Z</time>
      </trkpt>
      <trkpt lat="50.61612" lon="1.91724">
        <ele>141.1</ele>
        <time>2024-01-16T16:55:16.996Z</time>
      </trkpt>
      <trkpt lat="50.61604" lon="1.91735">
        <ele>141.2</ele>
        <time>2024-01-16T16:55:18.731Z</time>
      </trkpt>
      <trkpt lat="50.61586" lon="1.91759">
        <ele>140.5</ele>
        <time>2024-01-16T16:55:21.450Z</time>
      </trkpt>
      <trkpt lat="50.61555" lon="1.91801">
        <ele>139</ele>
        <time>2024-01-16T16:55:25.920Z</time>
      </trkpt>
      <trkpt lat="50.61535" lon="1.91826">
        <ele>137.7</ele>
        <time>2024-01-16T16:55:28.443Z</time>
      </trkpt>
      <trkpt lat="50.61521" lon="1.91845">
        <ele>135.8</ele>
        <time>2024-01-16T16:55:30.095Z</time>
      </trkpt>
      <trkpt lat="50.61504" lon="1.91865">
        <ele>133.4</ele>
        <time>2024-01-16T16:55:31.992Z</time>
      </trkpt>
      <trkpt lat="50.61502" lon="1.91869">
        <ele>133.2</ele>
        <time>2024-01-16T16:55:32.289Z</time>
        <extensions>
          <visugpx:TrkExtension xmlns:visugpx="https://www.visugpx.com/editgpx/">
            <visugpx:node>29</visugpx:node>
            </visugpx:TrkExtension>
        </extensions>
      </trkpt>
      <trkpt lat="50.61492" lon="1.91882">
        <ele>132.4</ele>
        <time>2024-01-16T16:55:33.484Z</time>
      </trkpt>
      <trkpt lat="50.61487" lon="1.91893">
        <ele>132</ele>
        <time>2024-01-16T16:55:34.358Z</time>
      </trkpt>
      <trkpt lat="50.61482" lon="1.91905">
        <ele>131.5</ele>
        <time>2024-01-16T16:55:35.236Z</time>
      </trkpt>
      <trkpt lat="50.61479" lon="1.91915">
        <ele>131.3</ele>
        <time>2024-01-16T16:55:36.053Z</time>
      </trkpt>
      <trkpt lat="50.61476" lon="1.91926">
        <ele>130.8</ele>
        <time>2024-01-16T16:55:36.736Z</time>
      </trkpt>
      <trkpt lat="50.61474" lon="1.91937">
        <ele>130.3</ele>
        <time>2024-01-16T16:55:37.385Z</time>
      </trkpt>
      <trkpt lat="50.61472" lon="1.91948">
        <ele>130</ele>
        <time>2024-01-16T16:55:38.152Z</time>
      </trkpt>
      <trkpt lat="50.61471" lon="1.91962">
        <ele>130</ele>
        <time>2024-01-16T16:55:39.484Z</time>
      </trkpt>
      <trkpt lat="50.61471" lon="1.91977">
        <ele>130</ele>
        <time>2024-01-16T16:55:40.902Z</time>
      </trkpt>
      <trkpt lat="50.61471" lon="1.91993">
        <ele>130</ele>
        <time>2024-01-16T16:55:42.415Z</time>
      </trkpt>
      <trkpt lat="50.61471" lon="1.92103">
        <ele>130</ele>
        <time>2024-01-16T16:55:52.816Z</time>
      </trkpt>
      <trkpt lat="50.61472" lon="1.92163">
        <ele>130</ele>
        <time>2024-01-16T16:55:58.491Z</time>
      </trkpt>
      <trkpt lat="50.6147" lon="1.922">
        <ele>129.8</ele>
        <time>2024-01-16T16:56:01.737Z</time>
      </trkpt>
      <trkpt lat="50.6147" lon="1.92209">
        <ele>129.5</ele>
        <time>2024-01-16T16:56:02.295Z</time>
      </trkpt>
      <trkpt lat="50.61469" lon="1.92214">
        <ele>129.3</ele>
        <time>2024-01-16T16:56:02.605Z</time>
      </trkpt>
      <trkpt lat="50.61468" lon="1.92219">
        <ele>129.1</ele>
        <time>2024-01-16T16:56:02.915Z</time>
      </trkpt>
      <trkpt lat="50.61465" lon="1.9223">
        <ele>129</ele>
        <time>2024-01-16T16:56:03.919Z</time>
      </trkpt>
      <trkpt lat="50.61462" lon="1.9224">
        <ele>129</ele>
        <time>2024-01-16T16:56:04.965Z</time>
      </trkpt>
      <trkpt lat="50.61456" lon="1.92255">
        <ele>129</ele>
        <time>2024-01-16T16:56:06.641Z</time>
      </trkpt>
      <trkpt lat="50.61432" lon="1.92312">
        <ele>129</ele>
        <time>2024-01-16T16:56:13.109Z</time>
      </trkpt>
      <trkpt lat="50.6141" lon="1.92366">
        <ele>129</ele>
        <time>2024-01-16T16:56:19.177Z</time>
      </trkpt>
      <trkpt lat="50.61406" lon="1.92375">
        <ele>129</ele>
        <time>2024-01-16T16:56:20.216Z</time>
      </trkpt>
      <trkpt lat="50.61389" lon="1.92419">
        <ele>129</ele>
        <time>2024-01-16T16:56:25.087Z</time>
      </trkpt>
      <trkpt lat="50.6137" lon="1.9247">
        <ele>128.7</ele>
        <time>2024-01-16T16:56:30.279Z</time>
      </trkpt>
      <trkpt lat="50.61368" lon="1.92476">
        <ele>128.6</ele>
        <time>2024-01-16T16:56:30.801Z</time>
      </trkpt>
      <trkpt lat="50.61357" lon="1.92507">
        <ele>128</ele>
        <time>2024-01-16T16:56:33.464Z</time>
      </trkpt>
      <trkpt lat="50.61339" lon="1.92551">
        <ele>128.7</ele>
        <time>2024-01-16T16:56:39.598Z</time>
      </trkpt>
      <trkpt lat="50.61323" lon="1.92592">
        <ele>129</ele>
        <time>2024-01-16T16:56:44.610Z</time>
      </trkpt>
      <trkpt lat="50.61321" lon="1.92597">
        <ele>129</ele>
        <time>2024-01-16T16:56:45.169Z</time>
      </trkpt>
      <trkpt lat="50.61308" lon="1.92588">
        <ele>129</ele>
        <time>2024-01-16T16:56:47.285Z</time>
      </trkpt>
      <trkpt lat="50.61288" lon="1.92566">
        <ele>129.6</ele>
        <time>2024-01-16T16:56:51.967Z</time>
      </trkpt>
      <trkpt lat="50.61282" lon="1.92555">
        <ele>129.7</ele>
        <time>2024-01-16T16:56:53.493Z</time>
      </trkpt>
      <trkpt lat="50.61278" lon="1.92548">
        <ele>130</ele>
        <time>2024-01-16T16:56:55.051Z</time>
      </trkpt>
      <trkpt lat="50.61275" lon="1.92545">
        <ele>130.4</ele>
        <time>2024-01-16T16:56:57.092Z</time>
        <extensions>
          <visugpx:TrkExtension xmlns:visugpx="https://www.visugpx.com/editgpx/">
            <visugpx:node>28</visugpx:node>
            </visugpx:TrkExtension>
        </extensions>
      </trkpt>
      <trkpt lat="50.61275" lon="1.92545">
        <ele>130.4</ele>
        <time>2024-01-16T16:56:57.092Z</time>
      </trkpt>
      <trkpt lat="50.61271" lon="1.92543">
        <ele>131</ele>
        <time>2024-01-16T16:56:59.772Z</time>
      </trkpt>
      <trkpt lat="50.61267" lon="1.9254">
        <ele>131.6</ele>
        <time>2024-01-16T16:57:02.601Z</time>
      </trkpt>
      <trkpt lat="50.61261" lon="1.92548">
        <ele>132.4</ele>
        <time>2024-01-16T16:57:06.639Z</time>
      </trkpt>
      <trkpt lat="50.61241" lon="1.92585">
        <ele>135</ele>
        <time>2024-01-16T16:57:19.324Z</time>
      </trkpt>
      <trkpt lat="50.61226" lon="1.92615">
        <ele>136.5</ele>
        <time>2024-01-16T16:57:26.682Z</time>
      </trkpt>
      <trkpt lat="50.61215" lon="1.92633">
        <ele>136.7</ele>
        <time>2024-01-16T16:57:29.359Z</time>
      </trkpt>
      <trkpt lat="50.61208" lon="1.92643">
        <ele>136.9</ele>
        <time>2024-01-16T16:57:31.106Z</time>
      </trkpt>
      <trkpt lat="50.61197" lon="1.92653">
        <ele>136.9</ele>
        <time>2024-01-16T16:57:32.998Z</time>
      </trkpt>
      <trkpt lat="50.61179" lon="1.92665">
        <ele>137.2</ele>
        <time>2024-01-16T16:57:36.393Z</time>
      </trkpt>
      <trkpt lat="50.61156" lon="1.92677">
        <ele>138</ele>
        <time>2024-01-16T16:57:41.512Z</time>
      </trkpt>
      <trkpt lat="50.61123" lon="1.92694">
        <ele>138.6</ele>
        <time>2024-01-16T16:57:47.667Z</time>
      </trkpt>
      <trkpt lat="50.61109" lon="1.927">
        <ele>138.8</ele>
        <time>2024-01-16T16:57:50.146Z</time>
      </trkpt>
      <trkpt lat="50.61097" lon="1.92703">
        <ele>138.7</ele>
        <time>2024-01-16T16:57:51.824Z</time>
      </trkpt>
      <trkpt lat="50.61084" lon="1.92705">
        <ele>138.6</ele>
        <time>2024-01-16T16:57:53.637Z</time>
      </trkpt>
      <trkpt lat="50.61058" lon="1.92707">
        <ele>138.5</ele>
        <time>2024-01-16T16:57:57.378Z</time>
      </trkpt>
      <trkpt lat="50.61035" lon="1.92708">
        <ele>139.3</ele>
        <time>2024-01-16T16:58:02.340Z</time>
      </trkpt>
      <trkpt lat="50.61023" lon="1.9271">
        <ele>139.5</ele>
        <time>2024-01-16T16:58:04.463Z</time>
      </trkpt>
      <trkpt lat="50.61013" lon="1.92714">
        <ele>139.7</ele>
        <time>2024-01-16T16:58:06.334Z</time>
      </trkpt>
      <trkpt lat="50.61" lon="1.92721">
        <ele>140</ele>
        <time>2024-01-16T16:58:08.892Z</time>
      </trkpt>
      <trkpt lat="50.6098" lon="1.92731">
        <ele>139.7</ele>
        <time>2024-01-16T16:58:11.638Z</time>
      </trkpt>
      <trkpt lat="50.60969" lon="1.92736">
        <ele>139.5</ele>
        <time>2024-01-16T16:58:13.097Z</time>
      </trkpt>
      <trkpt lat="50.60966" lon="1.92738">
        <ele>139.4</ele>
        <time>2024-01-16T16:58:13.469Z</time>
      </trkpt>
      <trkpt lat="50.60949" lon="1.92745">
        <ele>139.2</ele>
        <time>2024-01-16T16:58:15.828Z</time>
      </trkpt>
      <trkpt lat="50.60918" lon="1.92759">
        <ele>138.7</ele>
        <time>2024-01-16T16:58:20.005Z</time>
      </trkpt>
      <trkpt lat="50.60895" lon="1.92762">
        <ele>138.6</ele>
        <time>2024-01-16T16:58:23.307Z</time>
      </trkpt>
      <trkpt lat="50.60866" lon="1.92763">
        <ele>139.4</ele>
        <time>2024-01-16T16:58:29.064Z</time>
      </trkpt>
      <trkpt lat="50.6086" lon="1.92762">
        <ele>139.6</ele>
        <time>2024-01-16T16:58:30.341Z</time>
      </trkpt>
      <trkpt lat="50.60848" lon="1.92756">
        <ele>140.4</ele>
        <time>2024-01-16T16:58:34.248Z</time>
      </trkpt>
      <trkpt lat="50.60843" lon="1.92753">
        <ele>140.6</ele>
        <time>2024-01-16T16:58:35.438Z</time>
      </trkpt>
      <trkpt lat="50.60842" lon="1.92753">
        <ele>140.7</ele>
        <time>2024-01-16T16:58:35.941Z</time>
      </trkpt>
      <trkpt lat="50.60833" lon="1.92747">
        <ele>141.1</ele>
        <time>2024-01-16T16:58:38.210Z</time>
      </trkpt>
      <trkpt lat="50.60827" lon="1.92744">
        <ele>141.4</ele>
        <time>2024-01-16T16:58:39.798Z</time>
      </trkpt>
      <trkpt lat="50.60821" lon="1.92743">
        <ele>141.7</ele>
        <time>2024-01-16T16:58:41.361Z</time>
      </trkpt>
      <trkpt lat="50.60814" lon="1.92744">
        <ele>141.9</ele>
        <time>2024-01-16T16:58:42.770Z</time>
      </trkpt>
      <trkpt lat="50.60801" lon="1.9275">
        <ele>142.2</ele>
        <time>2024-01-16T16:58:45.301Z</time>
      </trkpt>
      <trkpt lat="50.60786" lon="1.92756">
        <ele>142.6</ele>
        <time>2024-01-16T16:58:48.313Z</time>
      </trkpt>
      <trkpt lat="50.60773" lon="1.92763">
        <ele>142.5</ele>
        <time>2024-01-16T16:58:50.226Z</time>
      </trkpt>
      <trkpt lat="50.60763" lon="1.92769">
        <ele>142.3</ele>
        <time>2024-01-16T16:58:51.575Z</time>
      </trkpt>
      <trkpt lat="50.60754" lon="1.92772">
        <ele>142.2</ele>
        <time>2024-01-16T16:58:52.816Z</time>
      </trkpt>
      <trkpt lat="50.60747" lon="1.92774">
        <ele>142</ele>
        <time>2024-01-16T16:58:53.646Z</time>
      </trkpt>
      <trkpt lat="50.60738" lon="1.92776">
        <ele>141.6</ele>
        <time>2024-01-16T16:58:54.589Z</time>
      </trkpt>
      <trkpt lat="50.60724" lon="1.92776">
        <ele>141.1</ele>
        <time>2024-01-16T16:58:56.131Z</time>
      </trkpt>
      <trkpt lat="50.60706" lon="1.92776">
        <ele>140.5</ele>
        <time>2024-01-16T16:58:58.149Z</time>
      </trkpt>
      <trkpt lat="50.60688" lon="1.92777">
        <ele>139.8</ele>
        <time>2024-01-16T16:59:00.087Z</time>
      </trkpt>
      <trkpt lat="50.60674" lon="1.9278">
        <ele>139.3</ele>
        <time>2024-01-16T16:59:01.647Z</time>
      </trkpt>
      <trkpt lat="50.60673" lon="1.92772">
        <ele>139.3</ele>
        <time>2024-01-16T16:59:02.418Z</time>
        <extensions>
          <visugpx:TrkExtension xmlns:visugpx="https://www.visugpx.com/editgpx/">
            <visugpx:node>27</visugpx:node>
            </visugpx:TrkExtension>
        </extensions>
      </trkpt>
      <trkpt lat="50.60673" lon="1.92771">
        <ele>139.3</ele>
        <time>2024-01-16T16:59:02.512Z</time>
      </trkpt>
      <trkpt lat="50.6066" lon="1.92768">
        <ele>139</ele>
        <time>2024-01-16T16:59:04.113Z</time>
      </trkpt>
      <trkpt lat="50.60637" lon="1.92764">
        <ele>139</ele>
        <time>2024-01-16T16:59:07.561Z</time>
      </trkpt>
      <trkpt lat="50.60634" lon="1.92763">
        <ele>139</ele>
        <time>2024-01-16T16:59:08.018Z</time>
      </trkpt>
      <trkpt lat="50.60624" lon="1.9276">
        <ele>139</ele>
        <time>2024-01-16T16:59:09.535Z</time>
      </trkpt>
      <trkpt lat="50.60614" lon="1.92755">
        <ele>139</ele>
        <time>2024-01-16T16:59:11.098Z</time>
      </trkpt>
      <trkpt lat="50.60583" lon="1.92732">
        <ele>138</ele>
        <time>2024-01-16T16:59:15.065Z</time>
      </trkpt>
      <trkpt lat="50.60565" lon="1.92718">
        <ele>137.3</ele>
        <time>2024-01-16T16:59:17.290Z</time>
      </trkpt>
      <trkpt lat="50.60556" lon="1.9271">
        <ele>137</ele>
        <time>2024-01-16T16:59:18.488Z</time>
      </trkpt>
      <trkpt lat="50.60542" lon="1.92698">
        <ele>136.5</ele>
        <time>2024-01-16T16:59:20.302Z</time>
      </trkpt>
      <trkpt lat="50.60506" lon="1.92664">
        <ele>134.2</ele>
        <time>2024-01-16T16:59:24.346Z</time>
      </trkpt>
      <trkpt lat="50.60493" lon="1.92656">
        <ele>133.4</ele>
        <time>2024-01-16T16:59:25.668Z</time>
      </trkpt>
      <trkpt lat="50.60491" lon="1.92655">
        <ele>133.2</ele>
        <time>2024-01-16T16:59:25.856Z</time>
      </trkpt>
      <trkpt lat="50.60488" lon="1.92654">
        <ele>132.9</ele>
        <time>2024-01-16T16:59:26.130Z</time>
      </trkpt>
      <trkpt lat="50.60478" lon="1.92653">
        <ele>132</ele>
        <time>2024-01-16T16:59:27.026Z</time>
      </trkpt>
      <trkpt lat="50.6046" lon="1.92654">
        <ele>130</ele>
        <time>2024-01-16T16:59:28.636Z</time>
      </trkpt>
      <trkpt lat="50.60443" lon="1.92654">
        <ele>128</ele>
        <time>2024-01-16T16:59:30.156Z</time>
      </trkpt>
      <trkpt lat="50.60441" lon="1.92654">
        <ele>127.8</ele>
        <time>2024-01-16T16:59:30.335Z</time>
      </trkpt>
      <trkpt lat="50.60411" lon="1.92654">
        <ele>125.8</ele>
        <time>2024-01-16T16:59:33.018Z</time>
      </trkpt>
      <trkpt lat="50.60397" lon="1.92651">
        <ele>124.9</ele>
        <time>2024-01-16T16:59:34.304Z</time>
      </trkpt>
      <trkpt lat="50.60387" lon="1.92648">
        <ele>124.3</ele>
        <time>2024-01-16T16:59:35.259Z</time>
      </trkpt>
      <trkpt lat="50.60381" lon="1.92644">
        <ele>124.2</ele>
        <time>2024-01-16T16:59:36.104Z</time>
      </trkpt>
      <trkpt lat="50.60375" lon="1.92641">
        <ele>124.1</ele>
        <time>2024-01-16T16:59:36.917Z</time>
      </trkpt>
      <trkpt lat="50.60366" lon="1.9264">
        <ele>124</ele>
        <time>2024-01-16T16:59:38.131Z</time>
      </trkpt>
      <trkpt lat="50.6035" lon="1.92636">
        <ele>124.5</ele>
        <time>2024-01-16T16:59:41.469Z</time>
      </trkpt>
      <trkpt lat="50.60346" lon="1.92657">
        <ele>124.8</ele>
        <time>2024-01-16T16:59:44.053Z</time>
        <extensions>
          <visugpx:TrkExtension xmlns:visugpx="https://www.visugpx.com/editgpx/">
            <visugpx:node>26</visugpx:node>
            </visugpx:TrkExtension>
        </extensions>
      </trkpt>
      <trkpt lat="50.6035" lon="1.92636">
        <ele>124.5</ele>
        <time>2024-01-16T16:59:45.766Z</time>
      </trkpt>
      <trkpt lat="50.60351" lon="1.92618">
        <ele>125.1</ele>
        <time>2024-01-16T16:59:48.836Z</time>
      </trkpt>
      <trkpt lat="50.60352" lon="1.92591">
        <ele>125.3</ele>
        <time>2024-01-16T16:59:51.706Z</time>
      </trkpt>
      <trkpt lat="50.60352" lon="1.92559">
        <ele>125.3</ele>
        <time>2024-01-16T16:59:54.732Z</time>
      </trkpt>
      <trkpt lat="50.60349" lon="1.92535">
        <ele>126.2</ele>
        <time>2024-01-16T16:59:59.207Z</time>
      </trkpt>
      <trkpt lat="50.60342" lon="1.92507">
        <ele>126.7</ele>
        <time>2024-01-16T17:00:02.938Z</time>
      </trkpt>
      <trkpt lat="50.60329" lon="1.92472">
        <ele>128.2</ele>
        <time>2024-01-16T17:00:10.387Z</time>
      </trkpt>
      <trkpt lat="50.60314" lon="1.92437">
        <ele>129.1</ele>
        <time>2024-01-16T17:00:16.086Z</time>
      </trkpt>
      <trkpt lat="50.60304" lon="1.92415">
        <ele>129.2</ele>
        <time>2024-01-16T17:00:18.794Z</time>
      </trkpt>
      <trkpt lat="50.603" lon="1.92408">
        <ele>129.7</ele>
        <time>2024-01-16T17:00:21.231Z</time>
      </trkpt>
      <trkpt lat="50.60294" lon="1.92391">
        <ele>130.8</ele>
        <time>2024-01-16T17:00:26.644Z</time>
      </trkpt>
      <trkpt lat="50.60282" lon="1.92361">
        <ele>132</ele>
        <time>2024-01-16T17:00:32.749Z</time>
      </trkpt>
      <trkpt lat="50.60265" lon="1.92322">
        <ele>133.6</ele>
        <time>2024-01-16T17:00:40.890Z</time>
      </trkpt>
      <trkpt lat="50.60254" lon="1.92297">
        <ele>134.8</ele>
        <time>2024-01-16T17:00:46.772Z</time>
      </trkpt>
      <trkpt lat="50.60243" lon="1.92275">
        <ele>135.7</ele>
        <time>2024-01-16T17:00:51.430Z</time>
      </trkpt>
      <trkpt lat="50.60233" lon="1.92258">
        <ele>136.8</ele>
        <time>2024-01-16T17:00:56.746Z</time>
      </trkpt>
      <trkpt lat="50.60221" lon="1.92239">
        <ele>137</ele>
        <time>2024-01-16T17:00:59.593Z</time>
      </trkpt>
      <trkpt lat="50.60207" lon="1.92218">
        <ele>137.7</ele>
        <time>2024-01-16T17:01:03.833Z</time>
      </trkpt>
      <trkpt lat="50.60183" lon="1.92176">
        <ele>137.7</ele>
        <time>2024-01-16T17:01:09.178Z</time>
      </trkpt>
      <trkpt lat="50.60175" lon="1.92166">
        <ele>137.3</ele>
        <time>2024-01-16T17:01:10.274Z</time>
      </trkpt>
      <trkpt lat="50.60176" lon="1.92158">
        <ele>137.4</ele>
        <time>2024-01-16T17:01:11.212Z</time>
      </trkpt>
      <trkpt lat="50.60172" lon="1.92151">
        <ele>137.3</ele>
        <time>2024-01-16T17:01:11.978Z</time>
        <extensions>
          <visugpx:TrkExtension xmlns:visugpx="https://www.visugpx.com/editgpx/">
            <visugpx:node>25</visugpx:node>
            </visugpx:TrkExtension>
        </extensions>
      </trkpt>
      <trkpt lat="50.60162" lon="1.92128">
        <ele>137</ele>
        <time>2024-01-16T17:01:14.242Z</time>
      </trkpt>
      <trkpt lat="50.60151" lon="1.92107">
        <ele>137</ele>
        <time>2024-01-16T17:01:16.817Z</time>
      </trkpt>
      <trkpt lat="50.6014" lon="1.92086">
        <ele>137</ele>
        <time>2024-01-16T17:01:19.392Z</time>
      </trkpt>
      <trkpt lat="50.60129" lon="1.9206">
        <ele>136.6</ele>
        <time>2024-01-16T17:01:21.861Z</time>
      </trkpt>
      <trkpt lat="50.60122" lon="1.92042">
        <ele>136.4</ele>
        <time>2024-01-16T17:01:23.606Z</time>
      </trkpt>
      <trkpt lat="50.60116" lon="1.92022">
        <ele>136.2</ele>
        <time>2024-01-16T17:01:25.444Z</time>
      </trkpt>
      <trkpt lat="50.6011" lon="1.91999">
        <ele>136</ele>
        <time>2024-01-16T17:01:27.539Z</time>
      </trkpt>
      <trkpt lat="50.60103" lon="1.91966">
        <ele>135.7</ele>
        <time>2024-01-16T17:01:30.447Z</time>
      </trkpt>
      <trkpt lat="50.60099" lon="1.91941">
        <ele>135.6</ele>
        <time>2024-01-16T17:01:32.751Z</time>
      </trkpt>
      <trkpt lat="50.60096" lon="1.9192">
        <ele>135.5</ele>
        <time>2024-01-16T17:01:34.653Z</time>
      </trkpt>
      <trkpt lat="50.60094" lon="1.919">
        <ele>135.4</ele>
        <time>2024-01-16T17:01:36.434Z</time>
      </trkpt>
      <trkpt lat="50.60092" lon="1.91878">
        <ele>135.2</ele>
        <time>2024-01-16T17:01:38.282Z</time>
      </trkpt>
      <trkpt lat="50.60089" lon="1.91799">
        <ele>135</ele>
        <time>2024-01-16T17:01:45.493Z</time>
      </trkpt>
      <trkpt lat="50.60086" lon="1.91708">
        <ele>134.6</ele>
        <time>2024-01-16T17:01:53.575Z</time>
      </trkpt>
      <trkpt lat="50.60084" lon="1.9165">
        <ele>134.4</ele>
        <time>2024-01-16T17:01:58.797Z</time>
      </trkpt>
      <trkpt lat="50.60084" lon="1.91646">
        <ele>134.3</ele>
        <time>2024-01-16T17:01:59.069Z</time>
      </trkpt>
      <trkpt lat="50.60082" lon="1.91594">
        <ele>134</ele>
        <time>2024-01-16T17:02:03.600Z</time>
      </trkpt>
      <trkpt lat="50.60079" lon="1.9149">
        <ele>134.8</ele>
        <time>2024-01-16T17:02:14.699Z</time>
      </trkpt>
      <trkpt lat="50.60076" lon="1.91421">
        <ele>135</ele>
        <time>2024-01-16T17:02:21.534Z</time>
      </trkpt>
      <trkpt lat="50.60076" lon="1.91412">
        <ele>135</ele>
        <time>2024-01-16T17:02:22.385Z</time>
      </trkpt>
      <trkpt lat="50.60074" lon="1.91402">
        <ele>135</ele>
        <time>2024-01-16T17:02:23.377Z</time>
      </trkpt>
      <trkpt lat="50.60072" lon="1.9139">
        <ele>135</ele>
        <time>2024-01-16T17:02:24.550Z</time>
      </trkpt>
      <trkpt lat="50.60073" lon="1.91367">
        <ele>135.8</ele>
        <time>2024-01-16T17:02:28.589Z</time>
      </trkpt>
      <trkpt lat="50.6007" lon="1.91292">
        <ele>137</ele>
        <time>2024-01-16T17:02:37.802Z</time>
      </trkpt>
      <trkpt lat="50.60069" lon="1.91281">
        <ele>137.4</ele>
        <time>2024-01-16T17:02:39.802Z</time>
      </trkpt>
      <trkpt lat="50.60067" lon="1.91226">
        <ele>139.5</ele>
        <time>2024-01-16T17:02:50.161Z</time>
      </trkpt>
      <trkpt lat="50.60066" lon="1.91192">
        <ele>140.7</ele>
        <time>2024-01-16T17:02:56.193Z</time>
      </trkpt>
      <trkpt lat="50.60065" lon="1.91181">
        <ele>141.1</ele>
        <time>2024-01-16T17:02:58.193Z</time>
      </trkpt>
      <trkpt lat="50.60065" lon="1.9115">
        <ele>142.7</ele>
        <time>2024-01-16T17:03:05.965Z</time>
      </trkpt>
      <trkpt lat="50.60064" lon="1.91134">
        <ele>143.6</ele>
        <time>2024-01-16T17:03:10.386Z</time>
      </trkpt>
      <trkpt lat="50.60061" lon="1.91106">
        <ele>144.8</ele>
        <time>2024-01-16T17:03:16.213Z</time>
      </trkpt>
      <trkpt lat="50.60058" lon="1.91079">
        <ele>145.8</ele>
        <time>2024-01-16T17:03:21.195Z</time>
      </trkpt>
      <trkpt lat="50.60054" lon="1.91053">
        <ele>146.2</ele>
        <time>2024-01-16T17:03:24.417Z</time>
      </trkpt>
      <trkpt lat="50.60049" lon="1.91012">
        <ele>147.5</ele>
        <time>2024-01-16T17:03:31.223Z</time>
      </trkpt>
      <trkpt lat="50.60046" lon="1.90989">
        <ele>147.7</ele>
        <time>2024-01-16T17:03:33.761Z</time>
      </trkpt>
      <trkpt lat="50.60043" lon="1.90971">
        <ele>147.9</ele>
        <time>2024-01-16T17:03:35.847Z</time>
      </trkpt>
      <trkpt lat="50.60034" lon="1.90918">
        <ele>149.5</ele>
        <time>2024-01-16T17:03:44.448Z</time>
      </trkpt>
      <trkpt lat="50.60024" lon="1.90858">
        <ele>150.1</ele>
        <time>2024-01-16T17:03:51.280Z</time>
      </trkpt>
      <trkpt lat="50.60016" lon="1.90816">
        <ele>151</ele>
        <time>2024-01-16T17:03:57.113Z</time>
      </trkpt>
      <trkpt lat="50.60012" lon="1.90796">
        <ele>151.7</ele>
        <time>2024-01-16T17:04:00.690Z</time>
      </trkpt>
      <trkpt lat="50.6001" lon="1.90784">
        <ele>151.9</ele>
        <time>2024-01-16T17:04:02.215Z</time>
      </trkpt>
      <trkpt lat="50.60005" lon="1.90759">
        <ele>152.6</ele>
        <time>2024-01-16T17:04:06.132Z</time>
      </trkpt>
      <trkpt lat="50.60001" lon="1.90739">
        <ele>153</ele>
        <time>2024-01-16T17:04:08.849Z</time>
      </trkpt>
      <trkpt lat="50.59998" lon="1.9072">
        <ele>153</ele>
        <time>2024-01-16T17:04:10.701Z</time>
      </trkpt>
      <trkpt lat="50.59996" lon="1.90707">
        <ele>153.1</ele>
        <time>2024-01-16T17:04:12.122Z</time>
      </trkpt>
      <trkpt lat="50.59995" lon="1.90695">
        <ele>153.2</ele>
        <time>2024-01-16T17:04:13.424Z</time>
      </trkpt>
      <trkpt lat="50.59995" lon="1.90675">
        <ele>153.2</ele>
        <time>2024-01-16T17:04:15.316Z</time>
      </trkpt>
      <trkpt lat="50.59997" lon="1.90628">
        <ele>153</ele>
        <time>2024-01-16T17:04:19.502Z</time>
      </trkpt>
      <trkpt lat="50.59999" lon="1.90623">
        <ele>153</ele>
        <time>2024-01-16T17:04:20.061Z</time>
      </trkpt>
      <trkpt lat="50.60001" lon="1.90612">
        <ele>153</ele>
        <time>2024-01-16T17:04:21.144Z</time>
      </trkpt>
      <trkpt lat="50.60002" lon="1.90578">
        <ele>152.8</ele>
        <time>2024-01-16T17:04:24.099Z</time>
      </trkpt>
      <trkpt lat="50.60002" lon="1.90546">
        <ele>152.1</ele>
        <time>2024-01-16T17:04:26.357Z</time>
      </trkpt>
      <trkpt lat="50.60001" lon="1.90503">
        <ele>152</ele>
        <time>2024-01-16T17:04:30.289Z</time>
      </trkpt>
      <trkpt lat="50.59999" lon="1.90455">
        <ele>151</ele>
        <time>2024-01-16T17:04:33.728Z</time>
      </trkpt>
      <trkpt lat="50.59997" lon="1.90434">
        <ele>150.9</ele>
        <time>2024-01-16T17:04:35.603Z</time>
      </trkpt>
      <trkpt lat="50.59997" lon="1.9043">
        <ele>150.9</ele>
        <time>2024-01-16T17:04:35.981Z</time>
      </trkpt>
      <trkpt lat="50.59992" lon="1.90362">
        <ele>150</ele>
        <time>2024-01-16T17:04:41.367Z</time>
      </trkpt>
      <trkpt lat="50.59987" lon="1.90308">
        <ele>149.1</ele>
        <time>2024-01-16T17:04:45.480Z</time>
      </trkpt>
      <trkpt lat="50.59983" lon="1.90266">
        <ele>147.7</ele>
        <time>2024-01-16T17:04:48.127Z</time>
      </trkpt>
      <trkpt lat="50.5998" lon="1.90232">
        <ele>147.1</ele>
        <time>2024-01-16T17:04:50.683Z</time>
      </trkpt>
      <trkpt lat="50.59977" lon="1.90203">
        <ele>146.3</ele>
        <time>2024-01-16T17:04:52.632Z</time>
      </trkpt>
      <trkpt lat="50.59976" lon="1.90189">
        <ele>145.8</ele>
        <time>2024-01-16T17:04:53.487Z</time>
      </trkpt>
      <trkpt lat="50.59976" lon="1.90178">
        <ele>145.3</ele>
        <time>2024-01-16T17:04:54.111Z</time>
      </trkpt>
      <trkpt lat="50.59975" lon="1.90162">
        <ele>144.6</ele>
        <time>2024-01-16T17:04:55.024Z</time>
      </trkpt>
      <trkpt lat="50.59974" lon="1.9015">
        <ele>143.8</ele>
        <time>2024-01-16T17:04:55.711Z</time>
      </trkpt>
      <trkpt lat="50.59972" lon="1.90125">
        <ele>142.5</ele>
        <time>2024-01-16T17:04:57.141Z</time>
      </trkpt>
      <trkpt lat="50.59972" lon="1.90111">
        <ele>142</ele>
        <time>2024-01-16T17:04:57.989Z</time>
      </trkpt>
      <trkpt lat="50.59972" lon="1.90099">
        <ele>141.6</ele>
        <time>2024-01-16T17:04:58.734Z</time>
      </trkpt>
      <trkpt lat="50.59972" lon="1.90087">
        <ele>141.1</ele>
        <time>2024-01-16T17:04:59.419Z</time>
      </trkpt>
      <trkpt lat="50.59973" lon="1.90076">
        <ele>140.4</ele>
        <time>2024-01-16T17:05:00.050Z</time>
      </trkpt>
      <trkpt lat="50.59974" lon="1.90066">
        <ele>139.7</ele>
        <time>2024-01-16T17:05:00.624Z</time>
      </trkpt>
      <trkpt lat="50.59974" lon="1.90058">
        <ele>139.1</ele>
        <time>2024-01-16T17:05:01.078Z</time>
      </trkpt>
      <trkpt lat="50.59974" lon="1.90048">
        <ele>138.4</ele>
        <time>2024-01-16T17:05:01.646Z</time>
      </trkpt>
      <trkpt lat="50.59974" lon="1.90035">
        <ele>137.5</ele>
        <time>2024-01-16T17:05:02.383Z</time>
      </trkpt>
      <trkpt lat="50.59973" lon="1.90022">
        <ele>136.8</ele>
        <time>2024-01-16T17:05:03.126Z</time>
      </trkpt>
      <trkpt lat="50.5997" lon="1.90011">
        <ele>136.2</ele>
        <time>2024-01-16T17:05:03.806Z</time>
      </trkpt>
      <trkpt lat="50.59966" lon="1.89999">
        <ele>135.5</ele>
        <time>2024-01-16T17:05:04.575Z</time>
      </trkpt>
      <trkpt lat="50.59961" lon="1.89982">
        <ele>134.8</ele>
        <time>2024-01-16T17:05:05.691Z</time>
      </trkpt>
      <trkpt lat="50.59953" lon="1.89964">
        <ele>134.5</ele>
        <time>2024-01-16T17:05:07.409Z</time>
      </trkpt>
      <trkpt lat="50.59953" lon="1.89962">
        <ele>134.6</ele>
        <time>2024-01-16T17:05:07.893Z</time>
        <extensions>
          <visugpx:TrkExtension xmlns:visugpx="https://www.visugpx.com/editgpx/">
            <visugpx:node>24</visugpx:node>
            </visugpx:TrkExtension>
        </extensions>
      </trkpt>
      <trkpt lat="50.59948" lon="1.89953">
        <ele>134.7</ele>
        <time>2024-01-16T17:05:09.182Z</time>
      </trkpt>
      <trkpt lat="50.59942" lon="1.89944">
        <ele>134.9</ele>
        <time>2024-01-16T17:05:10.765Z</time>
      </trkpt>
      <trkpt lat="50.59946" lon="1.89945">
        <ele>135</ele>
        <time>2024-01-16T17:05:11.543Z</time>
      </trkpt>
      <trkpt lat="50.59956" lon="1.8995">
        <ele>134.9</ele>
        <time>2024-01-16T17:05:12.975Z</time>
      </trkpt>
      <trkpt lat="50.59978" lon="1.89964">
        <ele>135.2</ele>
        <time>2024-01-16T17:05:16.982Z</time>
      </trkpt>
      <trkpt lat="50.60005" lon="1.89982">
        <ele>136.2</ele>
        <time>2024-01-16T17:05:23.255Z</time>
      </trkpt>
      <trkpt lat="50.60028" lon="1.89997">
        <ele>137</ele>
        <time>2024-01-16T17:05:28.460Z</time>
      </trkpt>
      <trkpt lat="50.6005" lon="1.90013">
        <ele>137.8</ele>
        <time>2024-01-16T17:05:33.579Z</time>
      </trkpt>
      <trkpt lat="50.60068" lon="1.90026">
        <ele>138.4</ele>
        <time>2024-01-16T17:05:37.633Z</time>
      </trkpt>
      <trkpt lat="50.60081" lon="1.90035">
        <ele>138.7</ele>
        <time>2024-01-16T17:05:40.257Z</time>
      </trkpt>
      <trkpt lat="50.60093" lon="1.90042">
        <ele>138.8</ele>
        <time>2024-01-16T17:05:42.314Z</time>
      </trkpt>
      <trkpt lat="50.60103" lon="1.90046">
        <ele>139.1</ele>
        <time>2024-01-16T17:05:44.397Z</time>
      </trkpt>
      <trkpt lat="50.60115" lon="1.90051">
        <ele>139.2</ele>
        <time>2024-01-16T17:05:46.398Z</time>
      </trkpt>
      <trkpt lat="50.60128" lon="1.90056">
        <ele>139</ele>
        <time>2024-01-16T17:05:48.140Z</time>
      </trkpt>
      <trkpt lat="50.60138" lon="1.90059">
        <ele>139</ele>
        <time>2024-01-16T17:05:49.656Z</time>
      </trkpt>
      <trkpt lat="50.60146" lon="1.9006">
        <ele>139.3</ele>
        <time>2024-01-16T17:05:51.442Z</time>
      </trkpt>
      <trkpt lat="50.60154" lon="1.9006">
        <ele>139.5</ele>
        <time>2024-01-16T17:05:52.984Z</time>
      </trkpt>
      <trkpt lat="50.60164" lon="1.90059">
        <ele>139.9</ele>
        <time>2024-01-16T17:05:55.282Z</time>
      </trkpt>
      <trkpt lat="50.60188" lon="1.90054">
        <ele>140.1</ele>
        <time>2024-01-16T17:05:59.192Z</time>
      </trkpt>
      <trkpt lat="50.6021" lon="1.90049">
        <ele>140.2</ele>
        <time>2024-01-16T17:06:02.651Z</time>
      </trkpt>
      <trkpt lat="50.60229" lon="1.90046">
        <ele>140.3</ele>
        <time>2024-01-16T17:06:05.645Z</time>
      </trkpt>
      <trkpt lat="50.60251" lon="1.9004">
        <ele>140.6</ele>
        <time>2024-01-16T17:06:09.447Z</time>
      </trkpt>
      <trkpt lat="50.60268" lon="1.90035">
        <ele>140.9</ele>
        <time>2024-01-16T17:06:12.515Z</time>
      </trkpt>
      <trkpt lat="50.6028" lon="1.90031">
        <ele>141</ele>
        <time>2024-01-16T17:06:14.494Z</time>
      </trkpt>
      <trkpt lat="50.60293" lon="1.90026">
        <ele>141.1</ele>
        <time>2024-01-16T17:06:16.638Z</time>
      </trkpt>
      <trkpt lat="50.60304" lon="1.90021">
        <ele>141.2</ele>
        <time>2024-01-16T17:06:18.496Z</time>
      </trkpt>
      <trkpt lat="50.6031" lon="1.90018">
        <ele>141.4</ele>
        <time>2024-01-16T17:06:19.807Z</time>
      </trkpt>
      <trkpt lat="50.60318" lon="1.90014">
        <ele>141.5</ele>
        <time>2024-01-16T17:06:21.214Z</time>
      </trkpt>
      <trkpt lat="50.6032" lon="1.90013">
        <ele>141.5</ele>
        <time>2024-01-16T17:06:21.527Z</time>
      </trkpt>
      <trkpt lat="50.60324" lon="1.90011">
        <ele>141.6</ele>
        <time>2024-01-16T17:06:22.326Z</time>
      </trkpt>
      <trkpt lat="50.60337" lon="1.90006">
        <ele>141.8</ele>
        <time>2024-01-16T17:06:24.640Z</time>
      </trkpt>
      <trkpt lat="50.6035" lon="1.90002">
        <ele>142</ele>
        <time>2024-01-16T17:06:26.935Z</time>
      </trkpt>
      <trkpt lat="50.60363" lon="1.89996">
        <ele>142.2</ele>
        <time>2024-01-16T17:06:29.274Z</time>
      </trkpt>
      <trkpt lat="50.60372" lon="1.89992">
        <ele>142.6</ele>
        <time>2024-01-16T17:06:31.495Z</time>
      </trkpt>
      <trkpt lat="50.6038" lon="1.89987">
        <ele>142.8</ele>
        <time>2024-01-16T17:06:33.122Z</time>
      </trkpt>
      <trkpt lat="50.60393" lon="1.89979">
        <ele>143</ele>
        <time>2024-01-16T17:06:35.521Z</time>
      </trkpt>
      <trkpt lat="50.60407" lon="1.8997">
        <ele>143</ele>
        <time>2024-01-16T17:06:37.774Z</time>
      </trkpt>
      <trkpt lat="50.60421" lon="1.8996">
        <ele>143</ele>
        <time>2024-01-16T17:06:40.064Z</time>
      </trkpt>
      <trkpt lat="50.60433" lon="1.89951">
        <ele>143</ele>
        <time>2024-01-16T17:06:42.044Z</time>
      </trkpt>
      <trkpt lat="50.60447" lon="1.8994">
        <ele>143.2</ele>
        <time>2024-01-16T17:06:44.691Z</time>
      </trkpt>
      <trkpt lat="50.60462" lon="1.89924">
        <ele>143.7</ele>
        <time>2024-01-16T17:06:48.287Z</time>
      </trkpt>
      <trkpt lat="50.60494" lon="1.89887">
        <ele>145.1</ele>
        <time>2024-01-16T17:06:56.897Z</time>
      </trkpt>
      <trkpt lat="50.60504" lon="1.89874">
        <ele>145.4</ele>
        <time>2024-01-16T17:06:59.345Z</time>
      </trkpt>
      <trkpt lat="50.60514" lon="1.89862">
        <ele>145.5</ele>
        <time>2024-01-16T17:07:01.370Z</time>
      </trkpt>
      <trkpt lat="50.60533" lon="1.89834">
        <ele>145.8</ele>
        <time>2024-01-16T17:07:05.713Z</time>
      </trkpt>
      <trkpt lat="50.60555" lon="1.89798">
        <ele>146</ele>
        <time>2024-01-16T17:07:10.738Z</time>
      </trkpt>
      <trkpt lat="50.60591" lon="1.89744">
        <ele>146.2</ele>
        <time>2024-01-16T17:07:18.437Z</time>
      </trkpt>
      <trkpt lat="50.60633" lon="1.89672">
        <ele>147</ele>
        <time>2024-01-16T17:07:28.946Z</time>
      </trkpt>
      <trkpt lat="50.60672" lon="1.89608">
        <ele>147.9</ele>
        <time>2024-01-16T17:07:38.793Z</time>
      </trkpt>
      <trkpt lat="50.60687" lon="1.89586">
        <ele>148.2</ele>
        <time>2024-01-16T17:07:42.326Z</time>
      </trkpt>
      <trkpt lat="50.60702" lon="1.89561">
        <ele>148</ele>
        <time>2024-01-16T17:07:45.316Z</time>
      </trkpt>
      <trkpt lat="50.60716" lon="1.8954">
        <ele>148.1</ele>
        <time>2024-01-16T17:07:48.344Z</time>
      </trkpt>
      <trkpt lat="50.60729" lon="1.89522">
        <ele>148.2</ele>
        <time>2024-01-16T17:07:51.071Z</time>
      </trkpt>
      <trkpt lat="50.60753" lon="1.8949">
        <ele>148.4</ele>
        <time>2024-01-16T17:07:56.054Z</time>
      </trkpt>
      <trkpt lat="50.60785" lon="1.89449">
        <ele>149</ele>
        <time>2024-01-16T17:08:03.159Z</time>
      </trkpt>
      <trkpt lat="50.60858" lon="1.89355">
        <ele>150</ele>
        <time>2024-01-16T17:08:18.753Z</time>
      </trkpt>
      <trkpt lat="50.60871" lon="1.89339">
        <ele>150.4</ele>
        <time>2024-01-16T17:08:21.907Z</time>
      </trkpt>
      <trkpt lat="50.60889" lon="1.89316">
        <ele>151</ele>
        <time>2024-01-16T17:08:26.420Z</time>
      </trkpt>
      <trkpt lat="50.60922" lon="1.89274">
        <ele>151.1</ele>
        <time>2024-01-16T17:08:32.885Z</time>
      </trkpt>
      <trkpt lat="50.60934" lon="1.89258">
        <ele>151.3</ele>
        <time>2024-01-16T17:08:35.542Z</time>
      </trkpt>
      <trkpt lat="50.60942" lon="1.89248">
        <ele>151.2</ele>
        <time>2024-01-16T17:08:36.932Z</time>
      </trkpt>
      <trkpt lat="50.60955" lon="1.89232">
        <ele>152.2</ele>
        <time>2024-01-16T17:08:41.856Z</time>
      </trkpt>
      <trkpt lat="50.60964" lon="1.8922">
        <ele>152.3</ele>
        <time>2024-01-16T17:08:43.765Z</time>
      </trkpt>
      <trkpt lat="50.60973" lon="1.89208">
        <ele>152</ele>
        <time>2024-01-16T17:08:45.171Z</time>
      </trkpt>
      <trkpt lat="50.60974" lon="1.89207">
        <ele>152</ele>
        <time>2024-01-16T17:08:45.347Z</time>
        <extensions>
          <visugpx:TrkExtension xmlns:visugpx="https://www.visugpx.com/editgpx/">
            <visugpx:node>23</visugpx:node>
            </visugpx:TrkExtension>
        </extensions>
      </trkpt>
      <trkpt lat="50.60975" lon="1.89206">
        <ele>152</ele>
        <time>2024-01-16T17:08:45.524Z</time>
      </trkpt>
      <trkpt lat="50.60977" lon="1.89202">
        <ele>152</ele>
        <time>2024-01-16T17:08:46.005Z</time>
      </trkpt>
      <trkpt lat="50.60975" lon="1.89197">
        <ele>152</ele>
        <time>2024-01-16T17:08:46.564Z</time>
      </trkpt>
      <trkpt lat="50.60973" lon="1.89192">
        <ele>152.1</ele>
        <time>2024-01-16T17:08:47.301Z</time>
      </trkpt>
      <trkpt lat="50.60971" lon="1.89186">
        <ele>152.3</ele>
        <time>2024-01-16T17:08:48.370Z</time>
      </trkpt>
      <trkpt lat="50.60971" lon="1.89175">
        <ele>152.7</ele>
        <time>2024-01-16T17:08:50.365Z</time>
      </trkpt>
      <trkpt lat="50.6097" lon="1.89127">
        <ele>153.9</ele>
        <time>2024-01-16T17:08:57.308Z</time>
      </trkpt>
      <trkpt lat="50.60968" lon="1.89032">
        <ele>156</ele>
        <time>2024-01-16T17:09:10.322Z</time>
      </trkpt>
      <trkpt lat="50.60968" lon="1.89008">
        <ele>156.8</ele>
        <time>2024-01-16T17:09:14.411Z</time>
      </trkpt>
      <trkpt lat="50.60967" lon="1.88977">
        <ele>157.2</ele>
        <time>2024-01-16T17:09:18.019Z</time>
      </trkpt>
      <trkpt lat="50.60966" lon="1.88934">
        <ele>158.4</ele>
        <time>2024-01-16T17:09:24.597Z</time>
      </trkpt>
      <trkpt lat="50.60967" lon="1.88905">
        <ele>159.4</ele>
        <time>2024-01-16T17:09:29.657Z</time>
      </trkpt>
      <trkpt lat="50.60968" lon="1.88886">
        <ele>160.2</ele>
        <time>2024-01-16T17:09:33.545Z</time>
      </trkpt>
      <trkpt lat="50.6097" lon="1.88869">
        <ele>161.4</ele>
        <time>2024-01-16T17:09:39.662Z</time>
      </trkpt>
      <trkpt lat="50.60974" lon="1.8885">
        <ele>162</ele>
        <time>2024-01-16T17:09:42.850Z</time>
      </trkpt>
      <trkpt lat="50.60978" lon="1.88831">
        <ele>162.2</ele>
        <time>2024-01-16T17:09:45.066Z</time>
      </trkpt>
      <trkpt lat="50.60985" lon="1.88799">
        <ele>162.1</ele>
        <time>2024-01-16T17:09:48.130Z</time>
      </trkpt>
      <trkpt lat="50.60986" lon="1.88796">
        <ele>162.2</ele>
        <time>2024-01-16T17:09:48.665Z</time>
      </trkpt>
      <trkpt lat="50.6099" lon="1.88776">
        <ele>162.6</ele>
        <time>2024-01-16T17:09:51.382Z</time>
      </trkpt>
      <trkpt lat="50.60993" lon="1.88761">
        <ele>162.7</ele>
        <time>2024-01-16T17:09:53.023Z</time>
      </trkpt>
      <trkpt lat="50.60995" lon="1.88748">
        <ele>162.8</ele>
        <time>2024-01-16T17:09:54.444Z</time>
      </trkpt>
      <trkpt lat="50.60995" lon="1.88743">
        <ele>162.8</ele>
        <time>2024-01-16T17:09:54.917Z</time>
      </trkpt>
      <trkpt lat="50.60995" lon="1.88736">
        <ele>162.8</ele>
        <time>2024-01-16T17:09:55.579Z</time>
      </trkpt>
      <trkpt lat="50.60996" lon="1.8872">
        <ele>162.8</ele>
        <time>2024-01-16T17:09:57.099Z</time>
      </trkpt>
      <trkpt lat="50.60996" lon="1.88705">
        <ele>162.3</ele>
        <time>2024-01-16T17:09:58.030Z</time>
      </trkpt>
      <trkpt lat="50.60996" lon="1.88664">
        <ele>161.1</ele>
        <time>2024-01-16T17:10:00.688Z</time>
        <extensions>
          <visugpx:TrkExtension xmlns:visugpx="https://www.visugpx.com/editgpx/">
            <visugpx:node>22</visugpx:node>
            </visugpx:TrkExtension>
        </extensions>
      </trkpt>
      <trkpt lat="50.60996" lon="1.88653">
        <ele>161.1</ele>
        <time>2024-01-16T17:10:01.728Z</time>
      </trkpt>
      <trkpt lat="50.60996" lon="1.88631">
        <ele>160.7</ele>
        <time>2024-01-16T17:10:03.351Z</time>
      </trkpt>
      <trkpt lat="50.60997" lon="1.88604">
        <ele>159.5</ele>
        <time>2024-01-16T17:10:04.886Z</time>
      </trkpt>
      <trkpt lat="50.60997" lon="1.88591">
        <ele>158.6</ele>
        <time>2024-01-16T17:10:05.623Z</time>
      </trkpt>
      <trkpt lat="50.60998" lon="1.88585">
        <ele>158.2</ele>
        <time>2024-01-16T17:10:05.975Z</time>
      </trkpt>
      <trkpt lat="50.61" lon="1.88564">
        <ele>157.3</ele>
        <time>2024-01-16T17:10:07.180Z</time>
      </trkpt>
      <trkpt lat="50.61002" lon="1.88546">
        <ele>156.3</ele>
        <time>2024-01-16T17:10:08.217Z</time>
      </trkpt>
      <trkpt lat="50.61005" lon="1.88526">
        <ele>155.1</ele>
        <time>2024-01-16T17:10:09.383Z</time>
      </trkpt>
      <trkpt lat="50.61007" lon="1.88518">
        <ele>154.8</ele>
        <time>2024-01-16T17:10:09.908Z</time>
      </trkpt>
      <trkpt lat="50.6101" lon="1.88505">
        <ele>154.2</ele>
        <time>2024-01-16T17:10:10.693Z</time>
      </trkpt>
      <trkpt lat="50.61015" lon="1.88488">
        <ele>153.3</ele>
        <time>2024-01-16T17:10:11.756Z</time>
      </trkpt>
      <trkpt lat="50.61021" lon="1.8847">
        <ele>152.1</ele>
        <time>2024-01-16T17:10:12.909Z</time>
      </trkpt>
      <trkpt lat="50.61027" lon="1.88455">
        <ele>151.4</ele>
        <time>2024-01-16T17:10:13.944Z</time>
      </trkpt>
      <trkpt lat="50.61028" lon="1.88452">
        <ele>151.3</ele>
        <time>2024-01-16T17:10:14.163Z</time>
      </trkpt>
      <trkpt lat="50.61034" lon="1.88437">
        <ele>151.2</ele>
        <time>2024-01-16T17:10:15.707Z</time>
      </trkpt>
      <trkpt lat="50.61038" lon="1.88424">
        <ele>151.4</ele>
        <time>2024-01-16T17:10:17.414Z</time>
      </trkpt>
      <trkpt lat="50.6104" lon="1.88417">
        <ele>151.4</ele>
        <time>2024-01-16T17:10:18.140Z</time>
      </trkpt>
      <trkpt lat="50.61041" lon="1.88409">
        <ele>151.5</ele>
        <time>2024-01-16T17:10:19.077Z</time>
      </trkpt>
      <trkpt lat="50.61042" lon="1.884">
        <ele>151.5</ele>
        <time>2024-01-16T17:10:19.941Z</time>
      </trkpt>
      <trkpt lat="50.61042" lon="1.88391">
        <ele>151.5</ele>
        <time>2024-01-16T17:10:20.792Z</time>
      </trkpt>
      <trkpt lat="50.61041" lon="1.88388">
        <ele>151.5</ele>
        <time>2024-01-16T17:10:21.113Z</time>
      </trkpt>
      <trkpt lat="50.61041" lon="1.88381">
        <ele>151.6</ele>
        <time>2024-01-16T17:10:21.946Z</time>
      </trkpt>
      <trkpt lat="50.61039" lon="1.88369">
        <ele>151.7</ele>
        <time>2024-01-16T17:10:23.277Z</time>
      </trkpt>
      <trkpt lat="50.61034" lon="1.8837">
        <ele>151.4</ele>
        <time>2024-01-16T17:10:23.748Z</time>
      </trkpt>
      <trkpt lat="50.61029" lon="1.88369">
        <ele>151.1</ele>
        <time>2024-01-16T17:10:24.219Z</time>
      </trkpt>
      <trkpt lat="50.61021" lon="1.88364">
        <ele>150.8</ele>
        <time>2024-01-16T17:10:25.173Z</time>
      </trkpt>
      <trkpt lat="50.61009" lon="1.88353">
        <ele>150.3</ele>
        <time>2024-01-16T17:10:26.698Z</time>
      </trkpt>
      <trkpt lat="50.61005" lon="1.88349">
        <ele>150.2</ele>
        <time>2024-01-16T17:10:27.284Z</time>
      </trkpt>
      <trkpt lat="50.60979" lon="1.88325">
        <ele>149.2</ele>
        <time>2024-01-16T17:10:30.666Z</time>
      </trkpt>
      <trkpt lat="50.60972" lon="1.88318">
        <ele>149</ele>
        <time>2024-01-16T17:10:31.665Z</time>
      </trkpt>
      <trkpt lat="50.60969" lon="1.88312">
        <ele>149</ele>
        <time>2024-01-16T17:10:32.388Z</time>
      </trkpt>
      <trkpt lat="50.60967" lon="1.88305">
        <ele>149</ele>
        <time>2024-01-16T17:10:33.114Z</time>
      </trkpt>
      <trkpt lat="50.60965" lon="1.883">
        <ele>149</ele>
        <time>2024-01-16T17:10:33.672Z</time>
      </trkpt>
      <trkpt lat="50.60965" lon="1.88296">
        <ele>149</ele>
        <time>2024-01-16T17:10:34.051Z</time>
      </trkpt>
      <trkpt lat="50.60964" lon="1.88288">
        <ele>149</ele>
        <time>2024-01-16T17:10:34.822Z</time>
        <extensions>
          <visugpx:TrkExtension xmlns:visugpx="https://www.visugpx.com/editgpx/">
            <visugpx:node>21</visugpx:node>
            </visugpx:TrkExtension>
        </extensions>
      </trkpt>
      <trkpt lat="50.60961" lon="1.88267">
        <ele>149.2</ele>
        <time>2024-01-16T17:10:37.177Z</time>
      </trkpt>
      <trkpt lat="50.60953" lon="1.88202">
        <ele>150.4</ele>
        <time>2024-01-16T17:10:45.610Z</time>
      </trkpt>
      <trkpt lat="50.6095" lon="1.8816">
        <ele>151</ele>
        <time>2024-01-16T17:10:50.633Z</time>
      </trkpt>
      <trkpt lat="50.60948" lon="1.88134">
        <ele>151.7</ele>
        <time>2024-01-16T17:10:54.548Z</time>
      </trkpt>
      <trkpt lat="50.60947" lon="1.88126">
        <ele>151.8</ele>
        <time>2024-01-16T17:10:55.486Z</time>
      </trkpt>
      <trkpt lat="50.60942" lon="1.88076">
        <ele>153.2</ele>
        <time>2024-01-16T17:11:03.190Z</time>
      </trkpt>
      <trkpt lat="50.6094" lon="1.88057">
        <ele>153.3</ele>
        <time>2024-01-16T17:11:05.162Z</time>
      </trkpt>
      <trkpt lat="50.60935" lon="1.88035">
        <ele>153.9</ele>
        <time>2024-01-16T17:11:08.585Z</time>
      </trkpt>
      <trkpt lat="50.60931" lon="1.8802">
        <ele>154.6</ele>
        <time>2024-01-16T17:11:11.979Z</time>
      </trkpt>
      <trkpt lat="50.60923" lon="1.88003">
        <ele>155.5</ele>
        <time>2024-01-16T17:11:16.346Z</time>
      </trkpt>
      <trkpt lat="50.60917" lon="1.87988">
        <ele>156</ele>
        <time>2024-01-16T17:11:19.073Z</time>
      </trkpt>
      <trkpt lat="50.60909" lon="1.87975">
        <ele>156.3</ele>
        <time>2024-01-16T17:11:21.317Z</time>
      </trkpt>
      <trkpt lat="50.60904" lon="1.87964">
        <ele>156.5</ele>
        <time>2024-01-16T17:11:22.941Z</time>
      </trkpt>
      <trkpt lat="50.60895" lon="1.87951">
        <ele>156.8</ele>
        <time>2024-01-16T17:11:25.284Z</time>
      </trkpt>
      <trkpt lat="50.60885" lon="1.8794">
        <ele>157.3</ele>
        <time>2024-01-16T17:11:28.118Z</time>
      </trkpt>
      <trkpt lat="50.60866" lon="1.87922">
        <ele>158</ele>
        <time>2024-01-16T17:11:32.723Z</time>
      </trkpt>
      <trkpt lat="50.60847" lon="1.87901">
        <ele>158.6</ele>
        <time>2024-01-16T17:11:37.241Z</time>
      </trkpt>
      <trkpt lat="50.6084" lon="1.87892">
        <ele>158.9</ele>
        <time>2024-01-16T17:11:39.154Z</time>
      </trkpt>
      <trkpt lat="50.60837" lon="1.87885">
        <ele>159</ele>
        <time>2024-01-16T17:11:40.118Z</time>
      </trkpt>
      <trkpt lat="50.60835" lon="1.87879">
        <ele>159</ele>
        <time>2024-01-16T17:11:40.759Z</time>
      </trkpt>
      <trkpt lat="50.60835" lon="1.87872">
        <ele>159</ele>
        <time>2024-01-16T17:11:41.421Z</time>
      </trkpt>
      <trkpt lat="50.60837" lon="1.8785">
        <ele>159.4</ele>
        <time>2024-01-16T17:11:44.245Z</time>
      </trkpt>
      <trkpt lat="50.60841" lon="1.87829">
        <ele>160</ele>
        <time>2024-01-16T17:11:47.563Z</time>
      </trkpt>
      <trkpt lat="50.60844" lon="1.87812">
        <ele>160</ele>
        <time>2024-01-16T17:11:49.232Z</time>
      </trkpt>
      <trkpt lat="50.60845" lon="1.87798">
        <ele>160.2</ele>
        <time>2024-01-16T17:11:50.906Z</time>
      </trkpt>
      <trkpt lat="50.60846" lon="1.87784">
        <ele>160.4</ele>
        <time>2024-01-16T17:11:52.581Z</time>
      </trkpt>
      <trkpt lat="50.60849" lon="1.87786">
        <ele>160.3</ele>
        <time>2024-01-16T17:11:52.954Z</time>
        <extensions>
          <visugpx:TrkExtension xmlns:visugpx="https://www.visugpx.com/editgpx/">
            <visugpx:node>20</visugpx:node>
            </visugpx:TrkExtension>
        </extensions>
      </trkpt>
      <trkpt lat="50.60846" lon="1.87784">
        <ele>160.4</ele>
        <time>2024-01-16T17:11:53.623Z</time>
      </trkpt>
      <trkpt lat="50.60839" lon="1.87781">
        <ele>160.7</ele>
        <time>2024-01-16T17:11:55.316Z</time>
      </trkpt>
      <trkpt lat="50.60823" lon="1.87774">
        <ele>160.8</ele>
        <time>2024-01-16T17:11:57.939Z</time>
      </trkpt>
      <trkpt lat="50.60811" lon="1.87767">
        <ele>160.6</ele>
        <time>2024-01-16T17:11:59.595Z</time>
      </trkpt>
      <trkpt lat="50.60803" lon="1.87763">
        <ele>160.5</ele>
        <time>2024-01-16T17:12:00.717Z</time>
      </trkpt>
      <trkpt lat="50.60796" lon="1.87758">
        <ele>160.7</ele>
        <time>2024-01-16T17:12:02.215Z</time>
      </trkpt>
      <trkpt lat="50.60791" lon="1.87754">
        <ele>160.9</ele>
        <time>2024-01-16T17:12:03.438Z</time>
      </trkpt>
      <trkpt lat="50.60786" lon="1.87749">
        <ele>161</ele>
        <time>2024-01-16T17:12:04.483Z</time>
      </trkpt>
      <trkpt lat="50.60779" lon="1.87742">
        <ele>161</ele>
        <time>2024-01-16T17:12:05.718Z</time>
      </trkpt>
      <trkpt lat="50.60773" lon="1.87734">
        <ele>160.9</ele>
        <time>2024-01-16T17:12:06.761Z</time>
      </trkpt>
      <trkpt lat="50.60762" lon="1.87718">
        <ele>161.2</ele>
        <time>2024-01-16T17:12:09.495Z</time>
      </trkpt>
      <trkpt lat="50.60733" lon="1.87672">
        <ele>161.9</ele>
        <time>2024-01-16T17:12:16.769Z</time>
      </trkpt>
      <trkpt lat="50.60728" lon="1.87665">
        <ele>162.1</ele>
        <time>2024-01-16T17:12:18.132Z</time>
      </trkpt>
      <trkpt lat="50.60725" lon="1.87661">
        <ele>162.2</ele>
        <time>2024-01-16T17:12:18.894Z</time>
      </trkpt>
      <trkpt lat="50.60722" lon="1.87657">
        <ele>162.3</ele>
        <time>2024-01-16T17:12:19.655Z</time>
      </trkpt>
      <trkpt lat="50.60719" lon="1.87654">
        <ele>162.5</ele>
        <time>2024-01-16T17:12:20.657Z</time>
      </trkpt>
      <trkpt lat="50.60711" lon="1.87641">
        <ele>162.9</ele>
        <time>2024-01-16T17:12:23.136Z</time>
      </trkpt>
      <trkpt lat="50.60697" lon="1.8762">
        <ele>163.1</ele>
        <time>2024-01-16T17:12:26.325Z</time>
      </trkpt>
      <trkpt lat="50.60688" lon="1.87608">
        <ele>163.4</ele>
        <time>2024-01-16T17:12:28.610Z</time>
      </trkpt>
      <trkpt lat="50.60682" lon="1.87601">
        <ele>164</ele>
        <time>2024-01-16T17:12:31.521Z</time>
      </trkpt>
      <trkpt lat="50.60677" lon="1.87597">
        <ele>164.3</ele>
        <time>2024-01-16T17:12:33.045Z</time>
        <extensions>
          <visugpx:TrkExtension xmlns:visugpx="https://www.visugpx.com/editgpx/">
            <visugpx:node>19</visugpx:node>
            </visugpx:TrkExtension>
        </extensions>
      </trkpt>
      <trkpt lat="50.60673" lon="1.87594">
        <ele>164.5</ele>
        <time>2024-01-16T17:12:34.129Z</time>
      </trkpt>
      <trkpt lat="50.60663" lon="1.87587">
        <ele>164.9</ele>
        <time>2024-01-16T17:12:36.539Z</time>
      </trkpt>
      <trkpt lat="50.60661" lon="1.87587">
        <ele>164.9</ele>
        <time>2024-01-16T17:12:36.837Z</time>
      </trkpt>
      <trkpt lat="50.60665" lon="1.87582">
        <ele>165</ele>
        <time>2024-01-16T17:12:37.765Z</time>
      </trkpt>
      <trkpt lat="50.6067" lon="1.87578">
        <ele>165.2</ele>
        <time>2024-01-16T17:12:38.987Z</time>
      </trkpt>
      <trkpt lat="50.60678" lon="1.87571">
        <ele>165.4</ele>
        <time>2024-01-16T17:12:40.691Z</time>
      </trkpt>
      <trkpt lat="50.60693" lon="1.87555">
        <ele>166</ele>
        <time>2024-01-16T17:12:44.522Z</time>
      </trkpt>
      <trkpt lat="50.60704" lon="1.87541">
        <ele>166.3</ele>
        <time>2024-01-16T17:12:47.138Z</time>
      </trkpt>
      <trkpt lat="50.60714" lon="1.87531">
        <ele>166.3</ele>
        <time>2024-01-16T17:12:48.902Z</time>
      </trkpt>
      <trkpt lat="50.60729" lon="1.87514">
        <ele>165.8</ele>
        <time>2024-01-16T17:12:51.078Z</time>
      </trkpt>
      <trkpt lat="50.60734" lon="1.87508">
        <ele>165.6</ele>
        <time>2024-01-16T17:12:51.791Z</time>
      </trkpt>
      <trkpt lat="50.60745" lon="1.87495">
        <ele>165.2</ele>
        <time>2024-01-16T17:12:53.384Z</time>
      </trkpt>
      <trkpt lat="50.60752" lon="1.87485">
        <ele>164.9</ele>
        <time>2024-01-16T17:12:54.456Z</time>
      </trkpt>
      <trkpt lat="50.60761" lon="1.87473">
        <ele>164.6</ele>
        <time>2024-01-16T17:12:55.862Z</time>
      </trkpt>
      <trkpt lat="50.60766" lon="1.87463">
        <ele>164.4</ele>
        <time>2024-01-16T17:12:56.831Z</time>
      </trkpt>
      <trkpt lat="50.60767" lon="1.87461">
        <ele>164.4</ele>
        <time>2024-01-16T17:12:57.072Z</time>
      </trkpt>
      <trkpt lat="50.60773" lon="1.87445">
        <ele>164.2</ele>
        <time>2024-01-16T17:12:58.581Z</time>
      </trkpt>
      <trkpt lat="50.6078" lon="1.87423">
        <ele>163.1</ele>
        <time>2024-01-16T17:12:59.977Z</time>
      </trkpt>
      <trkpt lat="50.6079" lon="1.87395">
        <ele>161.3</ele>
        <time>2024-01-16T17:13:01.800Z</time>
      </trkpt>
      <trkpt lat="50.608" lon="1.87367">
        <ele>160.4</ele>
        <time>2024-01-16T17:13:03.912Z</time>
      </trkpt>
      <trkpt lat="50.60811" lon="1.87339">
        <ele>159.8</ele>
        <time>2024-01-16T17:13:06.341Z</time>
      </trkpt>
      <trkpt lat="50.60814" lon="1.87329">
        <ele>159.7</ele>
        <time>2024-01-16T17:13:07.260Z</time>
      </trkpt>
      <trkpt lat="50.60821" lon="1.87311">
        <ele>159.4</ele>
        <time>2024-01-16T17:13:08.898Z</time>
      </trkpt>
      <trkpt lat="50.60838" lon="1.8726">
        <ele>159.9</ele>
        <time>2024-01-16T17:13:15.138Z</time>
      </trkpt>
      <trkpt lat="50.60841" lon="1.87254">
        <ele>160</ele>
        <time>2024-01-16T17:13:16.029Z</time>
      </trkpt>
      <trkpt lat="50.60853" lon="1.87221">
        <ele>160.8</ele>
        <time>2024-01-16T17:13:21.136Z</time>
      </trkpt>
      <trkpt lat="50.60866" lon="1.87187">
        <ele>162</ele>
        <time>2024-01-16T17:13:27.491Z</time>
      </trkpt>
      <trkpt lat="50.60878" lon="1.87153">
        <ele>162.3</ele>
        <time>2024-01-16T17:13:31.640Z</time>
      </trkpt>
      <trkpt lat="50.60893" lon="1.87114">
        <ele>163</ele>
        <time>2024-01-16T17:13:37.170Z</time>
      </trkpt>
      <trkpt lat="50.60897" lon="1.87106">
        <ele>163.1</ele>
        <time>2024-01-16T17:13:38.294Z</time>
      </trkpt>
      <trkpt lat="50.60904" lon="1.87088">
        <ele>163.4</ele>
        <time>2024-01-16T17:13:40.804Z</time>
      </trkpt>
      <trkpt lat="50.60912" lon="1.87067">
        <ele>163.2</ele>
        <time>2024-01-16T17:13:42.863Z</time>
      </trkpt>
      <trkpt lat="50.60926" lon="1.87027">
        <ele>163.3</ele>
        <time>2024-01-16T17:13:47.329Z</time>
      </trkpt>
      <trkpt lat="50.60932" lon="1.87004">
        <ele>162.9</ele>
        <time>2024-01-16T17:13:49.212Z</time>
      </trkpt>
      <trkpt lat="50.6094" lon="1.86977">
        <ele>162.3</ele>
        <time>2024-01-16T17:13:51.359Z</time>
      </trkpt>
      <trkpt lat="50.60946" lon="1.86953">
        <ele>161.9</ele>
        <time>2024-01-16T17:13:53.327Z</time>
      </trkpt>
      <trkpt lat="50.60953" lon="1.86924">
        <ele>161.7</ele>
        <time>2024-01-16T17:13:55.999Z</time>
      </trkpt>
      <trkpt lat="50.60961" lon="1.8689">
        <ele>161</ele>
        <time>2024-01-16T17:13:58.638Z</time>
      </trkpt>
      <trkpt lat="50.60969" lon="1.86859">
        <ele>161.2</ele>
        <time>2024-01-16T17:14:02.108Z</time>
      </trkpt>
      <trkpt lat="50.60977" lon="1.86831">
        <ele>162</ele>
        <time>2024-01-16T17:14:06.639Z</time>
      </trkpt>
      <trkpt lat="50.60984" lon="1.86811">
        <ele>162.3</ele>
        <time>2024-01-16T17:14:09.305Z</time>
      </trkpt>
      <trkpt lat="50.60988" lon="1.86801">
        <ele>162.7</ele>
        <time>2024-01-16T17:14:11.340Z</time>
      </trkpt>
      <trkpt lat="50.60989" lon="1.86799">
        <ele>162.8</ele>
        <time>2024-01-16T17:14:11.830Z</time>
      </trkpt>
      <trkpt lat="50.60993" lon="1.86788">
        <ele>163.4</ele>
        <time>2024-01-16T17:14:14.730Z</time>
      </trkpt>
      <trkpt lat="50.61003" lon="1.86771">
        <ele>164.4</ele>
        <time>2024-01-16T17:14:19.576Z</time>
      </trkpt>
      <trkpt lat="50.61013" lon="1.86755">
        <ele>165.3</ele>
        <time>2024-01-16T17:14:23.976Z</time>
      </trkpt>
      <trkpt lat="50.61025" lon="1.86738">
        <ele>166.3</ele>
        <time>2024-01-16T17:14:28.880Z</time>
      </trkpt>
      <trkpt lat="50.61038" lon="1.86719">
        <ele>167</ele>
        <time>2024-01-16T17:14:32.924Z</time>
      </trkpt>
      <trkpt lat="50.61051" lon="1.86703">
        <ele>167.6</ele>
        <time>2024-01-16T17:14:36.549Z</time>
      </trkpt>
      <trkpt lat="50.61065" lon="1.86684">
        <ele>168</ele>
        <time>2024-01-16T17:14:39.983Z</time>
      </trkpt>
      <trkpt lat="50.61078" lon="1.86666">
        <ele>168</ele>
        <time>2024-01-16T17:14:42.561Z</time>
      </trkpt>
      <trkpt lat="50.61094" lon="1.86643">
        <ele>166.8</ele>
        <time>2024-01-16T17:14:44.640Z</time>
      </trkpt>
      <trkpt lat="50.61102" lon="1.86628">
        <ele>166.3</ele>
        <time>2024-01-16T17:14:45.964Z</time>
      </trkpt>
      <trkpt lat="50.61103" lon="1.86624">
        <ele>166.3</ele>
        <time>2024-01-16T17:14:46.371Z</time>
      </trkpt>
      <trkpt lat="50.61103" lon="1.8662">
        <ele>166.3</ele>
        <time>2024-01-16T17:14:46.749Z</time>
      </trkpt>
      <trkpt lat="50.61104" lon="1.86616">
        <ele>166.3</ele>
        <time>2024-01-16T17:14:47.156Z</time>
      </trkpt>
      <trkpt lat="50.61104" lon="1.86609">
        <ele>166.2</ele>
        <time>2024-01-16T17:14:47.698Z</time>
      </trkpt>
      <trkpt lat="50.61106" lon="1.8661">
        <ele>166.1</ele>
        <time>2024-01-16T17:14:47.910Z</time>
      </trkpt>
      <trkpt lat="50.61113" lon="1.86612">
        <ele>165.8</ele>
        <time>2024-01-16T17:14:48.658Z</time>
      </trkpt>
      <trkpt lat="50.61114" lon="1.86612">
        <ele>165.7</ele>
        <time>2024-01-16T17:14:48.747Z</time>
        <extensions>
          <visugpx:TrkExtension xmlns:visugpx="https://www.visugpx.com/editgpx/">
            <visugpx:node>18</visugpx:node>
            </visugpx:TrkExtension>
        </extensions>
      </trkpt>
      <trkpt lat="50.6112" lon="1.86615">
        <ele>165.1</ele>
        <time>2024-01-16T17:14:49.310Z</time>
      </trkpt>
      <trkpt lat="50.61128" lon="1.86619">
        <ele>164.3</ele>
        <time>2024-01-16T17:14:50.060Z</time>
      </trkpt>
      <trkpt lat="50.61137" lon="1.86628">
        <ele>163.8</ele>
        <time>2024-01-16T17:14:51.143Z</time>
      </trkpt>
      <trkpt lat="50.61145" lon="1.86638">
        <ele>163.3</ele>
        <time>2024-01-16T17:14:52.166Z</time>
      </trkpt>
      <trkpt lat="50.61155" lon="1.86652">
        <ele>162.9</ele>
        <time>2024-01-16T17:14:53.706Z</time>
      </trkpt>
      <trkpt lat="50.6116" lon="1.86662">
        <ele>162.8</ele>
        <time>2024-01-16T17:14:54.781Z</time>
      </trkpt>
      <trkpt lat="50.61166" lon="1.86673">
        <ele>162.5</ele>
        <time>2024-01-16T17:14:55.819Z</time>
      </trkpt>
      <trkpt lat="50.61172" lon="1.86688">
        <ele>163</ele>
        <time>2024-01-16T17:14:58.547Z</time>
      </trkpt>
      <trkpt lat="50.61179" lon="1.86705">
        <ele>163</ele>
        <time>2024-01-16T17:15:00.463Z</time>
      </trkpt>
      <trkpt lat="50.61185" lon="1.86719">
        <ele>162.9</ele>
        <time>2024-01-16T17:15:01.929Z</time>
      </trkpt>
      <trkpt lat="50.61188" lon="1.8673">
        <ele>163</ele>
        <time>2024-01-16T17:15:03.219Z</time>
      </trkpt>
      <trkpt lat="50.61193" lon="1.86744">
        <ele>162.9</ele>
        <time>2024-01-16T17:15:04.606Z</time>
      </trkpt>
      <trkpt lat="50.61198" lon="1.86757">
        <ele>162.8</ele>
        <time>2024-01-16T17:15:05.913Z</time>
      </trkpt>
      <trkpt lat="50.61204" lon="1.86768">
        <ele>162.4</ele>
        <time>2024-01-16T17:15:06.871Z</time>
      </trkpt>
      <trkpt lat="50.61213" lon="1.86783">
        <ele>161.6</ele>
        <time>2024-01-16T17:15:08.084Z</time>
      </trkpt>
      <trkpt lat="50.61224" lon="1.86797">
        <ele>161.2</ele>
        <time>2024-01-16T17:15:09.732Z</time>
      </trkpt>
      <trkpt lat="50.61239" lon="1.86813">
        <ele>160.7</ele>
        <time>2024-01-16T17:15:11.856Z</time>
      </trkpt>
      <trkpt lat="50.61265" lon="1.8684">
        <ele>159.4</ele>
        <time>2024-01-16T17:15:15.136Z</time>
      </trkpt>
      <trkpt lat="50.61286" lon="1.86865">
        <ele>159.4</ele>
        <time>2024-01-16T17:15:19.058Z</time>
      </trkpt>
      <trkpt lat="50.61307" lon="1.86889">
        <ele>158.8</ele>
        <time>2024-01-16T17:15:22.210Z</time>
      </trkpt>
      <trkpt lat="50.61316" lon="1.86901">
        <ele>158.5</ele>
        <time>2024-01-16T17:15:23.616Z</time>
      </trkpt>
      <trkpt lat="50.61321" lon="1.86907">
        <ele>158.4</ele>
        <time>2024-01-16T17:15:24.427Z</time>
      </trkpt>
      <trkpt lat="50.61327" lon="1.86918">
        <ele>158.8</ele>
        <time>2024-01-16T17:15:26.632Z</time>
      </trkpt>
      <trkpt lat="50.61328" lon="1.86919">
        <ele>158.8</ele>
        <time>2024-01-16T17:15:26.808Z</time>
        <extensions>
          <visugpx:TrkExtension xmlns:visugpx="https://www.visugpx.com/editgpx/">
            <visugpx:node>17</visugpx:node>
            </visugpx:TrkExtension>
        </extensions>
      </trkpt>
      <trkpt lat="50.61327" lon="1.86918">
        <ele>158.8</ele>
        <time>2024-01-16T17:15:26.985Z</time>
      </trkpt>
      <trkpt lat="50.61327" lon="1.86907">
        <ele>157.7</ele>
        <time>2024-01-16T17:15:27.609Z</time>
      </trkpt>
      <trkpt lat="50.61327" lon="1.86897">
        <ele>156.7</ele>
        <time>2024-01-16T17:15:28.176Z</time>
      </trkpt>
      <trkpt lat="50.61322" lon="1.86817">
        <ele>149.9</ele>
        <time>2024-01-16T17:15:32.736Z</time>
      </trkpt>
      <trkpt lat="50.6132" lon="1.86792">
        <ele>147.2</ele>
        <time>2024-01-16T17:15:34.166Z</time>
      </trkpt>
      <trkpt lat="50.61316" lon="1.86762">
        <ele>144.2</ele>
        <time>2024-01-16T17:15:35.905Z</time>
      </trkpt>
      <trkpt lat="50.61312" lon="1.86733">
        <ele>141.6</ele>
        <time>2024-01-16T17:15:37.589Z</time>
      </trkpt>
      <trkpt lat="50.6131" lon="1.86707">
        <ele>139.3</ele>
        <time>2024-01-16T17:15:39.075Z</time>
      </trkpt>
      <trkpt lat="50.61309" lon="1.86686">
        <ele>137.4</ele>
        <time>2024-01-16T17:15:40.269Z</time>
      </trkpt>
      <trkpt lat="50.61308" lon="1.86674">
        <ele>136.3</ele>
        <time>2024-01-16T17:15:40.956Z</time>
      </trkpt>
      <trkpt lat="50.61308" lon="1.86662">
        <ele>135.2</ele>
        <time>2024-01-16T17:15:41.637Z</time>
      </trkpt>
      <trkpt lat="50.61308" lon="1.8665">
        <ele>134.4</ele>
        <time>2024-01-16T17:15:42.318Z</time>
      </trkpt>
      <trkpt lat="50.61309" lon="1.86639">
        <ele>133.4</ele>
        <time>2024-01-16T17:15:42.948Z</time>
      </trkpt>
      <trkpt lat="50.6131" lon="1.8663">
        <ele>132.6</ele>
        <time>2024-01-16T17:15:43.466Z</time>
      </trkpt>
      <trkpt lat="50.61311" lon="1.86619">
        <ele>131.7</ele>
        <time>2024-01-16T17:15:44.097Z</time>
      </trkpt>
      <trkpt lat="50.61312" lon="1.86612">
        <ele>131.1</ele>
        <time>2024-01-16T17:15:44.504Z</time>
      </trkpt>
      <trkpt lat="50.61314" lon="1.86604">
        <ele>130.5</ele>
        <time>2024-01-16T17:15:44.992Z</time>
      </trkpt>
      <trkpt lat="50.61316" lon="1.86598">
        <ele>130</ele>
        <time>2024-01-16T17:15:45.376Z</time>
      </trkpt>
      <trkpt lat="50.61317" lon="1.86586">
        <ele>129.4</ele>
        <time>2024-01-16T17:15:46.063Z</time>
      </trkpt>
      <trkpt lat="50.61317" lon="1.8657">
        <ele>128.9</ele>
        <time>2024-01-16T17:15:47.078Z</time>
      </trkpt>
      <trkpt lat="50.61319" lon="1.86555">
        <ele>128</ele>
        <time>2024-01-16T17:15:47.947Z</time>
      </trkpt>
      <trkpt lat="50.61322" lon="1.86533">
        <ele>126.8</ele>
        <time>2024-01-16T17:15:49.224Z</time>
      </trkpt>
      <trkpt lat="50.61326" lon="1.86502">
        <ele>125.8</ele>
        <time>2024-01-16T17:15:51.223Z</time>
      </trkpt>
      <trkpt lat="50.61331" lon="1.86468">
        <ele>124.1</ele>
        <time>2024-01-16T17:15:53.203Z</time>
      </trkpt>
      <trkpt lat="50.61337" lon="1.86424">
        <ele>121.8</ele>
        <time>2024-01-16T17:15:55.757Z</time>
      </trkpt>
      <trkpt lat="50.61348" lon="1.86353">
        <ele>117.7</ele>
        <time>2024-01-16T17:15:59.903Z</time>
      </trkpt>
      <trkpt lat="50.61351" lon="1.8632">
        <ele>115.8</ele>
        <time>2024-01-16T17:16:01.794Z</time>
      </trkpt>
      <trkpt lat="50.61352" lon="1.86312">
        <ele>115.1</ele>
        <time>2024-01-16T17:16:02.257Z</time>
      </trkpt>
      <trkpt lat="50.61351" lon="1.86305">
        <ele>114.7</ele>
        <time>2024-01-16T17:16:02.664Z</time>
      </trkpt>
      <trkpt lat="50.61351" lon="1.86296">
        <ele>113.9</ele>
        <time>2024-01-16T17:16:03.174Z</time>
      </trkpt>
      <trkpt lat="50.6135" lon="1.86287">
        <ele>113.3</ele>
        <time>2024-01-16T17:16:03.693Z</time>
      </trkpt>
      <trkpt lat="50.61349" lon="1.8628">
        <ele>112.9</ele>
        <time>2024-01-16T17:16:04.100Z</time>
      </trkpt>
      <trkpt lat="50.61347" lon="1.86269">
        <ele>112.6</ele>
        <time>2024-01-16T17:16:04.867Z</time>
      </trkpt>
      <trkpt lat="50.61343" lon="1.86256">
        <ele>112.3</ele>
        <time>2024-01-16T17:16:05.900Z</time>
      </trkpt>
      <trkpt lat="50.61335" lon="1.86231">
        <ele>112.1</ele>
        <time>2024-01-16T17:16:08.288Z</time>
      </trkpt>
      <trkpt lat="50.6133" lon="1.86216">
        <ele>111.8</ele>
        <time>2024-01-16T17:16:09.545Z</time>
      </trkpt>
      <trkpt lat="50.61328" lon="1.86201">
        <ele>111</ele>
        <time>2024-01-16T17:16:10.415Z</time>
      </trkpt>
      <trkpt lat="50.61326" lon="1.8619">
        <ele>110.6</ele>
        <time>2024-01-16T17:16:11.113Z</time>
      </trkpt>
      <trkpt lat="50.61324" lon="1.86173">
        <ele>110.2</ele>
        <time>2024-01-16T17:16:12.315Z</time>
      </trkpt>
      <trkpt lat="50.61322" lon="1.86155">
        <ele>109.6</ele>
        <time>2024-01-16T17:16:13.455Z</time>
      </trkpt>
      <trkpt lat="50.61321" lon="1.86137">
        <ele>108.9</ele>
        <time>2024-01-16T17:16:14.516Z</time>
      </trkpt>
      <trkpt lat="50.61319" lon="1.8612">
        <ele>108.7</ele>
        <time>2024-01-16T17:16:15.904Z</time>
      </trkpt>
      <trkpt lat="50.61315" lon="1.86098">
        <ele>107.9</ele>
        <time>2024-01-16T17:16:17.301Z</time>
      </trkpt>
      <trkpt lat="50.61312" lon="1.86085">
        <ele>107.1</ele>
        <time>2024-01-16T17:16:18.086Z</time>
      </trkpt>
      <trkpt lat="50.61305" lon="1.86071">
        <ele>107</ele>
        <time>2024-01-16T17:16:19.639Z</time>
      </trkpt>
      <trkpt lat="50.61298" lon="1.86056">
        <ele>107.3</ele>
        <time>2024-01-16T17:16:21.927Z</time>
      </trkpt>
      <trkpt lat="50.6129" lon="1.86037">
        <ele>106.9</ele>
        <time>2024-01-16T17:16:23.623Z</time>
      </trkpt>
      <trkpt lat="50.61283" lon="1.86024">
        <ele>106.7</ele>
        <time>2024-01-16T17:16:24.989Z</time>
      </trkpt>
      <trkpt lat="50.61274" lon="1.86008">
        <ele>106.4</ele>
        <time>2024-01-16T17:16:26.651Z</time>
      </trkpt>
      <trkpt lat="50.61265" lon="1.85994">
        <ele>106.4</ele>
        <time>2024-01-16T17:16:28.536Z</time>
      </trkpt>
      <trkpt lat="50.6125" lon="1.85972">
        <ele>106</ele>
        <time>2024-01-16T17:16:31.101Z</time>
      </trkpt>
      <trkpt lat="50.6124" lon="1.8596">
        <ele>106.1</ele>
        <time>2024-01-16T17:16:33.125Z</time>
      </trkpt>
      <trkpt lat="50.61232" lon="1.85945">
        <ele>105.7</ele>
        <time>2024-01-16T17:16:34.532Z</time>
      </trkpt>
      <trkpt lat="50.61224" lon="1.85932">
        <ele>105.1</ele>
        <time>2024-01-16T17:16:35.658Z</time>
      </trkpt>
      <trkpt lat="50.61218" lon="1.85918">
        <ele>104.2</ele>
        <time>2024-01-16T17:16:36.616Z</time>
      </trkpt>
      <trkpt lat="50.61217" lon="1.85914">
        <ele>104.2</ele>
        <time>2024-01-16T17:16:37.023Z</time>
      </trkpt>
      <trkpt lat="50.61213" lon="1.85902">
        <ele>104.3</ele>
        <time>2024-01-16T17:16:38.460Z</time>
      </trkpt>
      <trkpt lat="50.61208" lon="1.85885">
        <ele>104.4</ele>
        <time>2024-01-16T17:16:40.384Z</time>
      </trkpt>
      <trkpt lat="50.61198" lon="1.85852">
        <ele>104</ele>
        <time>2024-01-16T17:16:43.345Z</time>
      </trkpt>
      <trkpt lat="50.61194" lon="1.8584">
        <ele>104</ele>
        <time>2024-01-16T17:16:44.627Z</time>
      </trkpt>
      <trkpt lat="50.61184" lon="1.85803">
        <ele>103.3</ele>
        <time>2024-01-16T17:16:47.623Z</time>
      </trkpt>
      <trkpt lat="50.61173" lon="1.85769">
        <ele>103.1</ele>
        <time>2024-01-16T17:16:50.966Z</time>
      </trkpt>
      <trkpt lat="50.61163" lon="1.85735">
        <ele>102.9</ele>
        <time>2024-01-16T17:16:54.244Z</time>
      </trkpt>
      <trkpt lat="50.61152" lon="1.85701">
        <ele>102.9</ele>
        <time>2024-01-16T17:16:57.853Z</time>
      </trkpt>
      <trkpt lat="50.61144" lon="1.85677">
        <ele>103.1</ele>
        <time>2024-01-16T17:17:00.728Z</time>
        <extensions>
          <visugpx:TrkExtension xmlns:visugpx="https://www.visugpx.com/editgpx/">
            <visugpx:node>16</visugpx:node>
            </visugpx:TrkExtension>
        </extensions>
      </trkpt>
      <trkpt lat="50.61143" lon="1.85673">
        <ele>103.1</ele>
        <time>2024-01-16T17:17:01.135Z</time>
      </trkpt>
      <trkpt lat="50.61138" lon="1.85656">
        <ele>103</ele>
        <time>2024-01-16T17:17:02.774Z</time>
      </trkpt>
      <trkpt lat="50.61143" lon="1.85656">
        <ele>103.2</ele>
        <time>2024-01-16T17:17:03.921Z</time>
      </trkpt>
      <trkpt lat="50.61149" lon="1.85654">
        <ele>103.5</ele>
        <time>2024-01-16T17:17:05.494Z</time>
      </trkpt>
      <trkpt lat="50.61158" lon="1.85648">
        <ele>104.2</ele>
        <time>2024-01-16T17:17:08.877Z</time>
      </trkpt>
      <trkpt lat="50.61173" lon="1.85637">
        <ele>105.4</ele>
        <time>2024-01-16T17:17:14.675Z</time>
      </trkpt>
      <trkpt lat="50.61184" lon="1.85628">
        <ele>106.1</ele>
        <time>2024-01-16T17:17:18.178Z</time>
      </trkpt>
      <trkpt lat="50.61189" lon="1.85623">
        <ele>106.5</ele>
        <time>2024-01-16T17:17:20.118Z</time>
      </trkpt>
      <trkpt lat="50.61195" lon="1.85617">
        <ele>107.1</ele>
        <time>2024-01-16T17:17:23.046Z</time>
      </trkpt>
      <trkpt lat="50.61209" lon="1.85601">
        <ele>109.8</ele>
        <time>2024-01-16T17:17:34.090Z</time>
      </trkpt>
      <trkpt lat="50.61222" lon="1.85585">
        <ele>111</ele>
        <time>2024-01-16T17:17:39.888Z</time>
      </trkpt>
      <trkpt lat="50.61235" lon="1.85568">
        <ele>113.3</ele>
        <time>2024-01-16T17:17:50.676Z</time>
      </trkpt>
      <trkpt lat="50.61249" lon="1.85551">
        <ele>114.9</ele>
        <time>2024-01-16T17:17:58.572Z</time>
      </trkpt>
      <trkpt lat="50.61268" lon="1.85529">
        <ele>117.7</ele>
        <time>2024-01-16T17:18:12.804Z</time>
      </trkpt>
      <trkpt lat="50.61284" lon="1.8551">
        <ele>120.3</ele>
        <time>2024-01-16T17:18:25.533Z</time>
      </trkpt>
      <trkpt lat="50.61297" lon="1.85493">
        <ele>121.2</ele>
        <time>2024-01-16T17:18:30.113Z</time>
      </trkpt>
      <trkpt lat="50.61309" lon="1.85477">
        <ele>121.6</ele>
        <time>2024-01-16T17:18:33.159Z</time>
      </trkpt>
      <trkpt lat="50.61322" lon="1.85456">
        <ele>123</ele>
        <time>2024-01-16T17:18:39.925Z</time>
      </trkpt>
      <trkpt lat="50.61339" lon="1.85433">
        <ele>125</ele>
        <time>2024-01-16T17:18:49.771Z</time>
      </trkpt>
      <trkpt lat="50.61351" lon="1.85412">
        <ele>127.1</ele>
        <time>2024-01-16T17:19:00.467Z</time>
      </trkpt>
      <trkpt lat="50.61363" lon="1.85393">
        <ele>127.8</ele>
        <time>2024-01-16T17:19:04.427Z</time>
      </trkpt>
      <trkpt lat="50.6138" lon="1.85365">
        <ele>130.3</ele>
        <time>2024-01-16T17:19:17.044Z</time>
      </trkpt>
      <trkpt lat="50.61394" lon="1.85342">
        <ele>132.5</ele>
        <time>2024-01-16T17:19:28.254Z</time>
      </trkpt>
      <trkpt lat="50.61404" lon="1.85327">
        <ele>133.7</ele>
        <time>2024-01-16T17:19:34.135Z</time>
      </trkpt>
      <trkpt lat="50.61413" lon="1.85317">
        <ele>134.7</ele>
        <time>2024-01-16T17:19:39.073Z</time>
      </trkpt>
      <trkpt lat="50.61427" lon="1.85309">
        <ele>136.3</ele>
        <time>2024-01-16T17:19:47.215Z</time>
      </trkpt>
      <trkpt lat="50.61446" lon="1.85301">
        <ele>138.2</ele>
        <time>2024-01-16T17:19:56.710Z</time>
      </trkpt>
      <trkpt lat="50.61456" lon="1.85299">
        <ele>139.1</ele>
        <time>2024-01-16T17:20:01.141Z</time>
      </trkpt>
      <trkpt lat="50.61469" lon="1.85296">
        <ele>140.3</ele>
        <time>2024-01-16T17:20:07.073Z</time>
      </trkpt>
      <trkpt lat="50.61484" lon="1.85293">
        <ele>142.1</ele>
        <time>2024-01-16T17:20:16.218Z</time>
      </trkpt>
      <trkpt lat="50.61499" lon="1.85286">
        <ele>143.5</ele>
        <time>2024-01-16T17:20:23.113Z</time>
      </trkpt>
      <trkpt lat="50.61512" lon="1.85281">
        <ele>144.5</ele>
        <time>2024-01-16T17:20:27.945Z</time>
      </trkpt>
      <trkpt lat="50.61527" lon="1.8528">
        <ele>146.1</ele>
        <time>2024-01-16T17:20:36.079Z</time>
      </trkpt>
      <trkpt lat="50.61541" lon="1.85281">
        <ele>148.1</ele>
        <time>2024-01-16T17:20:45.029Z</time>
      </trkpt>
      <trkpt lat="50.61545" lon="1.85282">
        <ele>148.8</ele>
        <time>2024-01-16T17:20:47.616Z</time>
      </trkpt>
      <trkpt lat="50.61559" lon="1.85283">
        <ele>150.7</ele>
        <time>2024-01-16T17:20:56.565Z</time>
      </trkpt>
      <trkpt lat="50.61573" lon="1.85283">
        <ele>152.3</ele>
        <time>2024-01-16T17:21:04.731Z</time>
      </trkpt>
      <trkpt lat="50.61588" lon="1.8528">
        <ele>153.7</ele>
        <time>2024-01-16T17:21:11.669Z</time>
      </trkpt>
      <trkpt lat="50.61606" lon="1.85276">
        <ele>155.6</ele>
        <time>2024-01-16T17:21:21.302Z</time>
      </trkpt>
      <trkpt lat="50.61623" lon="1.85273">
        <ele>158.9</ele>
        <time>2024-01-16T17:21:32.227Z</time>
      </trkpt>
      <trkpt lat="50.61627" lon="1.85273">
        <ele>159.8</ele>
        <time>2024-01-16T17:21:34.781Z</time>
      </trkpt>
      <trkpt lat="50.61639" lon="1.85273">
        <ele>162.2</ele>
        <time>2024-01-16T17:21:42.444Z</time>
      </trkpt>
      <trkpt lat="50.61648" lon="1.85275">
        <ele>162.8</ele>
        <time>2024-01-16T17:21:45.360Z</time>
      </trkpt>
      <trkpt lat="50.61649" lon="1.85275">
        <ele>162.8</ele>
        <time>2024-01-16T17:21:45.509Z</time>
      </trkpt>
      <trkpt lat="50.61654" lon="1.85276">
        <ele>163.2</ele>
        <time>2024-01-16T17:21:47.448Z</time>
      </trkpt>
      <trkpt lat="50.61659" lon="1.85276">
        <ele>163.5</ele>
        <time>2024-01-16T17:21:48.928Z</time>
      </trkpt>
      <trkpt lat="50.61664" lon="1.85274">
        <ele>163.9</ele>
        <time>2024-01-16T17:21:50.864Z</time>
      </trkpt>
      <trkpt lat="50.61673" lon="1.85267">
        <ele>164.8</ele>
        <time>2024-01-16T17:21:55.298Z</time>
      </trkpt>
      <trkpt lat="50.61682" lon="1.85258">
        <ele>165.4</ele>
        <time>2024-01-16T17:21:58.303Z</time>
      </trkpt>
      <trkpt lat="50.61689" lon="1.85249">
        <ele>165.9</ele>
        <time>2024-01-16T17:22:00.819Z</time>
      </trkpt>
      <trkpt lat="50.61695" lon="1.85239">
        <ele>166.8</ele>
        <time>2024-01-16T17:22:05.372Z</time>
      </trkpt>
      <trkpt lat="50.61703" lon="1.85226">
        <ele>168.1</ele>
        <time>2024-01-16T17:22:12.008Z</time>
      </trkpt>
      <trkpt lat="50.6171" lon="1.85209">
        <ele>169.2</ele>
        <time>2024-01-16T17:22:17.385Z</time>
      </trkpt>
      <trkpt lat="50.61717" lon="1.85194">
        <ele>170</ele>
        <time>2024-01-16T17:22:21.264Z</time>
      </trkpt>
      <trkpt lat="50.61722" lon="1.85184">
        <ele>170.7</ele>
        <time>2024-01-16T17:22:24.693Z</time>
      </trkpt>
      <trkpt lat="50.61725" lon="1.85177">
        <ele>171.4</ele>
        <time>2024-01-16T17:22:28.104Z</time>
      </trkpt>
      <trkpt lat="50.61727" lon="1.85171">
        <ele>171.9</ele>
        <time>2024-01-16T17:22:30.653Z</time>
      </trkpt>
      <trkpt lat="50.61734" lon="1.85157">
        <ele>172.6</ele>
        <time>2024-01-16T17:22:34.086Z</time>
      </trkpt>
      <trkpt lat="50.61742" lon="1.85142">
        <ele>173</ele>
        <time>2024-01-16T17:22:36.687Z</time>
      </trkpt>
      <trkpt lat="50.61752" lon="1.85124">
        <ele>173.6</ele>
        <time>2024-01-16T17:22:40.152Z</time>
      </trkpt>
      <trkpt lat="50.61763" lon="1.85107">
        <ele>173.9</ele>
        <time>2024-01-16T17:22:42.948Z</time>
      </trkpt>
      <trkpt lat="50.61775" lon="1.85087">
        <ele>173.2</ele>
        <time>2024-01-16T17:22:44.810Z</time>
      </trkpt>
      <trkpt lat="50.61779" lon="1.85079">
        <ele>173</ele>
        <time>2024-01-16T17:22:45.548Z</time>
      </trkpt>
      <trkpt lat="50.61779" lon="1.85078">
        <ele>173</ele>
        <time>2024-01-16T17:22:45.643Z</time>
        <extensions>
          <visugpx:TrkExtension xmlns:visugpx="https://www.visugpx.com/editgpx/">
            <visugpx:node>15</visugpx:node>
            </visugpx:TrkExtension>
        </extensions>
      </trkpt>
      <trkpt lat="50.61779" lon="1.85079">
        <ele>173</ele>
        <time>2024-01-16T17:22:45.737Z</time>
      </trkpt>
      <trkpt lat="50.61784" lon="1.85088">
        <ele>173.1</ele>
        <time>2024-01-16T17:22:47.026Z</time>
      </trkpt>
      <trkpt lat="50.61791" lon="1.85104">
        <ele>173.4</ele>
        <time>2024-01-16T17:22:49.386Z</time>
      </trkpt>
      <trkpt lat="50.61801" lon="1.8513">
        <ele>173.7</ele>
        <time>2024-01-16T17:22:52.745Z</time>
      </trkpt>
      <trkpt lat="50.6181" lon="1.85155">
        <ele>173.9</ele>
        <time>2024-01-16T17:22:55.772Z</time>
      </trkpt>
      <trkpt lat="50.6182" lon="1.8518">
        <ele>174</ele>
        <time>2024-01-16T17:22:58.714Z</time>
      </trkpt>
      <trkpt lat="50.6183" lon="1.85206">
        <ele>174</ele>
        <time>2024-01-16T17:23:01.589Z</time>
      </trkpt>
      <trkpt lat="50.61839" lon="1.85229">
        <ele>173.8</ele>
        <time>2024-01-16T17:23:03.885Z</time>
      </trkpt>
      <trkpt lat="50.61848" lon="1.85253">
        <ele>174</ele>
        <time>2024-01-16T17:23:06.832Z</time>
      </trkpt>
      <trkpt lat="50.61855" lon="1.85272">
        <ele>174</ele>
        <time>2024-01-16T17:23:08.909Z</time>
      </trkpt>
      <trkpt lat="50.6186" lon="1.85291">
        <ele>174.5</ele>
        <time>2024-01-16T17:23:11.844Z</time>
      </trkpt>
      <trkpt lat="50.61865" lon="1.85317">
        <ele>174.9</ele>
        <time>2024-01-16T17:23:15.102Z</time>
      </trkpt>
      <trkpt lat="50.61873" lon="1.85344">
        <ele>174.6</ele>
        <time>2024-01-16T17:23:17.544Z</time>
      </trkpt>
      <trkpt lat="50.6188" lon="1.85372">
        <ele>174.3</ele>
        <time>2024-01-16T17:23:20.012Z</time>
      </trkpt>
      <trkpt lat="50.61886" lon="1.85395">
        <ele>174.3</ele>
        <time>2024-01-16T17:23:22.363Z</time>
      </trkpt>
      <trkpt lat="50.61892" lon="1.85418">
        <ele>174.8</ele>
        <time>2024-01-16T17:23:25.646Z</time>
      </trkpt>
      <trkpt lat="50.619" lon="1.85443">
        <ele>174.6</ele>
        <time>2024-01-16T17:23:28.033Z</time>
      </trkpt>
      <trkpt lat="50.61905" lon="1.85464">
        <ele>174.4</ele>
        <time>2024-01-16T17:23:29.900Z</time>
      </trkpt>
      <trkpt lat="50.6191" lon="1.8549">
        <ele>174.2</ele>
        <time>2024-01-16T17:23:32.209Z</time>
      </trkpt>
      <trkpt lat="50.61916" lon="1.85516">
        <ele>174</ele>
        <time>2024-01-16T17:23:34.566Z</time>
      </trkpt>
      <trkpt lat="50.61921" lon="1.85541">
        <ele>173.8</ele>
        <time>2024-01-16T17:23:36.786Z</time>
      </trkpt>
      <trkpt lat="50.61927" lon="1.85565">
        <ele>173.8</ele>
        <time>2024-01-16T17:23:39.225Z</time>
      </trkpt>
      <trkpt lat="50.61932" lon="1.85586">
        <ele>174</ele>
        <time>2024-01-16T17:23:41.664Z</time>
      </trkpt>
      <trkpt lat="50.61947" lon="1.8563">
        <ele>173.2</ele>
        <time>2024-01-16T17:23:45.449Z</time>
      </trkpt>
      <trkpt lat="50.61952" lon="1.85641">
        <ele>172.7</ele>
        <time>2024-01-16T17:23:46.258Z</time>
      </trkpt>
      <trkpt lat="50.61955" lon="1.85641">
        <ele>172.6</ele>
        <time>2024-01-16T17:23:46.595Z</time>
        <extensions>
          <visugpx:TrkExtension xmlns:visugpx="https://www.visugpx.com/editgpx/">
            <visugpx:node>14</visugpx:node>
            </visugpx:TrkExtension>
        </extensions>
      </trkpt>
      <trkpt lat="50.61961" lon="1.85641">
        <ele>172.4</ele>
        <time>2024-01-16T17:23:47.267Z</time>
      </trkpt>
      <trkpt lat="50.61971" lon="1.85639">
        <ele>172</ele>
        <time>2024-01-16T17:23:48.345Z</time>
      </trkpt>
      <trkpt lat="50.61982" lon="1.85639">
        <ele>171.3</ele>
        <time>2024-01-16T17:23:49.347Z</time>
      </trkpt>
      <trkpt lat="50.6199" lon="1.8564">
        <ele>170.7</ele>
        <time>2024-01-16T17:23:50.065Z</time>
      </trkpt>
      <trkpt lat="50.61999" lon="1.85644">
        <ele>170.2</ele>
        <time>2024-01-16T17:23:50.974Z</time>
      </trkpt>
      <trkpt lat="50.6201" lon="1.85651">
        <ele>170.1</ele>
        <time>2024-01-16T17:23:52.609Z</time>
      </trkpt>
      <trkpt lat="50.62037" lon="1.85672">
        <ele>169.9</ele>
        <time>2024-01-16T17:23:56.826Z</time>
      </trkpt>
      <trkpt lat="50.62047" lon="1.85682">
        <ele>169.9</ele>
        <time>2024-01-16T17:23:58.591Z</time>
      </trkpt>
      <trkpt lat="50.62061" lon="1.85692">
        <ele>169.7</ele>
        <time>2024-01-16T17:24:00.625Z</time>
      </trkpt>
      <trkpt lat="50.62075" lon="1.85702">
        <ele>169.6</ele>
        <time>2024-01-16T17:24:02.781Z</time>
      </trkpt>
      <trkpt lat="50.62079" lon="1.85704">
        <ele>169.5</ele>
        <time>2024-01-16T17:24:03.288Z</time>
      </trkpt>
      <trkpt lat="50.62085" lon="1.85707">
        <ele>169.5</ele>
        <time>2024-01-16T17:24:04.226Z</time>
      </trkpt>
      <trkpt lat="50.62095" lon="1.85713">
        <ele>169.7</ele>
        <time>2024-01-16T17:24:06.152Z</time>
      </trkpt>
      <trkpt lat="50.62106" lon="1.8572">
        <ele>169.9</ele>
        <time>2024-01-16T17:24:08.246Z</time>
      </trkpt>
      <trkpt lat="50.62119" lon="1.85726">
        <ele>169.7</ele>
        <time>2024-01-16T17:24:10.011Z</time>
      </trkpt>
      <trkpt lat="50.62135" lon="1.85733">
        <ele>169.1</ele>
        <time>2024-01-16T17:24:11.834Z</time>
      </trkpt>
      <trkpt lat="50.62153" lon="1.85739">
        <ele>169</ele>
        <time>2024-01-16T17:24:14.440Z</time>
      </trkpt>
      <trkpt lat="50.62168" lon="1.85746">
        <ele>169</ele>
        <time>2024-01-16T17:24:16.771Z</time>
      </trkpt>
      <trkpt lat="50.62189" lon="1.85754">
        <ele>169.8</ele>
        <time>2024-01-16T17:24:21.556Z</time>
      </trkpt>
      <trkpt lat="50.62198" lon="1.85758">
        <ele>170</ele>
        <time>2024-01-16T17:24:23.289Z</time>
      </trkpt>
      <trkpt lat="50.62202" lon="1.8576">
        <ele>170</ele>
        <time>2024-01-16T17:24:23.914Z</time>
      </trkpt>
      <trkpt lat="50.62218" lon="1.85765">
        <ele>170</ele>
        <time>2024-01-16T17:24:26.345Z</time>
      </trkpt>
      <trkpt lat="50.62243" lon="1.85772">
        <ele>170</ele>
        <time>2024-01-16T17:24:30.128Z</time>
      </trkpt>
      <trkpt lat="50.6227" lon="1.85779">
        <ele>170</ele>
        <time>2024-01-16T17:24:34.206Z</time>
      </trkpt>
      <trkpt lat="50.62291" lon="1.85783">
        <ele>170.1</ele>
        <time>2024-01-16T17:24:37.505Z</time>
      </trkpt>
      <trkpt lat="50.62298" lon="1.85785">
        <ele>170.1</ele>
        <time>2024-01-16T17:24:38.565Z</time>
      </trkpt>
      <trkpt lat="50.62298" lon="1.85793">
        <ele>170.1</ele>
        <time>2024-01-16T17:24:39.321Z</time>
        <extensions>
          <visugpx:TrkExtension xmlns:visugpx="https://www.visugpx.com/editgpx/">
            <visugpx:node>13</visugpx:node>
            </visugpx:TrkExtension>
        </extensions>
      </trkpt>
      <trkpt lat="50.62298" lon="1.85785">
        <ele>170.1</ele>
        <time>2024-01-16T17:24:40.077Z</time>
      </trkpt>
      <trkpt lat="50.623" lon="1.85766">
        <ele>169.7</ele>
        <time>2024-01-16T17:24:41.454Z</time>
      </trkpt>
      <trkpt lat="50.62301" lon="1.85742">
        <ele>169.1</ele>
        <time>2024-01-16T17:24:43.090Z</time>
      </trkpt>
      <trkpt lat="50.62305" lon="1.85709">
        <ele>168.1</ele>
        <time>2024-01-16T17:24:45.256Z</time>
      </trkpt>
      <trkpt lat="50.6231" lon="1.85673">
        <ele>166.1</ele>
        <time>2024-01-16T17:24:47.346Z</time>
      </trkpt>
      <trkpt lat="50.62317" lon="1.85629">
        <ele>163.6</ele>
        <time>2024-01-16T17:24:49.919Z</time>
      </trkpt>
      <trkpt lat="50.62323" lon="1.85588">
        <ele>161</ele>
        <time>2024-01-16T17:24:52.305Z</time>
      </trkpt>
      <trkpt lat="50.62329" lon="1.85541">
        <ele>158.2</ele>
        <time>2024-01-16T17:24:55.025Z</time>
      </trkpt>
      <trkpt lat="50.62335" lon="1.85505">
        <ele>155.5</ele>
        <time>2024-01-16T17:24:57.136Z</time>
      </trkpt>
      <trkpt lat="50.62341" lon="1.85477">
        <ele>154.1</ele>
        <time>2024-01-16T17:24:58.812Z</time>
      </trkpt>
      <trkpt lat="50.62343" lon="1.85463">
        <ele>153.6</ele>
        <time>2024-01-16T17:24:59.689Z</time>
      </trkpt>
      <trkpt lat="50.62344" lon="1.85457">
        <ele>153.5</ele>
        <time>2024-01-16T17:25:00.158Z</time>
      </trkpt>
      <trkpt lat="50.62345" lon="1.85445">
        <ele>153.1</ele>
        <time>2024-01-16T17:25:00.911Z</time>
      </trkpt>
      <trkpt lat="50.62345" lon="1.8544">
        <ele>153.3</ele>
        <time>2024-01-16T17:25:01.889Z</time>
      </trkpt>
      <trkpt lat="50.62344" lon="1.85422">
        <ele>153.7</ele>
        <time>2024-01-16T17:25:04.365Z</time>
      </trkpt>
      <trkpt lat="50.62339" lon="1.85392">
        <ele>153</ele>
        <time>2024-01-16T17:25:06.534Z</time>
      </trkpt>
      <trkpt lat="50.62331" lon="1.85365">
        <ele>151.6</ele>
        <time>2024-01-16T17:25:08.225Z</time>
      </trkpt>
      <trkpt lat="50.62324" lon="1.85333">
        <ele>150.3</ele>
        <time>2024-01-16T17:25:10.219Z</time>
      </trkpt>
      <trkpt lat="50.62318" lon="1.85308">
        <ele>148.8</ele>
        <time>2024-01-16T17:25:11.735Z</time>
      </trkpt>
      <trkpt lat="50.62314" lon="1.85286">
        <ele>148</ele>
        <time>2024-01-16T17:25:13.131Z</time>
      </trkpt>
      <trkpt lat="50.62312" lon="1.85275">
        <ele>147.7</ele>
        <time>2024-01-16T17:25:13.898Z</time>
      </trkpt>
      <trkpt lat="50.6231" lon="1.85263">
        <ele>147.4</ele>
        <time>2024-01-16T17:25:14.750Z</time>
      </trkpt>
      <trkpt lat="50.62305" lon="1.8523">
        <ele>146.2</ele>
        <time>2024-01-16T17:25:16.811Z</time>
      </trkpt>
      <trkpt lat="50.62298" lon="1.85204">
        <ele>142.8</ele>
        <time>2024-01-16T17:25:18.413Z</time>
      </trkpt>
      <trkpt lat="50.62293" lon="1.85179">
        <ele>140.3</ele>
        <time>2024-01-16T17:25:19.900Z</time>
      </trkpt>
      <trkpt lat="50.62289" lon="1.85165">
        <ele>139.2</ele>
        <time>2024-01-16T17:25:20.771Z</time>
      </trkpt>
      <trkpt lat="50.62285" lon="1.85156">
        <ele>138.8</ele>
        <time>2024-01-16T17:25:21.431Z</time>
      </trkpt>
      <trkpt lat="50.62271" lon="1.85139">
        <ele>137</ele>
        <time>2024-01-16T17:25:23.011Z</time>
      </trkpt>
      <trkpt lat="50.6226" lon="1.85123">
        <ele>136.6</ele>
        <time>2024-01-16T17:25:24.778Z</time>
      </trkpt>
      <trkpt lat="50.62249" lon="1.85104">
        <ele>136.4</ele>
        <time>2024-01-16T17:25:26.952Z</time>
      </trkpt>
      <trkpt lat="50.62246" lon="1.85097">
        <ele>136.4</ele>
        <time>2024-01-16T17:25:27.751Z</time>
      </trkpt>
      <trkpt lat="50.62238" lon="1.85081">
        <ele>135.9</ele>
        <time>2024-01-16T17:25:29.143Z</time>
      </trkpt>
      <trkpt lat="50.62226" lon="1.85059">
        <ele>134.6</ele>
        <time>2024-01-16T17:25:30.789Z</time>
      </trkpt>
      <trkpt lat="50.62213" lon="1.85031">
        <ele>133</ele>
        <time>2024-01-16T17:25:32.757Z</time>
      </trkpt>
      <trkpt lat="50.62202" lon="1.85002">
        <ele>130.6</ele>
        <time>2024-01-16T17:25:34.673Z</time>
      </trkpt>
      <trkpt lat="50.62189" lon="1.8497">
        <ele>127.5</ele>
        <time>2024-01-16T17:25:36.829Z</time>
      </trkpt>
      <trkpt lat="50.62175" lon="1.84935">
        <ele>124.9</ele>
        <time>2024-01-16T17:25:39.175Z</time>
      </trkpt>
      <trkpt lat="50.62158" lon="1.84892">
        <ele>123</ele>
        <time>2024-01-16T17:25:42.188Z</time>
      </trkpt>
      <trkpt lat="50.62147" lon="1.8487">
        <ele>124.1</ele>
        <time>2024-01-16T17:25:47.583Z</time>
      </trkpt>
      <trkpt lat="50.62141" lon="1.8486">
        <ele>124.7</ele>
        <time>2024-01-16T17:25:50.488Z</time>
      </trkpt>
      <trkpt lat="50.62138" lon="1.84856">
        <ele>124.9</ele>
        <time>2024-01-16T17:25:51.522Z</time>
      </trkpt>
      <trkpt lat="50.62128" lon="1.8485">
        <ele>125.6</ele>
        <time>2024-01-16T17:25:54.927Z</time>
      </trkpt>
      <trkpt lat="50.62121" lon="1.84849">
        <ele>126.2</ele>
        <time>2024-01-16T17:25:57.860Z</time>
      </trkpt>
      <trkpt lat="50.62118" lon="1.84844">
        <ele>126.2</ele>
        <time>2024-01-16T17:25:58.510Z</time>
      </trkpt>
      <trkpt lat="50.62117" lon="1.8484">
        <ele>126</ele>
        <time>2024-01-16T17:25:58.754Z</time>
      </trkpt>
      <trkpt lat="50.62116" lon="1.8483">
        <ele>125.6</ele>
        <time>2024-01-16T17:25:59.344Z</time>
      </trkpt>
      <trkpt lat="50.62116" lon="1.84823">
        <ele>125.6</ele>
        <time>2024-01-16T17:26:00.006Z</time>
        <extensions>
          <visugpx:TrkExtension xmlns:visugpx="https://www.visugpx.com/editgpx/">
            <visugpx:node>12</visugpx:node>
            </visugpx:TrkExtension>
        </extensions>
      </trkpt>
      <trkpt lat="50.62117" lon="1.84815">
        <ele>125.6</ele>
        <time>2024-01-16T17:26:00.777Z</time>
      </trkpt>
      <trkpt lat="50.62123" lon="1.8481">
        <ele>125.1</ele>
        <time>2024-01-16T17:26:01.384Z</time>
      </trkpt>
      <trkpt lat="50.62133" lon="1.84797">
        <ele>124.5</ele>
        <time>2024-01-16T17:26:02.706Z</time>
      </trkpt>
      <trkpt lat="50.62145" lon="1.84784">
        <ele>123.3</ele>
        <time>2024-01-16T17:26:04.008Z</time>
      </trkpt>
      <trkpt lat="50.62159" lon="1.84766">
        <ele>122.7</ele>
        <time>2024-01-16T17:26:06.036Z</time>
      </trkpt>
      <trkpt lat="50.62174" lon="1.84744">
        <ele>122.3</ele>
        <time>2024-01-16T17:26:08.601Z</time>
      </trkpt>
      <trkpt lat="50.6219" lon="1.84718">
        <ele>121.2</ele>
        <time>2024-01-16T17:26:10.920Z</time>
      </trkpt>
      <trkpt lat="50.62205" lon="1.84688">
        <ele>121.2</ele>
        <time>2024-01-16T17:26:14.531Z</time>
      </trkpt>
      <trkpt lat="50.62214" lon="1.84667">
        <ele>120.2</ele>
        <time>2024-01-16T17:26:16.009Z</time>
      </trkpt>
      <trkpt lat="50.62221" lon="1.84644">
        <ele>120</ele>
        <time>2024-01-16T17:26:18.163Z</time>
      </trkpt>
      <trkpt lat="50.62228" lon="1.84613">
        <ele>120.5</ele>
        <time>2024-01-16T17:26:22.142Z</time>
      </trkpt>
      <trkpt lat="50.6224" lon="1.8457">
        <ele>117.5</ele>
        <time>2024-01-16T17:26:24.806Z</time>
      </trkpt>
      <trkpt lat="50.62248" lon="1.8454">
        <ele>116.3</ele>
        <time>2024-01-16T17:26:26.753Z</time>
      </trkpt>
      <trkpt lat="50.62253" lon="1.8452">
        <ele>115.3</ele>
        <time>2024-01-16T17:26:27.972Z</time>
      </trkpt>
      <trkpt lat="50.62254" lon="1.84504">
        <ele>114.6</ele>
        <time>2024-01-16T17:26:28.884Z</time>
      </trkpt>
      <trkpt lat="50.62256" lon="1.84482">
        <ele>113.5</ele>
        <time>2024-01-16T17:26:30.145Z</time>
      </trkpt>
      <trkpt lat="50.62259" lon="1.84464">
        <ele>112.2</ele>
        <time>2024-01-16T17:26:31.201Z</time>
      </trkpt>
      <trkpt lat="50.62267" lon="1.8443">
        <ele>109.1</ele>
        <time>2024-01-16T17:26:33.257Z</time>
      </trkpt>
      <trkpt lat="50.62278" lon="1.84396">
        <ele>104.8</ele>
        <time>2024-01-16T17:26:35.422Z</time>
      </trkpt>
      <trkpt lat="50.62287" lon="1.8437">
        <ele>103.9</ele>
        <time>2024-01-16T17:26:37.318Z</time>
      </trkpt>
      <trkpt lat="50.62295" lon="1.84345">
        <ele>102.8</ele>
        <time>2024-01-16T17:26:38.954Z</time>
      </trkpt>
      <trkpt lat="50.62299" lon="1.84333">
        <ele>102.2</ele>
        <time>2024-01-16T17:26:39.723Z</time>
      </trkpt>
      <trkpt lat="50.62298" lon="1.84319">
        <ele>101.1</ele>
        <time>2024-01-16T17:26:40.522Z</time>
      </trkpt>
      <trkpt lat="50.62294" lon="1.84297">
        <ele>99.7</ele>
        <time>2024-01-16T17:26:41.820Z</time>
      </trkpt>
      <trkpt lat="50.62292" lon="1.84268">
        <ele>99</ele>
        <time>2024-01-16T17:26:43.826Z</time>
      </trkpt>
      <trkpt lat="50.62291" lon="1.84254">
        <ele>99</ele>
        <time>2024-01-16T17:26:45.158Z</time>
      </trkpt>
      <trkpt lat="50.62291" lon="1.84246">
        <ele>99.2</ele>
        <time>2024-01-16T17:26:46.315Z</time>
      </trkpt>
      <trkpt lat="50.6229" lon="1.84238">
        <ele>99.6</ele>
        <time>2024-01-16T17:26:48.250Z</time>
      </trkpt>
      <trkpt lat="50.62294" lon="1.84241">
        <ele>99.5</ele>
        <time>2024-01-16T17:26:48.791Z</time>
      </trkpt>
      <trkpt lat="50.62294" lon="1.84241">
        <ele>99.5</ele>
        <time>2024-01-16T17:26:48.791Z</time>
        <extensions>
          <visugpx:TrkExtension xmlns:visugpx="https://www.visugpx.com/editgpx/">
            <visugpx:node>11</visugpx:node>
            </visugpx:TrkExtension>
        </extensions>
      </trkpt>
      <trkpt lat="50.62294" lon="1.84241">
        <ele>99.5</ele>
        <time>2024-01-16T17:26:48.791Z</time>
      </trkpt>
      <trkpt lat="50.62305" lon="1.84246">
        <ele>99.3</ele>
        <time>2024-01-16T17:26:50.249Z</time>
      </trkpt>
      <trkpt lat="50.62317" lon="1.8425">
        <ele>99.4</ele>
        <time>2024-01-16T17:26:52.228Z</time>
      </trkpt>
      <trkpt lat="50.62318" lon="1.8425">
        <ele>99.4</ele>
        <time>2024-01-16T17:26:52.377Z</time>
      </trkpt>
      <trkpt lat="50.62332" lon="1.84254">
        <ele>99.8</ele>
        <time>2024-01-16T17:26:55.218Z</time>
      </trkpt>
      <trkpt lat="50.62346" lon="1.84259">
        <ele>99.7</ele>
        <time>2024-01-16T17:26:57.223Z</time>
      </trkpt>
      <trkpt lat="50.62366" lon="1.84263">
        <ele>99.7</ele>
        <time>2024-01-16T17:27:00.227Z</time>
      </trkpt>
      <trkpt lat="50.62382" lon="1.84268">
        <ele>100.1</ele>
        <time>2024-01-16T17:27:03.356Z</time>
      </trkpt>
      <trkpt lat="50.62399" lon="1.84272">
        <ele>100.2</ele>
        <time>2024-01-16T17:27:06.065Z</time>
      </trkpt>
      <trkpt lat="50.624" lon="1.84279">
        <ele>100</ele>
        <time>2024-01-16T17:27:06.538Z</time>
      </trkpt>
      <trkpt lat="50.624" lon="1.84282">
        <ele>100.1</ele>
        <time>2024-01-16T17:27:07.049Z</time>
      </trkpt>
      <trkpt lat="50.6241" lon="1.84294">
        <ele>100.9</ele>
        <time>2024-01-16T17:27:10.955Z</time>
      </trkpt>
      <trkpt lat="50.62425" lon="1.84311">
        <ele>102.5</ele>
        <time>2024-01-16T17:27:18.792Z</time>
      </trkpt>
      <trkpt lat="50.62429" lon="1.84319">
        <ele>103.2</ele>
        <time>2024-01-16T17:27:22.357Z</time>
      </trkpt>
      <trkpt lat="50.62431" lon="1.84324">
        <ele>103.6</ele>
        <time>2024-01-16T17:27:24.391Z</time>
      </trkpt>
      <trkpt lat="50.62432" lon="1.8434">
        <ele>105.1</ele>
        <time>2024-01-16T17:27:30.905Z</time>
      </trkpt>
      <trkpt lat="50.62436" lon="1.84369">
        <ele>107.9</ele>
        <time>2024-01-16T17:27:42.928Z</time>
      </trkpt>
      <trkpt lat="50.62439" lon="1.84395">
        <ele>110.6</ele>
        <time>2024-01-16T17:27:53.634Z</time>
      </trkpt>
      <trkpt lat="50.62445" lon="1.84438">
        <ele>114.6</ele>
        <time>2024-01-16T17:28:11.471Z</time>
      </trkpt>
      <trkpt lat="50.6245" lon="1.84469">
        <ele>117.3</ele>
        <time>2024-01-16T17:28:24.426Z</time>
      </trkpt>
      <trkpt lat="50.62452" lon="1.84477">
        <ele>118.2</ele>
        <time>2024-01-16T17:28:27.910Z</time>
        <extensions>
          <visugpx:TrkExtension xmlns:visugpx="https://www.visugpx.com/editgpx/">
            <visugpx:node>10</visugpx:node>
            </visugpx:TrkExtension>
        </extensions>
      </trkpt>
      <trkpt lat="50.62455" lon="1.84498">
        <ele>120</ele>
        <time>2024-01-16T17:28:36.617Z</time>
      </trkpt>
      <trkpt lat="50.62463" lon="1.84535">
        <ele>123.9</ele>
        <time>2024-01-16T17:28:52.454Z</time>
      </trkpt>
      <trkpt lat="50.62469" lon="1.84564">
        <ele>126.6</ele>
        <time>2024-01-16T17:29:04.812Z</time>
      </trkpt>
      <trkpt lat="50.62476" lon="1.84589">
        <ele>129.9</ele>
        <time>2024-01-16T17:29:15.883Z</time>
      </trkpt>
      <trkpt lat="50.6248" lon="1.84602">
        <ele>131.6</ele>
        <time>2024-01-16T17:29:21.736Z</time>
      </trkpt>
      <trkpt lat="50.62486" lon="1.84616">
        <ele>133.5</ele>
        <time>2024-01-16T17:29:28.581Z</time>
      </trkpt>
      <trkpt lat="50.62492" lon="1.84629">
        <ele>135.4</ele>
        <time>2024-01-16T17:29:35.094Z</time>
      </trkpt>
      <trkpt lat="50.62501" lon="1.84645">
        <ele>137.9</ele>
        <time>2024-01-16T17:29:43.757Z</time>
      </trkpt>
      <trkpt lat="50.62509" lon="1.8466">
        <ele>140.4</ele>
        <time>2024-01-16T17:29:51.696Z</time>
      </trkpt>
      <trkpt lat="50.62513" lon="1.84669">
        <ele>141.7</ele>
        <time>2024-01-16T17:29:56.148Z</time>
      </trkpt>
      <trkpt lat="50.62518" lon="1.84686">
        <ele>143.7</ele>
        <time>2024-01-16T17:30:03.739Z</time>
      </trkpt>
      <trkpt lat="50.62526" lon="1.84714">
        <ele>147.1</ele>
        <time>2024-01-16T17:30:16.180Z</time>
      </trkpt>
      <trkpt lat="50.6253" lon="1.84731">
        <ele>148.9</ele>
        <time>2024-01-16T17:30:23.526Z</time>
      </trkpt>
      <trkpt lat="50.62532" lon="1.8475">
        <ele>150.8</ele>
        <time>2024-01-16T17:30:31.328Z</time>
      </trkpt>
      <trkpt lat="50.62534" lon="1.84768">
        <ele>151.9</ele>
        <time>2024-01-16T17:30:36.806Z</time>
      </trkpt>
      <trkpt lat="50.62534" lon="1.84783">
        <ele>153.1</ele>
        <time>2024-01-16T17:30:42.784Z</time>
      </trkpt>
      <trkpt lat="50.62535" lon="1.84796">
        <ele>154.4</ele>
        <time>2024-01-16T17:30:48.089Z</time>
      </trkpt>
      <trkpt lat="50.62538" lon="1.84812">
        <ele>155.9</ele>
        <time>2024-01-16T17:30:54.848Z</time>
      </trkpt>
      <trkpt lat="50.62544" lon="1.84825">
        <ele>156.5</ele>
        <time>2024-01-16T17:30:57.821Z</time>
      </trkpt>
      <trkpt lat="50.62549" lon="1.84836">
        <ele>157</ele>
        <time>2024-01-16T17:31:00.304Z</time>
      </trkpt>
      <trkpt lat="50.6256" lon="1.84857">
        <ele>158.3</ele>
        <time>2024-01-16T17:31:06.588Z</time>
      </trkpt>
      <trkpt lat="50.62572" lon="1.84882">
        <ele>159.3</ele>
        <time>2024-01-16T17:31:11.776Z</time>
      </trkpt>
      <trkpt lat="50.62585" lon="1.84907">
        <ele>160.2</ele>
        <time>2024-01-16T17:31:16.713Z</time>
      </trkpt>
      <trkpt lat="50.62598" lon="1.84933">
        <ele>161.1</ele>
        <time>2024-01-16T17:31:21.705Z</time>
      </trkpt>
      <trkpt lat="50.62608" lon="1.84957">
        <ele>162.1</ele>
        <time>2024-01-16T17:31:26.748Z</time>
      </trkpt>
      <trkpt lat="50.62615" lon="1.8497">
        <ele>162.4</ele>
        <time>2024-01-16T17:31:28.898Z</time>
      </trkpt>
      <trkpt lat="50.62619" lon="1.84981">
        <ele>162.5</ele>
        <time>2024-01-16T17:31:30.254Z</time>
      </trkpt>
      <trkpt lat="50.6263" lon="1.8501">
        <ele>162.6</ele>
        <time>2024-01-16T17:31:33.595Z</time>
      </trkpt>
      <trkpt lat="50.6264" lon="1.8504">
        <ele>163.4</ele>
        <time>2024-01-16T17:31:38.367Z</time>
      </trkpt>
      <trkpt lat="50.62648" lon="1.85065">
        <ele>164</ele>
        <time>2024-01-16T17:31:42.153Z</time>
      </trkpt>
      <trkpt lat="50.62658" lon="1.85094">
        <ele>165</ele>
        <time>2024-01-16T17:31:47.444Z</time>
      </trkpt>
      <trkpt lat="50.6267" lon="1.85129">
        <ele>165.5</ele>
        <time>2024-01-16T17:31:52.041Z</time>
      </trkpt>
      <trkpt lat="50.62675" lon="1.85145">
        <ele>165.9</ele>
        <time>2024-01-16T17:31:54.498Z</time>
      </trkpt>
      <trkpt lat="50.62678" lon="1.85154">
        <ele>166.1</ele>
        <time>2024-01-16T17:31:55.829Z</time>
      </trkpt>
      <trkpt lat="50.62688" lon="1.85183">
        <ele>166.8</ele>
        <time>2024-01-16T17:32:00.274Z</time>
      </trkpt>
      <trkpt lat="50.62696" lon="1.85204">
        <ele>167.7</ele>
        <time>2024-01-16T17:32:04.749Z</time>
      </trkpt>
      <trkpt lat="50.62707" lon="1.85239">
        <ele>168.8</ele>
        <time>2024-01-16T17:32:10.752Z</time>
      </trkpt>
      <trkpt lat="50.62716" lon="1.85262">
        <ele>169.4</ele>
        <time>2024-01-16T17:32:14.458Z</time>
      </trkpt>
      <trkpt lat="50.62718" lon="1.85269">
        <ele>169.7</ele>
        <time>2024-01-16T17:32:15.931Z</time>
      </trkpt>
      <trkpt lat="50.62722" lon="1.85281">
        <ele>170.1</ele>
        <time>2024-01-16T17:32:18.070Z</time>
      </trkpt>
      <trkpt lat="50.62728" lon="1.853">
        <ele>170.6</ele>
        <time>2024-01-16T17:32:21.056Z</time>
      </trkpt>
      <trkpt lat="50.62733" lon="1.85319">
        <ele>170.8</ele>
        <time>2024-01-16T17:32:23.322Z</time>
      </trkpt>
      <trkpt lat="50.62737" lon="1.85334">
        <ele>171</ele>
        <time>2024-01-16T17:32:25.194Z</time>
        <extensions>
          <visugpx:TrkExtension xmlns:visugpx="https://www.visugpx.com/editgpx/">
            <visugpx:node>9</visugpx:node>
            </visugpx:TrkExtension>
        </extensions>
      </trkpt>
      <trkpt lat="50.62733" lon="1.85319">
        <ele>170.8</ele>
        <time>2024-01-16T17:32:26.488Z</time>
      </trkpt>
      <trkpt lat="50.62738" lon="1.85325">
        <ele>170.8</ele>
        <time>2024-01-16T17:32:27.424Z</time>
      </trkpt>
      <trkpt lat="50.62743" lon="1.85331">
        <ele>170.9</ele>
        <time>2024-01-16T17:32:28.522Z</time>
      </trkpt>
      <trkpt lat="50.62748" lon="1.85336">
        <ele>171.1</ele>
        <time>2024-01-16T17:32:29.784Z</time>
      </trkpt>
      <trkpt lat="50.62756" lon="1.85341">
        <ele>171.3</ele>
        <time>2024-01-16T17:32:31.411Z</time>
      </trkpt>
      <trkpt lat="50.62767" lon="1.85348">
        <ele>171.5</ele>
        <time>2024-01-16T17:32:33.505Z</time>
      </trkpt>
      <trkpt lat="50.62777" lon="1.85352">
        <ele>171.7</ele>
        <time>2024-01-16T17:32:35.376Z</time>
      </trkpt>
      <trkpt lat="50.6279" lon="1.85358">
        <ele>171.4</ele>
        <time>2024-01-16T17:32:37.035Z</time>
      </trkpt>
      <trkpt lat="50.62803" lon="1.85362">
        <ele>171.1</ele>
        <time>2024-01-16T17:32:38.651Z</time>
      </trkpt>
      <trkpt lat="50.62817" lon="1.85367">
        <ele>171.2</ele>
        <time>2024-01-16T17:32:40.940Z</time>
      </trkpt>
      <trkpt lat="50.62833" lon="1.85373">
        <ele>171.4</ele>
        <time>2024-01-16T17:32:43.704Z</time>
      </trkpt>
      <trkpt lat="50.62856" lon="1.8538">
        <ele>171.7</ele>
        <time>2024-01-16T17:32:47.667Z</time>
      </trkpt>
      <trkpt lat="50.62871" lon="1.85384">
        <ele>171.8</ele>
        <time>2024-01-16T17:32:50.083Z</time>
      </trkpt>
      <trkpt lat="50.62886" lon="1.85388">
        <ele>172</ele>
        <time>2024-01-16T17:32:52.666Z</time>
      </trkpt>
      <trkpt lat="50.629" lon="1.85392">
        <ele>171.6</ele>
        <time>2024-01-16T17:32:54.327Z</time>
      </trkpt>
      <trkpt lat="50.62918" lon="1.85397">
        <ele>171.3</ele>
        <time>2024-01-16T17:32:56.676Z</time>
      </trkpt>
      <trkpt lat="50.62933" lon="1.85401">
        <ele>171.4</ele>
        <time>2024-01-16T17:32:59.092Z</time>
      </trkpt>
      <trkpt lat="50.62951" lon="1.85408">
        <ele>171.5</ele>
        <time>2024-01-16T17:33:02.003Z</time>
      </trkpt>
      <trkpt lat="50.62968" lon="1.85414">
        <ele>171.1</ele>
        <time>2024-01-16T17:33:04.123Z</time>
      </trkpt>
      <trkpt lat="50.62987" lon="1.8542">
        <ele>171.1</ele>
        <time>2024-01-16T17:33:07.010Z</time>
      </trkpt>
      <trkpt lat="50.63006" lon="1.85426">
        <ele>171.3</ele>
        <time>2024-01-16T17:33:10.206Z</time>
      </trkpt>
      <trkpt lat="50.63013" lon="1.85429">
        <ele>171.2</ele>
        <time>2024-01-16T17:33:11.159Z</time>
      </trkpt>
      <trkpt lat="50.63022" lon="1.85433">
        <ele>171.1</ele>
        <time>2024-01-16T17:33:12.422Z</time>
      </trkpt>
      <trkpt lat="50.63032" lon="1.8544">
        <ele>171</ele>
        <time>2024-01-16T17:33:13.921Z</time>
      </trkpt>
      <trkpt lat="50.63045" lon="1.85448">
        <ele>171</ele>
        <time>2024-01-16T17:33:16.000Z</time>
      </trkpt>
      <trkpt lat="50.63063" lon="1.8546">
        <ele>170.7</ele>
        <time>2024-01-16T17:33:18.535Z</time>
      </trkpt>
      <trkpt lat="50.63075" lon="1.85471">
        <ele>170.3</ele>
        <time>2024-01-16T17:33:20.147Z</time>
      </trkpt>
      <trkpt lat="50.6309" lon="1.85484">
        <ele>169.3</ele>
        <time>2024-01-16T17:33:21.758Z</time>
      </trkpt>
      <trkpt lat="50.63102" lon="1.85494">
        <ele>168.5</ele>
        <time>2024-01-16T17:33:23.031Z</time>
      </trkpt>
      <trkpt lat="50.63114" lon="1.85505">
        <ele>167.7</ele>
        <time>2024-01-16T17:33:24.344Z</time>
      </trkpt>
      <trkpt lat="50.63123" lon="1.85513">
        <ele>167.1</ele>
        <time>2024-01-16T17:33:25.319Z</time>
      </trkpt>
      <trkpt lat="50.63129" lon="1.85517">
        <ele>166.7</ele>
        <time>2024-01-16T17:33:25.920Z</time>
      </trkpt>
      <trkpt lat="50.63136" lon="1.85521">
        <ele>166.3</ele>
        <time>2024-01-16T17:33:26.643Z</time>
      </trkpt>
      <trkpt lat="50.63148" lon="1.85526">
        <ele>165.8</ele>
        <time>2024-01-16T17:33:27.965Z</time>
      </trkpt>
      <trkpt lat="50.63172" lon="1.85529">
        <ele>165</ele>
        <time>2024-01-16T17:33:30.666Z</time>
      </trkpt>
      <trkpt lat="50.63192" lon="1.8553">
        <ele>165</ele>
        <time>2024-01-16T17:33:33.648Z</time>
      </trkpt>
      <trkpt lat="50.63218" lon="1.8553">
        <ele>165</ele>
        <time>2024-01-16T17:33:37.522Z</time>
      </trkpt>
      <trkpt lat="50.63244" lon="1.8553">
        <ele>165.8</ele>
        <time>2024-01-16T17:33:42.874Z</time>
      </trkpt>
      <trkpt lat="50.63259" lon="1.85531">
        <ele>166.3</ele>
        <time>2024-01-16T17:33:46.056Z</time>
      </trkpt>
      <trkpt lat="50.63273" lon="1.8553">
        <ele>166.8</ele>
        <time>2024-01-16T17:33:49.111Z</time>
      </trkpt>
      <trkpt lat="50.63284" lon="1.85532">
        <ele>167.2</ele>
        <time>2024-01-16T17:33:51.537Z</time>
      </trkpt>
      <trkpt lat="50.63292" lon="1.85533">
        <ele>167.5</ele>
        <time>2024-01-16T17:33:53.322Z</time>
      </trkpt>
      <trkpt lat="50.63301" lon="1.85535">
        <ele>167.8</ele>
        <time>2024-01-16T17:33:55.242Z</time>
      </trkpt>
      <trkpt lat="50.63332" lon="1.85551">
        <ele>168.2</ele>
        <time>2024-01-16T17:34:00.729Z</time>
      </trkpt>
      <trkpt lat="50.63348" lon="1.8556">
        <ele>168.6</ele>
        <time>2024-01-16T17:34:03.952Z</time>
      </trkpt>
      <trkpt lat="50.63357" lon="1.85566">
        <ele>168.9</ele>
        <time>2024-01-16T17:34:05.962Z</time>
      </trkpt>
      <trkpt lat="50.63376" lon="1.85578">
        <ele>168.6</ele>
        <time>2024-01-16T17:34:08.633Z</time>
      </trkpt>
      <trkpt lat="50.6339" lon="1.85586">
        <ele>168.2</ele>
        <time>2024-01-16T17:34:10.389Z</time>
        <extensions>
          <visugpx:TrkExtension xmlns:visugpx="https://www.visugpx.com/editgpx/">
            <visugpx:node>8</visugpx:node>
            </visugpx:TrkExtension>
        </extensions>
      </trkpt>
      <trkpt lat="50.63391" lon="1.85587">
        <ele>168.3</ele>
        <time>2024-01-16T17:34:10.877Z</time>
      </trkpt>
      <trkpt lat="50.63391" lon="1.85587">
        <ele>168.3</ele>
        <time>2024-01-16T17:34:10.877Z</time>
      </trkpt>
      <trkpt lat="50.63407" lon="1.85598">
        <ele>169.4</ele>
        <time>2024-01-16T17:34:16.256Z</time>
      </trkpt>
      <trkpt lat="50.63423" lon="1.85611">
        <ele>169.8</ele>
        <time>2024-01-16T17:34:19.622Z</time>
      </trkpt>
      <trkpt lat="50.63434" lon="1.85621">
        <ele>169.7</ele>
        <time>2024-01-16T17:34:21.380Z</time>
      </trkpt>
      <trkpt lat="50.63447" lon="1.8563">
        <ele>169.8</ele>
        <time>2024-01-16T17:34:23.646Z</time>
      </trkpt>
      <trkpt lat="50.63465" lon="1.85643">
        <ele>170.9</ele>
        <time>2024-01-16T17:34:29.175Z</time>
      </trkpt>
      <trkpt lat="50.63486" lon="1.85656">
        <ele>171.4</ele>
        <time>2024-01-16T17:34:33.391Z</time>
      </trkpt>
      <trkpt lat="50.63503" lon="1.85668">
        <ele>171.9</ele>
        <time>2024-01-16T17:34:37.057Z</time>
      </trkpt>
      <trkpt lat="50.63541" lon="1.85689">
        <ele>172.6</ele>
        <time>2024-01-16T17:34:44.204Z</time>
      </trkpt>
      <trkpt lat="50.6356" lon="1.857">
        <ele>173.1</ele>
        <time>2024-01-16T17:34:48.093Z</time>
      </trkpt>
      <trkpt lat="50.63585" lon="1.85713">
        <ele>173.3</ele>
        <time>2024-01-16T17:34:52.317Z</time>
      </trkpt>
      <trkpt lat="50.63602" lon="1.85724">
        <ele>173.4</ele>
        <time>2024-01-16T17:34:55.204Z</time>
      </trkpt>
      <trkpt lat="50.63617" lon="1.85732">
        <ele>173.7</ele>
        <time>2024-01-16T17:34:58.061Z</time>
      </trkpt>
      <trkpt lat="50.63632" lon="1.8574">
        <ele>174.3</ele>
        <time>2024-01-16T17:35:01.605Z</time>
      </trkpt>
      <trkpt lat="50.63639" lon="1.85743">
        <ele>174.5</ele>
        <time>2024-01-16T17:35:03.045Z</time>
      </trkpt>
      <trkpt lat="50.63647" lon="1.85748">
        <ele>174.6</ele>
        <time>2024-01-16T17:35:04.483Z</time>
      </trkpt>
      <trkpt lat="50.63654" lon="1.85753">
        <ele>174.6</ele>
        <time>2024-01-16T17:35:05.628Z</time>
      </trkpt>
      <trkpt lat="50.63661" lon="1.8576">
        <ele>174.8</ele>
        <time>2024-01-16T17:35:07.211Z</time>
      </trkpt>
      <trkpt lat="50.63662" lon="1.85762">
        <ele>174.9</ele>
        <time>2024-01-16T17:35:07.701Z</time>
      </trkpt>
      <trkpt lat="50.63672" lon="1.85774">
        <ele>175.6</ele>
        <time>2024-01-16T17:35:11.217Z</time>
      </trkpt>
      <trkpt lat="50.63694" lon="1.85806">
        <ele>176</ele>
        <time>2024-01-16T17:35:16.310Z</time>
      </trkpt>
      <trkpt lat="50.63704" lon="1.8582">
        <ele>177.2</ele>
        <time>2024-01-16T17:35:22.223Z</time>
      </trkpt>
      <trkpt lat="50.63725" lon="1.8585">
        <ele>178.6</ele>
        <time>2024-01-16T17:35:29.533Z</time>
      </trkpt>
      <trkpt lat="50.63741" lon="1.85873">
        <ele>179</ele>
        <time>2024-01-16T17:35:33.421Z</time>
      </trkpt>
      <trkpt lat="50.63743" lon="1.85876">
        <ele>179</ele>
        <time>2024-01-16T17:35:33.832Z</time>
        <extensions>
          <visugpx:TrkExtension xmlns:visugpx="https://www.visugpx.com/editgpx/">
            <visugpx:node>7</visugpx:node>
            </visugpx:TrkExtension>
        </extensions>
      </trkpt>
      <trkpt lat="50.63749" lon="1.85884">
        <ele>179</ele>
        <time>2024-01-16T17:35:35.003Z</time>
      </trkpt>
      <trkpt lat="50.63753" lon="1.85892">
        <ele>179.2</ele>
        <time>2024-01-16T17:35:36.336Z</time>
      </trkpt>
      <trkpt lat="50.63767" lon="1.85913">
        <ele>180.2</ele>
        <time>2024-01-16T17:35:41.472Z</time>
      </trkpt>
      <trkpt lat="50.63774" lon="1.85926">
        <ele>180.4</ele>
        <time>2024-01-16T17:35:43.415Z</time>
      </trkpt>
      <trkpt lat="50.63783" lon="1.85943">
        <ele>180.9</ele>
        <time>2024-01-16T17:35:46.473Z</time>
      </trkpt>
      <trkpt lat="50.63796" lon="1.85967">
        <ele>181.8</ele>
        <time>2024-01-16T17:35:51.357Z</time>
      </trkpt>
      <trkpt lat="50.63797" lon="1.8597">
        <ele>181.9</ele>
        <time>2024-01-16T17:35:51.891Z</time>
      </trkpt>
      <trkpt lat="50.63813" lon="1.86001">
        <ele>182.8</ele>
        <time>2024-01-16T17:35:57.405Z</time>
      </trkpt>
      <trkpt lat="50.6382" lon="1.86015">
        <ele>183</ele>
        <time>2024-01-16T17:35:59.419Z</time>
      </trkpt>
      <trkpt lat="50.63829" lon="1.86033">
        <ele>183.9</ele>
        <time>2024-01-16T17:36:03.833Z</time>
      </trkpt>
      <trkpt lat="50.63845" lon="1.86065">
        <ele>184.1</ele>
        <time>2024-01-16T17:36:07.985Z</time>
      </trkpt>
      <trkpt lat="50.63857" lon="1.86092">
        <ele>184.9</ele>
        <time>2024-01-16T17:36:12.686Z</time>
      </trkpt>
      <trkpt lat="50.63867" lon="1.8611">
        <ele>185</ele>
        <time>2024-01-16T17:36:15.096Z</time>
      </trkpt>
      <trkpt lat="50.63873" lon="1.86122">
        <ele>185</ele>
        <time>2024-01-16T17:36:16.541Z</time>
      </trkpt>
      <trkpt lat="50.63883" lon="1.86141">
        <ele>185.1</ele>
        <time>2024-01-16T17:36:19.023Z</time>
      </trkpt>
      <trkpt lat="50.63894" lon="1.86159">
        <ele>185.6</ele>
        <time>2024-01-16T17:36:22.315Z</time>
      </trkpt>
      <trkpt lat="50.63905" lon="1.86177">
        <ele>185.3</ele>
        <time>2024-01-16T17:36:24.310Z</time>
      </trkpt>
      <trkpt lat="50.63919" lon="1.86199">
        <ele>185</ele>
        <time>2024-01-16T17:36:26.877Z</time>
      </trkpt>
      <trkpt lat="50.6393" lon="1.86219">
        <ele>184.6</ele>
        <time>2024-01-16T17:36:28.906Z</time>
      </trkpt>
      <trkpt lat="50.63926" lon="1.86222">
        <ele>184.7</ele>
        <time>2024-01-16T17:36:29.737Z</time>
        <extensions>
          <visugpx:TrkExtension xmlns:visugpx="https://www.visugpx.com/editgpx/">
            <visugpx:node>6</visugpx:node>
            </visugpx:TrkExtension>
        </extensions>
      </trkpt>
      <trkpt lat="50.6393" lon="1.86219">
        <ele>184.6</ele>
        <time>2024-01-16T17:36:30.278Z</time>
      </trkpt>
      <trkpt lat="50.63937" lon="1.86218">
        <ele>184.4</ele>
        <time>2024-01-16T17:36:31.096Z</time>
      </trkpt>
      <trkpt lat="50.63946" lon="1.86217">
        <ele>184.2</ele>
        <time>2024-01-16T17:36:32.201Z</time>
      </trkpt>
      <trkpt lat="50.63957" lon="1.86215">
        <ele>184.3</ele>
        <time>2024-01-16T17:36:34.004Z</time>
      </trkpt>
      <trkpt lat="50.63969" lon="1.86212">
        <ele>184.4</ele>
        <time>2024-01-16T17:36:35.966Z</time>
      </trkpt>
      <trkpt lat="50.63982" lon="1.86207">
        <ele>184.5</ele>
        <time>2024-01-16T17:36:38.110Z</time>
      </trkpt>
      <trkpt lat="50.63994" lon="1.86203">
        <ele>184.7</ele>
        <time>2024-01-16T17:36:40.262Z</time>
      </trkpt>
      <trkpt lat="50.64005" lon="1.86198">
        <ele>184.9</ele>
        <time>2024-01-16T17:36:42.296Z</time>
      </trkpt>
      <trkpt lat="50.64015" lon="1.86193">
        <ele>185.1</ele>
        <time>2024-01-16T17:36:44.192Z</time>
      </trkpt>
      <trkpt lat="50.64024" lon="1.86187">
        <ele>185.3</ele>
        <time>2024-01-16T17:36:45.984Z</time>
      </trkpt>
      <trkpt lat="50.6403" lon="1.86183">
        <ele>185.4</ele>
        <time>2024-01-16T17:36:47.116Z</time>
      </trkpt>
      <trkpt lat="50.64043" lon="1.86172">
        <ele>185.8</ele>
        <time>2024-01-16T17:36:50.029Z</time>
      </trkpt>
      <trkpt lat="50.64057" lon="1.86161">
        <ele>186</ele>
        <time>2024-01-16T17:36:52.674Z</time>
      </trkpt>
      <trkpt lat="50.64072" lon="1.86147">
        <ele>186</ele>
        <time>2024-01-16T17:36:55.272Z</time>
      </trkpt>
      <trkpt lat="50.64088" lon="1.86132">
        <ele>186.4</ele>
        <time>2024-01-16T17:36:58.725Z</time>
      </trkpt>
      <trkpt lat="50.64099" lon="1.86122">
        <ele>186.8</ele>
        <time>2024-01-16T17:37:01.360Z</time>
      </trkpt>
      <trkpt lat="50.6411" lon="1.86112">
        <ele>187</ele>
        <time>2024-01-16T17:37:03.575Z</time>
      </trkpt>
      <trkpt lat="50.64118" lon="1.86105">
        <ele>187.1</ele>
        <time>2024-01-16T17:37:05.093Z</time>
      </trkpt>
      <trkpt lat="50.64129" lon="1.86096">
        <ele>187.4</ele>
        <time>2024-01-16T17:37:07.462Z</time>
      </trkpt>
      <trkpt lat="50.64143" lon="1.86087">
        <ele>188</ele>
        <time>2024-01-16T17:37:10.919Z</time>
      </trkpt>
      <trkpt lat="50.64156" lon="1.86079">
        <ele>188.6</ele>
        <time>2024-01-16T17:37:14.242Z</time>
      </trkpt>
      <trkpt lat="50.64167" lon="1.86072">
        <ele>189</ele>
        <time>2024-01-16T17:37:16.769Z</time>
      </trkpt>
      <trkpt lat="50.64176" lon="1.86067">
        <ele>189.2</ele>
        <time>2024-01-16T17:37:18.529Z</time>
      </trkpt>
      <trkpt lat="50.64186" lon="1.86062">
        <ele>189.5</ele>
        <time>2024-01-16T17:37:20.635Z</time>
      </trkpt>
      <trkpt lat="50.64197" lon="1.86054">
        <ele>190.1</ele>
        <time>2024-01-16T17:37:23.765Z</time>
      </trkpt>
      <trkpt lat="50.64205" lon="1.86049">
        <ele>190.5</ele>
        <time>2024-01-16T17:37:25.905Z</time>
      </trkpt>
      <trkpt lat="50.64213" lon="1.86043">
        <ele>190.8</ele>
        <time>2024-01-16T17:37:27.795Z</time>
      </trkpt>
      <trkpt lat="50.64221" lon="1.86036">
        <ele>191</ele>
        <time>2024-01-16T17:37:29.499Z</time>
      </trkpt>
      <trkpt lat="50.64233" lon="1.86026">
        <ele>191.4</ele>
        <time>2024-01-16T17:37:32.251Z</time>
      </trkpt>
      <trkpt lat="50.64246" lon="1.86016">
        <ele>191.9</ele>
        <time>2024-01-16T17:37:35.363Z</time>
      </trkpt>
      <trkpt lat="50.64259" lon="1.86008">
        <ele>192.3</ele>
        <time>2024-01-16T17:37:38.167Z</time>
      </trkpt>
      <trkpt lat="50.64278" lon="1.85996">
        <ele>193</ele>
        <time>2024-01-16T17:37:42.551Z</time>
      </trkpt>
      <trkpt lat="50.64309" lon="1.85975">
        <ele>194.1</ele>
        <time>2024-01-16T17:37:49.644Z</time>
      </trkpt>
      <trkpt lat="50.64333" lon="1.85959">
        <ele>195</ele>
        <time>2024-01-16T17:37:55.248Z</time>
      </trkpt>
      <trkpt lat="50.64355" lon="1.85944">
        <ele>195.8</ele>
        <time>2024-01-16T17:38:00.333Z</time>
      </trkpt>
      <trkpt lat="50.64379" lon="1.85929">
        <ele>196.6</ele>
        <time>2024-01-16T17:38:05.660Z</time>
      </trkpt>
      <trkpt lat="50.64394" lon="1.85918">
        <ele>197.4</ele>
        <time>2024-01-16T17:38:09.871Z</time>
      </trkpt>
      <trkpt lat="50.644" lon="1.85914">
        <ele>197.8</ele>
        <time>2024-01-16T17:38:11.836Z</time>
      </trkpt>
      <trkpt lat="50.64403" lon="1.85912">
        <ele>198</ele>
        <time>2024-01-16T17:38:12.818Z</time>
      </trkpt>
      <trkpt lat="50.64405" lon="1.85911">
        <ele>198.2</ele>
        <time>2024-01-16T17:38:13.815Z</time>
        <extensions>
          <visugpx:TrkExtension xmlns:visugpx="https://www.visugpx.com/editgpx/">
            <visugpx:node>5</visugpx:node>
            </visugpx:TrkExtension>
        </extensions>
      </trkpt>
      <trkpt lat="50.64403" lon="1.85912">
        <ele>198</ele>
        <time>2024-01-16T17:38:14.003Z</time>
      </trkpt>
      <trkpt lat="50.64403" lon="1.85874">
        <ele>198.3</ele>
        <time>2024-01-16T17:38:18.064Z</time>
      </trkpt>
      <trkpt lat="50.64403" lon="1.8582">
        <ele>198.5</ele>
        <time>2024-01-16T17:38:23.464Z</time>
      </trkpt>
      <trkpt lat="50.64402" lon="1.85758">
        <ele>198.4</ele>
        <time>2024-01-16T17:38:29.186Z</time>
      </trkpt>
      <trkpt lat="50.64401" lon="1.85711">
        <ele>198.3</ele>
        <time>2024-01-16T17:38:33.491Z</time>
      </trkpt>
      <trkpt lat="50.64398" lon="1.85653">
        <ele>198</ele>
        <time>2024-01-16T17:38:38.591Z</time>
      </trkpt>
      <trkpt lat="50.64397" lon="1.85632">
        <ele>197.9</ele>
        <time>2024-01-16T17:38:40.448Z</time>
      </trkpt>
      <trkpt lat="50.64396" lon="1.85612">
        <ele>197.8</ele>
        <time>2024-01-16T17:38:42.210Z</time>
      </trkpt>
      <trkpt lat="50.64396" lon="1.85609">
        <ele>197.8</ele>
        <time>2024-01-16T17:38:42.494Z</time>
        <extensions>
          <visugpx:TrkExtension xmlns:visugpx="https://www.visugpx.com/editgpx/">
            <visugpx:node>4</visugpx:node>
            </visugpx:TrkExtension>
        </extensions>
      </trkpt>
      <trkpt lat="50.64395" lon="1.85587">
        <ele>197.7</ele>
        <time>2024-01-16T17:38:44.444Z</time>
      </trkpt>
      <trkpt lat="50.64394" lon="1.85556">
        <ele>198.2</ele>
        <time>2024-01-16T17:38:48.256Z</time>
      </trkpt>
      <trkpt lat="50.64394" lon="1.85534">
        <ele>198.2</ele>
        <time>2024-01-16T17:38:50.335Z</time>
      </trkpt>
      <trkpt lat="50.64394" lon="1.85513">
        <ele>197.7</ele>
        <time>2024-01-16T17:38:51.782Z</time>
      </trkpt>
      <trkpt lat="50.64393" lon="1.85497">
        <ele>197.2</ele>
        <time>2024-01-16T17:38:52.802Z</time>
      </trkpt>
      <trkpt lat="50.64394" lon="1.85488">
        <ele>197</ele>
        <time>2024-01-16T17:38:53.446Z</time>
      </trkpt>
      <trkpt lat="50.64394" lon="1.85481">
        <ele>196.8</ele>
        <time>2024-01-16T17:38:53.903Z</time>
      </trkpt>
      <trkpt lat="50.64395" lon="1.85473">
        <ele>196.7</ele>
        <time>2024-01-16T17:38:54.552Z</time>
      </trkpt>
      <trkpt lat="50.64398" lon="1.85463">
        <ele>197</ele>
        <time>2024-01-16T17:38:56.217Z</time>
      </trkpt>
      <trkpt lat="50.644" lon="1.85454">
        <ele>197.2</ele>
        <time>2024-01-16T17:38:57.496Z</time>
      </trkpt>
      <trkpt lat="50.64402" lon="1.85445">
        <ele>197.4</ele>
        <time>2024-01-16T17:38:58.774Z</time>
      </trkpt>
      <trkpt lat="50.64403" lon="1.85441">
        <ele>197.5</ele>
        <time>2024-01-16T17:38:59.375Z</time>
      </trkpt>
      <trkpt lat="50.64411" lon="1.85419">
        <ele>197.7</ele>
        <time>2024-01-16T17:39:02.086Z</time>
      </trkpt>
      <trkpt lat="50.64429" lon="1.85361">
        <ele>197.9</ele>
        <time>2024-01-16T17:39:08.482Z</time>
      </trkpt>
      <trkpt lat="50.64434" lon="1.85344">
        <ele>197.6</ele>
        <time>2024-01-16T17:39:09.902Z</time>
      </trkpt>
      <trkpt lat="50.64441" lon="1.85326">
        <ele>197.5</ele>
        <time>2024-01-16T17:39:11.763Z</time>
      </trkpt>
      <trkpt lat="50.64449" lon="1.85304">
        <ele>197.3</ele>
        <time>2024-01-16T17:39:13.902Z</time>
      </trkpt>
      <trkpt lat="50.64458" lon="1.85279">
        <ele>197.5</ele>
        <time>2024-01-16T17:39:16.929Z</time>
      </trkpt>
      <trkpt lat="50.64468" lon="1.85255">
        <ele>197.7</ele>
        <time>2024-01-16T17:39:19.952Z</time>
      </trkpt>
      <trkpt lat="50.64477" lon="1.85231">
        <ele>197.5</ele>
        <time>2024-01-16T17:39:22.328Z</time>
      </trkpt>
      <trkpt lat="50.64484" lon="1.85212">
        <ele>197.4</ele>
        <time>2024-01-16T17:39:24.270Z</time>
      </trkpt>
      <trkpt lat="50.6449" lon="1.85196">
        <ele>197.6</ele>
        <time>2024-01-16T17:39:26.353Z</time>
      </trkpt>
      <trkpt lat="50.64496" lon="1.85181">
        <ele>197.9</ele>
        <time>2024-01-16T17:39:28.562Z</time>
      </trkpt>
      <trkpt lat="50.645" lon="1.85169">
        <ele>198</ele>
        <time>2024-01-16T17:39:29.999Z</time>
      </trkpt>
      <trkpt lat="50.64503" lon="1.85159">
        <ele>198.1</ele>
        <time>2024-01-16T17:39:31.204Z</time>
        <extensions>
          <visugpx:TrkExtension xmlns:visugpx="https://www.visugpx.com/editgpx/">
            <visugpx:node>3</visugpx:node>
            </visugpx:TrkExtension>
        </extensions>
      </trkpt>
      <trkpt lat="50.64505" lon="1.85152">
        <ele>198.2</ele>
        <time>2024-01-16T17:39:32.098Z</time>
      </trkpt>
      <trkpt lat="50.6451" lon="1.85136">
        <ele>198.4</ele>
        <time>2024-01-16T17:39:34.112Z</time>
      </trkpt>
      <trkpt lat="50.64513" lon="1.85125">
        <ele>198.5</ele>
        <time>2024-01-16T17:39:35.401Z</time>
      </trkpt>
      <trkpt lat="50.64517" lon="1.85114">
        <ele>198.6</ele>
        <time>2024-01-16T17:39:36.756Z</time>
      </trkpt>
      <trkpt lat="50.64522" lon="1.851">
        <ele>198.8</ele>
        <time>2024-01-16T17:39:38.609Z</time>
      </trkpt>
      <trkpt lat="50.64525" lon="1.85088">
        <ele>198.9</ele>
        <time>2024-01-16T17:39:39.984Z</time>
      </trkpt>
      <trkpt lat="50.64527" lon="1.85077">
        <ele>199</ele>
        <time>2024-01-16T17:39:41.224Z</time>
      </trkpt>
      <trkpt lat="50.64527" lon="1.85067">
        <ele>199</ele>
        <time>2024-01-16T17:39:42.169Z</time>
      </trkpt>
      <trkpt lat="50.64528" lon="1.85058">
        <ele>199</ele>
        <time>2024-01-16T17:39:43.032Z</time>
      </trkpt>
      <trkpt lat="50.64524" lon="1.85051">
        <ele>198.9</ele>
        <time>2024-01-16T17:39:43.798Z</time>
        <extensions>
          <visugpx:TrkExtension xmlns:visugpx="https://www.visugpx.com/editgpx/">
            <visugpx:node>2</visugpx:node>
            </visugpx:TrkExtension>
        </extensions>
      </trkpt>
      <trkpt lat="50.64466" lon="1.84967">
        <ele>195.1</ele>
        <time>2024-01-16T17:39:51.726Z</time>
      </trkpt>
      <trkpt lat="50.64449" lon="1.84935">
        <ele>194.6</ele>
        <time>2024-01-16T17:39:55.057Z</time>
        <extensions>
          <visugpx:TrkExtension xmlns:visugpx="https://www.visugpx.com/editgpx/">
            <visugpx:node>1</visugpx:node>
            </visugpx:TrkExtension>
        </extensions>
      </trkpt>
      <trkpt lat="50.6444" lon="1.84938">
        <ele>194.2</ele>
        <time>2024-01-16T17:39:56.015Z</time>
      </trkpt>
      <trkpt lat="50.64424" lon="1.84949">
        <ele>194</ele>
        <time>2024-01-16T17:39:58.356Z</time>
      </trkpt>
      <trkpt lat="50.64413" lon="1.84965">
        <ele>193.9</ele>
        <time>2024-01-16T17:40:00.452Z</time>
      </trkpt>
      <trkpt lat="50.64381" lon="1.85032">
        <ele>193</ele>
        <time>2024-01-16T17:40:07.258Z</time>
      </trkpt>
    </trkseg>
  </trk>
</gpx>